     2.11           OBSERVATION DATA    G (GPS)             RINEX VERSION / TYPE
teqc 2010Oct21 OPUS Account 20111025 18:57:33UTC            PGM / RUN BY / DATE
F 1521                                                      MARKER NAME
1125                                                        MARKER NUMBER
CSMIDDLETON NGS                                             OBSERVER / AGENCY
4624K01584 TRIMBLE NETR5 4.41                               REC # / TYPE / VERS
60177755 TRM41249.00 NONE                                   ANT # / TYPE
  -740605.2087 -5465471.4165  3192741.0255                  APPROX POSITION XYZ
        2.0000        0.0000        0.0000                  ANTENNA: DELTA H/E/N
     1     1                                                WAVELENGTH FACT L1/2
     5    L1    L2    C1    P1    P2                        # / TYPES OF OBSERV
    15                                                      LEAP SECONDS
  2011     7    27     0     0    0.0000000     GPS         TIME OF FIRST OBS
                                                            END OF HEADER
 11  7 27  0  0  0.0000000  0  8G04G20G27G09G02G28G17G10
 104834766.081 8  81689547.29546  19949360.758                    19949368.371
 126895224.251 6  98879444.33043  24147358.453                    24147366.316
 117893323.790 7  91864998.71745  22434357.664                    22434366.098
 116784007.189 7  91000538.61245  22223246.344                    22223254.508
 118176665.165 7  92085757.78845  22488249.508                    22488257.191
 114235554.273 8  89014695.68045  21738264.750                    21738272.117
 112016122.134 8  87285397.869 7  21315952.633
 124759459.839 6  97215211.56743  23740932.367                    23740943.313
 11  7 27  0  0 30.0000000  0  8G04G20G27G09G02G28G17G10
 104814376.752 8  81673659.52246  19945480.578                    19945488.793
 126924963.424 6  98902617.66743  24153017.375                    24153025.965
 117878689.468 7  91853595.35545  22431572.836                    22431581.371
 116750922.268 7  90974758.18445  22216949.711                    22216958.625
 118094003.852 7  92021346.45645  22472519.805                    22472526.313
 114283149.435 8  89051782.80545  21747321.539                    21747328.496
 112046382.499 8  87308977.374 7  21321711.078
 124665169.269 7  97141738.47843  23722989.680                    23722999.793
 11  7 27  0  1  0.0000000  0  8G04G20G27G09G02G28G17G10
 104794561.511 8  81658219.08846  19941709.953                    19941717.680
 126955202.897 6  98926180.84643  24158771.164                    24158779.730
 117864547.148 7  91842575.37445  22428881.313                    22428890.324
 116718465.530 7  90949467.22145  22210773.063                    22210781.730
 118011618.515 7  91957150.15245  22456842.289                    22456849.316
 114331114.795 7  89089158.39545  21756449.031                    21756455.473
 112076742.896 8  87332634.823 7  21327488.016
 124570892.425 6  97068276.11143  23705049.250                    23705059.016
 11  7 27  0  1 30.0000000  0  8G04G20G27G09G02G28G17G10
 104775320.715 8  81643226.28446  19938048.500                    19938056.395
 126985942.516 6  98950133.79543  24164621.359                    24164629.496
 117850897.158 7  91831939.02245  22426284.531                    22426293.383
 116686638.300 7  90924666.78744  22204716.898                    22204725.582
 117929511.305 7  91893170.60245  22441217.078                    22441224.004
 114379450.635 8  89126822.66145  21765647.484                    21765655.059
 112107203.259 8  87356370.182 7  21333284.781
 124476632.920 6  96994827.20443  23687112.141                    23687121.949
 11  7 27  0  2  0.0000000  0  8G04G20G27G09G02G28G17G10
 104756654.358 8  81628681.08146  19934496.367                    19934504.203
 127017182.026 6  98974476.24243  24170566.680                    24170574.688
 117837739.661 7  91821686.42945  22423780.125                    22423789.820
 116655441.386 7  90900357.49645  22198780.313                    22198789.133
 117847683.297 7  91829408.62045  22425645.992                    22425653.344
 114428157.165 8  89164775.75645  21774915.914                    21774923.383
 112137762.957 8  87380182.933 7  21339100.172
 124382393.456 6  96921394.03643  23669178.227                    23669188.852
 11  7 27  0  2 30.0000000  0  8G04G20G27G09G02G28G17G10
 104738562.347 8  81614583.42546  19931053.672                    19931061.469
 127048920.813 6  98999207.73043  24176606.664                    24176614.277
 117825074.739 7  91811817.66545  22421370.328                    22421379.305
 116624875.876 7  90876540.21745  22192964.555                    22192972.789
 117766135.805 7  91765865.17845  22410127.813                    22410135.207
 114477234.539 7  89203017.82745  21784254.789                    21784261.652
 112168422.251 7  87404073.292 7  21344934.094
 124288177.142 6  96847978.82943  23651249.609                    23651260.434
 11  7 27  0  3  0.0000000  0  8G04G20G27G09G02G28G17G10
 104721044.680 8  81600933.31946  19927720.344                    19927727.848
 127081158.372 6  99024327.91043  24182741.242                    24182748.746
 117812902.547 7  91802332.85345  22419053.992                    22419062.543
 116594942.463 7  90853215.49945  22187267.531                    22187276.059
 117684870.350 7  91702541.51045  22394663.477                    22394670.453
 114526683.155 8  89241549.21245  21793665.219                    21793671.922
 112199180.058 8  87428040.413 7  21350786.984
 124193987.101 6  96774584.06043  23633325.508                    23633336.152
 11  7 27  0  3 30.0000000  0  8G04G20G27G09G02G28G17G10
 104704100.927 8  81587730.40846  19924495.914                    19924503.508
 127113894.157 6  99049836.32443  24188969.852                    24188978.492
 117801222.907 8  91793231.83645  22416831.547                    22416840.336
 116565641.756 7  90830383.78045  22181692.508                    22181700.512
 117603888.207 8  91639438.60845  22379253.078                    22379260.035
 114576502.801 8  89280369.68145  21803144.977                    21803152.641
 112230036.062 8  87452084.056 7  21356659.242
 124099826.232 6  96701212.12243  23615406.688                    23615418.137
 11  7 27  0  4  0.0000000  0  8G04G20G27G09G02G28G17G10
 104687731.187 8  81574974.77346  19921380.758                    19921388.488
 127147127.913 6  99075732.73743  24195294.125                    24195302.281
 117790036.118 7  91784514.85945  22414702.109                    22414711.848
 116536974.604 7  90808045.76045  22176237.039                    22176246.004
 117523191.220 7  91576557.90945  22363896.906                    22363903.758
 114626693.571 8  89319479.32145  21812696.078                    21812704.004
 112260990.314 8  87476204.236 7  21362549.453
 124005697.940 6  96627865.54743  23597495.023                    23597505.758
 11  7 27  0  4 30.0000000  0  8G04G20G27G09G02G28G17G10
 104671935.020 8  81562666.08746  19918374.828                    19918382.816
 127180858.621 6  99102016.39843  24201713.023                    24201721.266
 117779342.070 7  91776181.81545  22412667.992                    22412675.977
 116508941.739 7  90786201.94945  22170902.211                    22170911.324
 117442780.527 8  91513900.28445  22348594.813                    22348601.730
 114677255.648 8  89358878.33245  21822317.500                    21822325.328
 112292041.955 8  87500400.323 7  21368458.156
 123911605.224 6  96554546.64944  23579590.086                    23579600.215
 11  7 27  0  5  0.0000000  0  8G04G20G27G09G02G28G17G10
 104656712.405 8  81550804.32546  19915478.164                    19915486.043
 127215086.028 5  99128687.09843  24208226.539                    24208234.902
 117769140.951 7  91768232.89645  22410726.859                    22410734.910
 116481543.679 7  90764852.81145  22165689.063                    22165697.836
 117362657.630 8  91451466.93445  22333348.047                    22333354.527
 114728188.888 8  89398566.52545  21832009.977                    21832017.773
 112323190.567 7  87524671.968 7  21374385.852
 123817551.118 6  96481257.87043  23561691.883                    23561702.582
 11  7 27  0  5 30.0000000  0  9G12G04G20G27G09G02G28G17G10
 131665375.44215 102596394.63913  25055075.867
 104642062.868 8  81539389.11446  19912690.391                    19912698.016
 127249809.304 6  99155744.18343  24214833.625                    24214842.961
 117759432.413 7  91760667.79345  22408878.688                    22408887.406
 116454781.324 7  90743999.05045  22160596.352                    22160604.746
 117282823.486 7  91389258.55345  22318156.242                    22318162.406
 114779493.371 8  89438544.02545  21841772.898                    21841780.508
 112354436.139 8  87549019.156 7  21380331.484
 123723538.816 7  96408001.61244  23543802.586                    23543813.133
 11  7 27  0  6  0.0000000  0  9G12G04G20G27G09G02G28G17G10
 131569366.54414                  25036806.250
 104627986.484 8  81528420.51346  19910011.430                    19910019.168
 127285027.851 6  99183187.14843  24221535.805                    24221544.262
 117750216.586 7  91753486.63145  22407125.453                    22407134.023
 116428655.315 7  90723641.12545  22155624.891                    22155633.727
 117203279.765 8  91327276.52145  22303019.461                    22303027.145
 114831169.206 8  89478810.87445  21851606.734                    21851614.387
 112385777.951 8  87573441.349 7  21386295.953
 123629571.487 7  96334780.40844  23525921.078                    23525931.555
 11  7 27  0  6 30.0000000  0  9G12G04G20G27G09G02G28G17G10
 131473303.43814                  25018523.633
 104614482.439 8  81517897.88946  19907442.023                    19907450.082
 127320740.815 6  99211015.43543  24228331.367                    24228340.223
 117741493.331 7  91746689.25545  22405465.344                    22405474.180
 116403165.960 7  90703779.30045  22150774.164                    22150782.859
 117124027.917 8  91265521.89145  22287937.961                    22287944.688
 114883216.547 8  89519367.18945  21861511.008                    21861518.664
 112417215.783 8  87597938.363 7  21392278.070
 123535652.321 7  96261596.75944  23508048.117                    23508058.512
 11  7 27  0  7  0.0000000  0  8G04G20G27G09G02G28G17G10
 104601551.059 8  81507821.49546  19904981.148                    19904988.906
 127356948.171 6  99239228.94544  24235222.172                    24235230.395
 117733262.746 7  91740275.82045  22403899.414                    22403907.715
 116378314.053 7  90684414.18345  22146044.820                    22146053.867
 117045069.001 8  91203995.51745  22272913.195                    22272920.031
 114935635.421 7  89560213.05945  21871485.563                    21871493.734
 112448749.590 8  87622510.153 7  21398278.750
 123441784.602 6  96188453.18444  23490185.953                    23490196.246
 11  7 27  0  7 30.0000000  0  8G04G20G27G09G02G28G17G10
 104589191.759 8  81498190.87746  19902629.109                    19902636.973
 127393648.920 7  99267826.90043  24242206.133                    24242214.309
 117725524.431 7  91734245.96045  22402426.820                    22402435.391
 116354099.964 7  90665546.07545  22141437.227                    22141445.602
 116966404.487 7  91142698.54745  22257943.813                    22257950.453
 114988425.519 8  89601348.15545  21881532.422                    21881539.113
 112480378.798 8  87647156.273 7  21404297.492
 123347971.421 6  96115352.09844  23472333.594                    23472344.188
 11  7 27  0  8  0.0000000  0  9G12G04G20G27G09G02G28G17G10
 131184536.22715                  24963624.211
 104577404.417 8  81489005.94146  19900386.078                    19900393.559
 127430842.523 6  99296808.94243  24249283.734                    24249291.492
 117718278.726 7  91728599.93745  22401047.703                    22401056.398
 116330524.819 7  90647175.83645  22136950.883                    22136959.789
 116888036.135 8  91081632.35845  22243030.633                    22243037.492
 115041587.316 8  89642772.90145  21891648.156                    21891655.691
 112512103.486 8  87671876.792 7  21410335.063
 123254216.040 6  96042296.03744  23454492.711                    23454502.473
 11  7 27  0  8 30.0000000  0  9G12G04G20G27G09G02G28G17G10
 131088268.743 5                  24945304.813
 104566188.251 8  81480266.07746  19898251.859                    19898259.813
 127468527.880 6  99326174.12943  24256454.852                    24256462.781
 117711525.003 7  91723337.26345  22399762.844                    22399771.633
 116307588.647 7  90629303.50545  22132586.039                    22132595.129
 116809964.754 8  91020797.57545  22228174.156                    22228180.633
 115095120.509 7  89684487.03245  21901834.508                    21901842.270
 112543922.706 8  87696670.985 7  21416389.727
 123160521.319 6  95969287.27143  23436663.305                    23436672.898
 11  7 27  0  9  0.0000000  0  9G12G04G20G27G09G02G28G17G10
 130991953.27515                  24926975.563
 104555542.428 8  81471970.64546  19896225.961                    19896233.504
 127506704.278 6  99355921.95643  24263719.555                    24263728.012
 117705262.877 7  91718457.68145  22398570.852                    22398579.336
 116285291.653 7  90611929.22345  22128343.625                    22128351.988
 116732191.459 8  90960195.06045  22213374.242                    22213380.652
 115149024.387 8  89726490.03245  21912093.727                    21912099.957
 112575836.059 8  87721538.507 7  21422462.758
 123066890.188 6  95896328.00543  23418845.734                    23418854.934
 11  7 27  0  9 30.0000000  0  9G12G04G20G27G09G02G28G17G10
 130895591.538 5 101996748.19014  24908637.977
 104545467.203 8  81464119.81946  19894308.680                    19894316.727
 127545371.276 6  99386052.03143  24271077.594                    24271086.047
 117699492.567 7  91713961.33945  22397472.820                    22397481.594
 116263634.442 7  90595053.48345  22124222.203                    22124230.215
 116654717.870 8  90899826.10745  22198631.547                    22198638.375
 115203299.372 8  89768782.21345  21922420.852                    21922428.902
 112607843.486 8  87746479.361 7  21428553.469
 122973326.360 6  95823421.18843  23401040.352                    23401050.398
 11  7 27  0 10  0.0000000  0  9G12G04G20G27G09G02G28G17G10
 130799185.042 5 101921626.246 4  24890291.719
 104535962.080 8  81456713.24646  19892499.938                    19892507.645
 127584527.749 6  99416563.54843  24278529.523                    24278537.195
 117694213.494 7  91709847.75445  22396468.273                    22396476.898
 116242617.356 7  90578676.53845  22120222.805                    22120231.027
 116577545.111 8  90839691.54645  22183946.063                    22183952.441
 115257945.658 7  89811363.64945  21932819.000                    21932827.000
 112639944.604 8  87771493.210 7  21434662.195
 122879833.015 6  95750569.35044  23383249.633                    23383259.730
 11  7 27  0 10 30.0000000  0  9G12G04G20G27G09G02G28G17G10
 130702735.314 5 101846470.661 4  24871938.492
 104527026.456 8  81449750.42746  19890799.688                    19890807.621
 127624173.163 6  99447456.08143  24286072.922                    24286081.281
 117689425.703 7  91706116.99945  22395556.953                    22395565.836
 116222240.985 7  90562798.84845  22116344.906                    22116353.746
 116500674.664 8  90779792.55945  22169317.469                    22169324.691
 115312962.898 8  89854234.20345  21943289.672                    21943296.371
 112672139.672 8  87796580.259 7  21440788.875
 122786413.061 6  95677774.66344  23365471.766                    23365482.441
 11  7 27  0 11  0.0000000  0  9G12G04G20G27G09G02G28G17G10
 130606244.072 4 101771282.823 5  24853575.742
 104518660.014 8  81443231.12546  19889207.180                    19889215.445
 127664306.594 6  99478728.88043  24293710.109                    24293718.836
 117685129.118 7  91702768.98645  22394739.789                    22394747.910
 116202505.629 7  90547420.65645  22112589.797                    22112598.359
 116424107.772 8  90720130.09945  22154747.875                    22154754.652
 115368351.051 7  89897393.81845  21953829.039                    21953836.652
 112704428.127 8  87821740.089 7  21446933.055
 122693069.869 6  95605039.81643  23347709.430                    23347719.754
 11  7 27  0 11 30.0000000  0  9G12G04G20G27G09G02G28G17G10
 130509713.089 5 101696063.941 5  24835207.133
 104510862.279 8  81437154.97446  19887723.828                    19887731.195
 127704927.289 6  99510381.31243  24301440.820                    24301448.820
 117681323.554 7  91699803.59945  22394015.289                    22394023.910
 116183411.666 7  90532542.24545  22108956.297                    22108964.457
 116347845.743 8  90660705.18745  22140235.555                    22140241.570
 115424110.201 7  89940842.44845  21964440.258                    21964447.793
 112736809.846 8  87846972.589 7  21453095.047
 122599806.931 7  95532367.45844  23329962.359                    23329972.199
 11  7 27  0 12  0.0000000  0  9G12G04G20G27G09G02G28G17G10
 130413143.346 6 101620814.888 5  24816831.805
 104503632.325 8  81431521.25646  19886347.648                    19886355.387
 127746034.319 6  99542412.76043  24309262.961                    24309270.605
 117678008.200 7  91697220.20345  22393384.500                    22393392.891
 116164959.293 7  90518163.76345  22105445.398                    22105453.637
 116271889.669 8  90601518.68545  22125781.180                    22125788.441
 115480239.665 7  89984579.62845  21975120.867                    21975128.535
 112769283.912 8  87872277.030 7  21459274.461
 122506626.890 6  95459759.73744  23312230.461                    23312240.988
 11  7 27  0 12 30.0000000  0  9G12G04G20G27G09G02G28G17G10
 130316536.247 6 101545536.709 5  24798447.305
 104496969.720 8  81426329.62946  19885079.836                    19885088.188
 127787626.835 6  99574822.49043  24317177.000                    24317185.227
 117675182.890 7  91695018.64745  22392847.234                    22392855.254
 116147148.693 7  90504285.38845  22102055.398                    22102064.273
 116196240.857 8  90542571.61545  22111385.789                    22111392.313
 115536739.768 7  90028605.66645  21985872.688                    21985879.570
 112801850.620 8  87897653.658 7  21465471.945
 122413533.146 6  95387219.26344  23294515.219                    23294525.313
 11  7 27  0 13  0.0000000  0  9G12G04G20G27G09G02G28G17G10
 130219893.369 6 101470230.614 5  24780057.445
 104490874.003 8  81421579.72446  19883920.133                    19883927.836
 127829703.854 7  99607609.78243  24325184.820                    24325192.352
 117672847.035 7  91693198.50145  22392402.242                    22392410.820
 116129979.990 7  90490907.18445  22098788.313                    22098796.910
 116120900.471 8  90483864.89145  22097048.977                    22097056.254
 115593610.221 7  90072920.26945  21996694.875                    21996702.445
 112834509.444 8  87923102.077 7  21471686.719
 122320528.913 6  95314748.53644  23276817.148                    23276826.797
 11  7 27  0 13 30.0000000  0  9G12G04G20G27G09G02G28G17G10
 130123216.229 6 101394897.845 6  24761659.734
 104485344.438 8  81417270.98846  19882867.555                    19882875.676
 127872264.351 6  99640773.82543  24333283.273                    24333291.586
 117671000.742 7  91691759.80845  22392051.422                    22392059.941
 116113453.624 7  90478029.49745  22095643.008                    22095652.336
 116045869.684 8  90425399.39945  22082771.203                    22082777.828
 115650850.848 7  90117523.30945  22007586.875                    22007594.711
 112867260.479 8  87948622.354 7  21477918.813
 122227617.447 6  95242350.09444  23259136.594                    23259146.492
 11  7 27  0 14  0.0000000  0  9G12G04G20G27G09G02G28G17G10
 130026506.662 6 101319539.873 5  24743255.234
 104480380.417 8  81413402.92846  19881922.922                    19881930.746
 127915307.456 6  99674313.87843  24341474.883                    24341482.273
 117669643.293 7  91690702.05045  22391793.508                    22391801.633
 116097569.373 7  90465652.15145  22092620.719                    22092629.391
 115971149.611 8  90367176.02045  22068552.641                    22068559.395
 115708461.107 7  90162414.37745  22018550.570                    22018558.023
 112900103.194 8  87974214.064 7  21484168.859
 122134802.058 6  95170026.48844  23241474.352                    23241484.262
 11  7 27  0 14 30.0000000  0  9G12G04G20G27G09G02G28G17G10
 129929766.000 6 101244157.576 5  24724847.625
 104475981.196 8  81409974.98646  19881086.055                    19881093.891
 127958832.123 6  99708229.16643  24349756.273                    24349764.633
 117668774.373 7  91690024.97045  22391627.297                    22391636.102
 116082327.596 7  90453775.45345  22089720.641                    22089728.535
 115896741.752 8  90309195.91945  22054392.898                    22054399.301
 115766440.899 7  90207593.40645  22029583.609                    22029591.320
 112933037.763 8  87999877.365 7  21490435.898
 122042086.054 6  95097780.35944  23223831.219                    23223841.672
 11  7 27  0 15  0.0000000  0  9G12G04G20G27G09G02G28G17G10
 129832995.598 6 101168752.157 6  24706432.617
 104472146.171 8  81406986.65546  19880355.930                    19880363.770
 128002837.272 6  99742518.88443  24358130.945                    24358138.887
 117668393.573 7  91689728.22645  22391554.672                    22391563.535
 116067728.083 7  90442399.20245  22086942.375                    22086951.020
 115822647.096 8  90251459.86945  22040293.141                    22040299.859
 115824789.835 7  90253060.08145  22040686.898                    22040694.645
 112966063.243 8  88025611.479 7  21496720.609
 121949472.572 6  95025614.10044  23206207.609                    23206217.523
 11  7 27  0 15 30.0000000  0  9G12G04G20G27G09G02G28G17G10
 129736197.156 6 101093324.894 6  24688011.719
 104468874.291 8  81404437.14946  19879733.313                    19879741.145
 128047322.015 6  99777182.24643  24366596.078                    24366604.227
 117668500.122 7  91689811.25645  22391575.336                    22391584.145
 116053771.015 7  90431523.54345  22084286.477                    22084294.801
 115748866.349 8  90193968.41345  22026253.359                    22026259.500
 115883507.865 7  90298814.34045  22051860.367                    22051868.434
 112999179.788 8  88051416.580 7  21503022.336
 121856964.462 6  94953529.93144  23188602.805                    23188613.559
 11  7 27  0 16  0.0000000  0  9G12G04G20G27G09G02G28G17G10
 129639372.574 6 101017877.233 6  24669587.938
 104466165.355 8  81402326.30746  19879218.188                    19879226.051
 128092285.444 6  99812218.66943  24375152.805                    24375160.863
 117669093.982 7  91690273.99545  22391688.266                    22391697.168
 116040456.529 8  90421148.63145  22081752.664                    22081761.680
 115675401.378 8  90136723.03346  22012273.391                    22012279.582
 115942594.980 7  90344856.21345  22063104.789                    22063111.930
 113032387.329 8  88077292.584 7  21509341.813
 121764565.345 7  94881530.68944  23171020.664                    23171030.469
 11  7 27  0 16 30.0000000  0  9G12G04G20G27G09G02G28G17G10
 129542523.433 6 100942410.453 6  24651156.664
 104464018.308 8  81400653.29046  19878809.461                    19878817.129
 128137726.234 6  99847627.10142  24383798.484                    24383807.410
 117670174.342 7  91691115.83545  22391894.234                    22391902.848
 116027784.644 7  90411274.42545  22079341.641                    22079349.641
 115602252.946 8  90079724.28446  21998353.125                    21998359.973
 116002050.494 7  90391185.15345  22074418.586                    22074426.844
 113065685.477 7  88103239.180 7  21515678.313
 121672278.423 6  94809618.86344  23153458.961                    23153468.172
 11  7 27  0 17  0.0000000  0  9G12G04G20G27G09G02G28G17G10
 129445651.002 7 100866925.559 6  24632722.969
 104462432.456 8  81399417.56846  19878507.625                    19878514.918
 128183643.449 5  99883406.71242  24392537.227                    24392545.359
 117671740.857 7  91692336.49845  22392192.234                    22392200.793
 116015755.149 7  90401900.81345  22077052.352                    22077061.027
 115529422.380 8  90022973.26146  21984494.078                    21984500.844
 116061874.436 7  90437801.14545  22085802.844                    22085810.836
 113099074.232 7  88129256.400 7  21522031.938
 121580106.917 7  94737796.99944  23135918.523                    23135929.309
 11  7 27  0 17 30.0000000  0  9G12G04G20G27G09G02G28G17G10
 129348757.214 7 100791423.942 6  24614284.617
 104461407.113 8  81398618.61646  19878312.609                    19878320.273
 128230036.34215  99919556.94452  24401363.969                    24401373.988
 117673793.100 7  91693935.65645  22392582.539                    22392590.961
 116004368.393 7  90393027.97145  22074885.305                    22074893.863
 115456910.767 8  89966470.75446  21970695.570                    21970701.941
 116122066.325 7  90484703.88945  22097256.984                    22097264.500
 113132553.281 7  88155343.957 7  21528402.531
 121488054.709 6  94666068.09244  23118401.336                    23118411.629
 11  7 27  0 18  0.0000000  0  9G12G04G20G27G09G02G28G17G10
 129251843.159 7 100715906.555 6  24595842.273
 104460941.277 8  81398255.64346  19878223.609                    19878231.848
 128276903.186 6  99956076.55042  24410283.477                    24410292.402
 117676330.162 7  91695912.56345  22393065.258                    22393073.699
 115993623.886 7  90384655.64245  22072840.383                    22072849.082
 115384718.955 8  89910217.45045  21956958.172                    21956964.719
 116182625.495 7  90531892.81345  22108780.953                    22108788.328
 113166122.215 8  88181501.568 7  21534790.875
 121396124.310 6  94594434.09244  23100908.313                    23100917.797
 11  7 27  0 18 30.0000000  0  9G12G04G20G27G09G02G28G17G10
 129154910.753 6 100640374.912 6  24577396.367
 104461033.911 8  81398327.84246  19878241.836                    19878249.191
 128324243.086 6  99992964.75842  24419292.969                    24419300.883
 117679351.514 7  91698266.84645  22393640.422                    22393648.680
 115983521.669 7  90376783.75945  22070918.555                    22070927.188
 115312848.392 8  89854214.44345  21943281.570                    21943287.414
 116243551.789 7  90579367.79945  22120375.078                    22120382.141
 113199780.986 7  88207729.176 7  21541195.734
 121304319.246 6  94522897.71244  23083438.367                    23083447.359
 11  7 27  0 19  0.0000000  0  9G12G04G20G27G09G02G28G17G10
 129057961.735 7 100564830.250 6  24558947.672
 104461684.277 8  81398834.63046  19878365.336                    19878373.070
 128372055.056 6 100030220.83842  24428390.633                    24428398.648
 117682856.584 7  91700998.06645  22394307.750                    22394315.523
 115974061.394 7  90369412.11245  22069118.602                    22069126.191
 115241299.704 8  89798462.27245  21929666.094                    21929672.871
 116304845.421 7  90627129.02545  22132039.078                    22132046.449
 113233530.242 7  88234027.303 7  21547617.789
 121212642.565 6  94451461.41444  23065992.469                    23066002.285
 11  7 27  0 19 30.0000000  0  9G12G04G20G27G09G02G28G17G10
 128960997.873 7 100489274.065 6  24540496.359
 104462891.818 8  81399775.58046  19878595.023                    19878602.887
 128420337.799 6 100067843.83242  24437579.063                    24437586.566
 117686845.020 7  91704105.92945  22395066.336                    22395074.395
 115965242.886 7  90362540.55245  22067440.094                    22067448.930
 115170074.236 8  89742961.96045  21916112.148                    21916118.648
 116366505.552 7  90675175.82745  22143772.469                    22143780.668
 113267369.032 7  88260395.192 7  21554057.391
 121121097.837 6  94380127.89544  23048571.961                    23048581.500
 11  7 27  0 20  0.0000000  0  9G12G04G20G27G09G02G28G17G10
 128864020.446 6 100413707.291 6  24522042.477
 104464655.263 8  81401149.71346  19878930.469                    19878938.090
 128469090.001 6 100105832.52542  24446855.563                    24446864.488
 117691315.913 7  91707589.73745  22395917.414                    22395925.266
 115957065.954 7  90356168.90145  22065884.078                    22065892.910
 115099173.130 8  89687714.38646  21902620.016                    21902626.578
 116428531.660 7  90723507.80845  22155575.570                    22155583.012
 113301297.048 7  88286832.597 7  21560513.711
 121029688.197 7  94308899.65744  23031177.305                    23031187.047
 11  7 27  0 20 30.0000000  0  9G12G04G20G27G09G02G28G17G10
 128767031.439 6 100338131.515 6  24503586.102
 104466973.829 8  81402956.39746  19879371.953                    19879379.836
 128518310.688 6 100144186.25643  24456222.367                    24456230.637
 117696268.748 7  91711449.07845  22396859.180                    22396868.316
 115949530.755 7  90350297.30945  22064450.359                    22064458.977
 115028597.524 8  89632720.46645  21889189.914                    21889196.059
 116490923.531 7  90772124.81745  22167448.195                    22167455.820
 113335314.334 7  88313339.552 7  21566986.680
 120938416.935 7  94237779.24444  23013808.914                    23013818.484
 11  7 27  0 21  0.0000000  0  9G12G04G20G27G09G02G28G17G10
 128670032.591 6 100262548.063 6  24485126.602
 104469846.650 8  81405194.96746  19879918.305                    19879926.105
 128567998.509 6 100182904.01343  24465677.727                    24465685.910
 117701702.611 7  91715683.24945  22397893.883                    22397902.285
 115942636.550 7  90344925.19345  22063138.188                    22063146.938
 114958348.263 8  89577980.83745  21875822.023                    21875828.598
 116553680.706 7  90821026.46745  22179390.773                    22179398.090
 113369420.981 7  88339916.153 7  21573476.922
 120847287.586 7  94166769.41144  22996467.797                    22996477.102
 11  7 27  0 21 30.0000000  0  9G12G04G20G27G09G02G28G17G10
 128573025.831 6 100186958.453 5  24466666.406
 104473272.448 8  81407864.43846  19880570.484                    19880577.949
 128618152.211 6 100221984.78943  24475221.891                    24475229.574
 117707616.820 7  91720291.71345  22399019.141                    22399027.883
 115936382.944 7  90340052.25345  22061948.109                    22061957.016
 114888426.459 8  89523496.37045  21862516.758                    21862522.789
 116616802.568 7  90870212.27945  22191402.250                    22191409.914
 113403616.807 7  88366562.248 7  21579984.344
 120756303.283 7  94095872.62244  22979154.297                    22979163.637
 11  7 27  0 22  0.0000000  0  9G12G04G20G27G09G02G28G17G10
 128476012.466 6 100111363.643 6  24448206.492
 104477250.539 8  81410964.25746  19881327.352                    19881335.426
 128668770.608 6 100261427.70843  24484854.031                    24484862.227
 117714010.726 7  91725273.97545  22400235.570                    22400244.531
 115930769.749 7  90335678.34845  22060880.242                    22060888.469
 114818833.237 8  89469267.93446  21849273.266                    21849279.371
 116680289.104 7  90919682.26145  22203483.266                    22203491.035
 113437901.586 7  88393277.656 7  21586508.180
 120665467.337 7  94025091.44744  22961868.523                    22961878.277
 11  7 27  0 22 30.0000000  0  9G12G04G20G27G09G02G28G17G10
 128378993.986 6 100035764.894 6  24429744.156
 104481779.612 8  81414493.40746  19882189.047                    19882196.840
 128719852.434 6 100301231.64843  24494574.383                    24494582.703
 117720883.491 7  91730629.36045  22401543.617                    22401552.801
 115925796.834 7  90331803.34145  22059934.016                    22059942.391
 114749569.351 8  89415296.13746  21836092.656                    21836099.102
 116744139.348 7  90969435.68145  22215633.883                    22215642.012
 113472275.025 7  88420062.147 7  21593050.070
 120574782.921 7  93954428.39844  22944611.734                    22944621.598
 11  7 27  0 23  0.0000000  0  9G12G04G20G27G09G02G28G17G10
 128281972.411 6  99960163.723 6  24411281.414
 104486858.843 8  81418451.26346  19883155.727                    19883162.930
 128771396.398 7 100341395.75643  24504383.188                    24504390.379
 117728234.672 7  91736357.52845  22402942.930                    22402951.148
 115921463.818 7  90328426.94945  22059109.227                    22059117.555
 114680635.830 8  89361581.71946  21822975.094                    21822981.043
 116808353.261 7  91019472.45445  22227852.867                    22227861.184
 113506737.871 7  88446916.308 7  21599607.453
 120484253.531 7  93883886.11444  22927384.211                    22927394.078
 11  7 27  0 23 30.0000000  0  9G12G04G20G27G09G02G28G17G10
 128184949.562 6  99884561.552 6  24392818.602
 104492487.160 8  81422836.96546  19884227.102                    19884234.621
 128823400.877 7 100381918.71843  24514279.227                    24514287.098
 117736063.389 7  91742457.80045  22404432.859                    22404441.148
 115917770.067 7  90325548.70445  22058406.430                    22058414.488
 114612033.848 8  89308125.69845  21809920.625                    21809927.227
 116872930.335 7  91069792.19345  22240141.492                    22240149.719
 113541289.398 7  88473839.574 7  21606182.820
 120393882.388 7  93813467.08544  22910187.461                    22910197.320
 11  7 27  0 24  0.0000000  0  9G12G04G20G27G09G02G28G17G10
 128087927.240 6  99808959.772 6  24374356.000
 104498663.409 8  81427649.63046  19885401.992                    19885409.680
 128875864.896 7 100422799.77043  24524262.695                    24524271.313
 117744368.714 7  91748929.47145  22406012.656                    22406021.895
 115914715.059 7  90323168.19145  22057824.930                    22057833.441
 114543764.302 8  89254928.69146  21796929.273                    21796935.574
 116937869.582 7  91120394.16245  22252499.484                    22252506.625
 113575929.546 7  88500831.887 7  21612774.438
 120303672.895 7  93743174.11144  22893020.555                    22893030.387
 11  7 27  0 24 30.0000000  0  9G12G04G20G27G09G02G28G17G10
 127990906.876 7  99733359.533 6  24355893.953
 104505386.323 8  81432888.27346  19886681.125                    19886688.898
 128928786.866 7 100464037.68043  24534333.031                    24534341.539
 117753149.507 7  91755771.62145  22407683.852                    22407692.641
 115912298.228 7  90321284.92345  22057365.391                    22057372.984
 114475827.984 8  89201991.34046  21784000.875                    21784007.469
 117003170.841 7  91171278.24345  22264925.930                    22264933.602
 113610657.932 7  88527892.956 7  21619383.070
 120213628.019 7  93673009.36544  22875886.289                    22875895.570
 11  7 27  0 25  0.0000000  0  9G12G04G20G27G09G02G28G17G10
 127893890.566 7  99657762.450 6  24337432.094
 104512655.109 8  81438552.26446  19888064.578                    19888072.086
 128982165.860 6 100505631.66243  24544491.094                    24544499.484
 117762405.395 7  91762983.99245  22409444.977                    22409453.918
 115910519.249 7  90319898.70245  22057026.344                    22057035.000
 114408226.115 8  89149314.61446  21771136.891                    21771143.855
 117068833.579 7  91222443.94945  22277420.906                    22277429.031
 113645474.890 7  88555023.067 7  21626008.531
 120123751.271 7  93602975.61344  22858783.094                    22858792.316
 11  7 27  0 25 30.0000000  0  9G12G04G20G27G09G02G28G17G10
 127796880.156 7  99582169.951 6  24318972.313
 104520468.866 8  81444640.90746  19889551.570                    19889559.305
 129036000.436 6 100547580.68343  24554735.578                    24554743.656
 117772135.521 7  91770565.89645  22411296.859                    22411305.582
 115909377.986 7  90319009.41345  22056809.641                    22056817.555
 114340959.727 8  89096899.27746  21758336.695                    21758342.570
 117134857.260 7  91273890.94145  22289984.953                    22289993.008
 113680380.878 8  88582222.534 7  21632650.984
 120034046.404 7  93533075.81444  22841711.938                    22841722.301
 11  7 27  0 26  0.0000000  0  9G12G04G20G27G09G02G28G17G10
 127699877.332 6  99506583.360 6  24300511.508
 104528826.135 8  81451153.07646  19891141.688                    19891149.793
 129090288.841 6 100589883.33043  24565066.242                    24565074.164
 117782338.897 7  91778516.55345  22413238.797                    22413246.738
 115908873.193 7  90318616.07645  22056713.492                    22056722.082
 114274029.708 8  89044746.04846  21745600.438                    21745606.797
 117201241.570 7  91325618.94545  22302617.961                    22302625.398
 113715375.340 7  88609490.938 7  21639309.938
 119944516.432 7  93463312.28144  22824674.625                    22824684.914
 11  7 27  0 26 30.0000000  0  9G12G04G20G27G09G02G28G17G10
 127602883.657 6  99431003.967 6  24282054.703
 104537725.705 8  81458087.81246  19892835.297                    19892843.742
 129145029.984 6 100632538.75143  24575482.445                    24575491.164
 117793014.498 7  91786835.18345  22415269.898                    22415278.355
 115909004.399 7  90318718.31445  22056738.695                    22056747.332
 114207436.673 8  88992855.40946  21732927.891                    21732934.668
 117267985.517 7  91377627.18945  22315318.461                    22315327.047
 113750457.867 8  88636827.984 7  21645985.875
 119855164.458 7  93393687.41444  22807671.766                    22807681.824
 11  7 27  0 27  0.0000000  0  9G12G04G20G27G09G02G28G17G10
 127505901.415 6  99355433.477 6  24263600.211
 104547166.529 8  81465444.29946  19894632.102                    19894639.617
 129200222.133 6 100675545.59343  24585985.297                    24585993.742
 117804161.514 7  91795521.13145  22417391.227                    22417400.184
 115909771.119 7  90319315.76545  22056884.289                    22056893.313
 114141181.839 8  88941228.30146  21720320.047                    21720325.988
 117335088.681 7  91429915.29745  22328088.070                    22328095.961
 113785628.740 8  88664233.842 7  21652679.148
 119765994.230 7  93324204.16644  22790703.750                    22790713.504
 11  7 27  0 27 30.0000000  0  9G12G04G20G27G09G02G28G17G10
 127408932.197 7  99279873.110 6  24245146.875
 104557146.966 8  81473221.26846  19896530.867                    19896538.422
 129255863.610 6 100718902.53843  24596574.016                    24596582.227
 117815778.654 7  91804573.44445  22419601.313                    22419609.781
 115911172.203 7  90320407.53745  22057150.961                    22057159.348
 114075265.706 8  88889865.12246  21707776.219                    21707782.586
 117402550.249 7  91482482.71445  22340925.938                    22340933.852
 113820887.702 7  88691708.357 7  21659388.055
 119677008.696 7  93254864.86544  22773770.320                    22773779.488
 11  7 27  0 28  0.0000000  0  9G12G04G20G27G09G02G28G17G10
 127311977.641 7  99204324.160 5  24226697.445
 104567665.892 8  81481417.84546  19898533.000                    19898540.863
 129311953.283 6 100762608.81443  24607248.344                    24607255.684
 117827865.193 7  91813991.51945  22421902.109                    22421909.980
 115913207.347 7  90321993.35945  22057537.766                    22057546.699
 114009689.481 8  88838766.81146  21695297.797                    21695304.379
 117470369.778 7  91535329.04744  22353831.398                    22353839.094
 113856234.887 8  88719251.601 7  21666114.977
 119588211.246 7  93185672.12644  22756872.906                    22756882.129
 11  7 27  0 28 30.0000000  0  9G12G04G20G27G09G02G28G17G10
 127215039.522 7  99128787.948 5  24208250.781
 104578722.188 8  81490033.14046  19900636.578                    19900644.703
 129368489.691 6 100806663.12842  24618005.797                    24618014.906
 117840420.054 7  91823774.51145  22424291.141                    22424299.184
 115915875.529 7  90324072.47845  22058045.813                    22058054.500
 113944453.709 8  88787933.78246  21682883.695                    21682890.195
 117538546.485 7  91588453.69345  22366804.992                    22366812.844
 113891670.406 7  88746863.685 7  21672857.977
 119499605.229 7  93116628.51944  22740011.805                    22740020.137
 11  7 27  0 29  0.0000000  0  9G12G04G20G27G09G02G28G17G10
 127118119.826 7  99053265.995 5  24189807.656
 104590314.194 8  81499065.88147  19902842.313                    19902850.254
 129425471.069 6 100851064.18342  24628849.133                    24628858.262
 117853442.188 7  91833921.61245  22426768.797                    22426777.719
 115919175.999 7  90326644.28045  22058673.883                    22058682.324
 113879559.273 8  88737366.74046  21670534.938                    21670540.980
 117607079.380 7  91641855.87445  22379846.109                    22379853.781
 113927194.033 8  88774544.423 7  21679617.570
 119411194.134 7  93047736.84744  22723187.391                    22723196.676
 11  7 27  0 29 30.0000000  0  9G12G04G20G27G09G02G28G17G10
 127021220.584 7  98977760.063 6  24171368.195
 104602441.239 8  81508515.53146  19905150.258                    19905157.922
 129482896.272 5 100895811.15842  24639776.352                    24639785.695
 117866930.846 7  91844432.23745  22429335.898                    22429344.094
 115923108.518 7  90329708.53545  22059422.813                    22059430.371
 113815007.200 8  88687066.46646  21658250.617                    21658257.066
 117675968.538 7  91695535.71144  22392955.906                    22392963.156
 113962806.392 7  88802294.298 7  21686394.609
 119322981.402 7  92978999.72044  22706400.695                    22706410.008
 11  7 27  0 30  0.0000000  0  9G12G04G20G27G09G02G28G17G10
 126924343.965 7  98902271.839 6  24152933.305
 104615102.358 8  81518381.33746  19907559.336                    19907567.336
 129540764.136 5 100940902.97842  24650788.438                    24650797.316
 117880885.086 8  91855305.67645  22431991.266                    22431999.762
 115927672.280 7  90333264.72645  22060291.117                    22060298.379
 113750798.911 8  88637034.09046  21646032.523                    21646038.820
 117745213.349 7  91749492.65744  22406132.336                    22406140.262
 113998507.155 8  88830113.068 7  21693188.547
 119234970.709 7  92910420.01144  22689652.516                    22689662.363
 11  7 27  0 30 30.0000000  0  9G12G04G20G27G09G02G28G17G10
 126827490.956 7  98826801.982 6  24134502.508
 104628295.023 8  81528661.33446  19910069.836                    19910077.992
 129599072.038 5 100986337.63742  24661884.539                    24661893.273
 117895303.003 7  91866540.39645  22434735.078                    22434743.453
 115932865.707 8  90337311.54845  22061279.164                    22061287.176
 113686934.234 8  88587269.46346  21633879.031                    21633885.980
 117814812.405 7  91803725.65045  22419376.781                    22419385.027
 114034295.912 8  88858000.380 7  21699998.813
 119147164.278 7  92841999.48744  22672943.219                    22672952.844
 11  7 27  0 31  0.0000000  0  9G12G04G20G27G09G02G28G17G10
 126730663.599 6  98751352.169 6  24116076.617
 104642018.346 8  81539354.83646  19912681.492                    19912689.379
 129657818.578 5 101032114.13242  24673063.672                    24673072.414
 117910183.573 8  91878135.63045  22437566.578                    22437575.430
 115938688.029 7  90341848.39145  22062387.047                    22062394.504
 113623414.291 8  88537773.46046  21621792.180                    21621798.059
 117884764.931 7  91858234.02144  22432688.555                    22432696.539
 114070172.471 8  88885956.116 7  21706825.734
 119059565.838 7  92773741.01844  22656274.625                    22656283.941
 11  7 27  0 31 30.0000000  0  9G12G04G20G27G09G02G28G17G10
 126633864.053 6  98675924.035 6  24097655.820
 104656270.728 8  81550460.59046  19915393.727                    19915401.652
 129717002.416 5 101078231.35742  24684325.750                    24684334.352
 117925525.877 8  91890090.66245  22440485.820                    22440494.805
 115945138.256 7  90346874.49945  22063614.758                    22063622.465
 113560239.698 8  88488546.55446  21609770.039                    21609776.742
 117955070.345 7  91913017.42344  22446066.477                    22446075.121
 114106137.120 8  88913980.510 7  21713670.055
 118972178.685 7  92705647.18344  22639645.484                    22639654.551
 11  7 27  0 32  0.0000000  0  9G12G04G20G27G09G02G28G17G10
 126537094.523 7  98600519.275 6  24079241.547
 104671051.370 8  81561977.98146  19918206.125                    19918214.223
 129776622.190 5 101124688.42342  24695670.875                    24695679.652
 117941329.124 7  91902404.86245  22443492.844                    22443502.063
 115952215.724 7  90352389.40145  22064960.992                    22064969.223
 113497411.430 8  88439589.52046  21597814.422                    21597819.836
 118025728.273 7  91968075.50444  22459513.398                    22459520.840
 114142190.124 8  88942073.734 7  21720530.258
 118885006.422 7  92637720.81944  22623056.320                    22623066.223
 11  7 27  0 32 30.0000000  0  9G12G04G20G27G09G02G28G17G10
 126440356.807 7  98525139.301 6  24060833.625
 104686358.516 8  81573905.63446  19921119.406                    19921127.020
 129836676.157 6 101171483.69342  24707099.195                    24707107.426
 117957592.125 7  91915077.31845  22446588.156                    22446596.984
 115959919.322 7  90358392.16345  22066427.227                    22066434.871
 113434930.308 8  88390902.97646  21585924.203                    21585930.641
 118096737.831 7  92023407.58844  22473025.578                    22473033.469
 114178331.635 8  88970235.927 7  21727408.219
 118798052.362 7  92569964.48544  22606509.750                    22606519.203
 11  7 27  0 33  0.0000000  0  9G12G04G20G27G09G02G28G17G10
 126343652.487 6  98449785.325 6  24042431.742
 104702190.529 8  81586242.26546  19924132.055                    19924139.930
 129897162.511 6 101218615.94542  24718609.227                    24718617.492
 117974313.367 7  91928106.83645  22449770.094                    22449778.766
 115968247.924 7  90364881.97845  22068011.664                    22068020.332
 113372796.752 8  88342487.25646  21574100.828                    21574107.063
 118168098.049 7  92079012.88445  22486605.039                    22486613.527
 114214561.407 7  88998466.898 7  21734301.906
 118711319.712 7  92502380.67845  22590005.508                    22590014.957
 11  7 27  0 33 30.0000000  0  9G12G04G20G27G09G02G28G17G10
 126246983.692 7  98374459.048 6  24024035.594
 104718546.164 8  81598986.91646  19927244.422                    19927252.473
 129958079.460 5 101266083.72142  24730202.586                    24730209.336
 117991491.719 7  91941492.55345  22453038.758                    22453048.332
 115977200.748 7  90371858.20645  22069714.719                    22069724.367
 113311011.902 8  88294343.24946  21562343.602                    21562349.563
 118239808.314 7  92134890.95644  22500250.750                    22500258.535
 114250879.551 7  89026766.728 7  21741213.453
 118624811.877 7  92434972.04145  22573543.523                    22573553.289
 11  7 27  0 34  0.0000000  0  9G12G04G20G27G09G02G28G17G10
 126150352.280 7  98299161.911 6  24005647.406
 104735423.999 8  81612138.49146  19930456.008                    19930463.895
 130019425.832 6 101313886.01542  24741875.773                    24741883.258
 118009125.979 7  91955233.50745  22456394.758                    22456403.438
 115986776.856 7  90379320.09745  22071537.156                    22071546.520
 113249576.290 8  88246471.38746  21550652.359                    21550659.117
 118311867.642 7  92191041.06144  22513963.555                    22513970.934
 114287286.227 8  89055135.558 7  21748141.492
 118538532.386 7  92367741.31745  22557125.195                    22557133.906
 11  7 27  0 34 30.0000000  0  9G12G04G20G27G09G02G28G17G10
 126053760.246 7  98223895.406 6  23987266.703
 104752822.613 8  81625695.85146  19933766.828                    19933774.594
 130081199.696 5 101362021.56442  24753630.781                    24753638.445
 118027214.994 7  91969328.83845  22459837.125                    22459845.859
 115996974.643 7  90387266.40845  22073478.484                    22073487.887
 113188490.754 8  88198872.32246  21539028.398                    21539034.379
 118384275.428 7  92247462.71444  22527742.211                    22527750.102
 114323781.686 8  89083573.540 7  21755086.172
 118452484.538 7  92300691.10745  22540750.758                    22540759.527
 11  7 27  0 35  0.0000000  0  9G12G04G20G27G09G02G28G17G10
 125957209.621 7  98148661.156 6  23968892.836
 104770740.489 8  81639657.84146  19937176.375                    19937184.656
 130143399.279 5 101410488.72352  24765466.297                    24765474.500
 118045757.576 7  91983777.59445  22463365.352                    22463373.223
 116007793.274 7  90395696.48945  22075537.398                    22075546.473
 113127756.070 8  88151546.64446  21527470.938                    21527477.168
 118457030.692 7  92304155.10145  22541586.563                    22541595.203
 114360365.631 8  89112080.501 7  21762047.977
 118366671.411 7  92233823.81444  22524420.734                    22524429.906
 11  7 27  0 35 30.0000000  0  9G12G04G20G27G09G02G28G17G10
 125860702.294 7  98073460.719 6  23950528.594
 104789175.663 8  81654022.91046  19940684.461                    19940692.270
 130206022.865 6 101459286.37742  24777383.203                    24777391.758
 118064752.191 8  91998578.57845  22466979.719                    22466987.961
 116019231.478 7  90404609.35045  22077714.313                    22077722.906
 113067372.296 8  88104494.37246  21515980.500                    21515986.719
 118530132.610 7  92361117.53645  22555497.414                    22555506.480
 114397037.837 8  89140656.228 7  21769026.414
 118281096.243 7  92167141.91045  22508136.039                    22508145.574
 11  7 27  0 36  0.0000000  0  9G12G04G20G27G09G02G28G17G10
 125764240.440 7  97998295.651 6  23932173.133
 104808127.140 8  81668790.29946  19944291.023                    19944298.750
 130269068.687 5 101508412.94442  24789380.938                    24789388.813
 118084197.861 7  92013731.02445  22470680.469                    22470688.996
 116031288.456 8  90414004.40145  22080009.016                    22080017.160
 113007340.765 8  88057716.59046  21504556.859                    21504562.996
 118603580.285 7  92418349.45744  22569474.141                    22569482.918
 114433799.103 8  89169301.356 7  21776021.992
 118195762.790 7  92100648.38645  22491898.258                    22491907.164
 11  7 27  0 36 30.0000000  0  9G12G04G20G27G09G02G28G17G10
 125667826.291 7  97923167.781 6  23913824.867
 104827593.376 8  81683958.79246  19947995.133                    19948002.918
 130332535.536 5                  24801456.852
 118104093.307 7  92029233.94645  22474466.570                    22474475.352
 116043963.076 8  90423880.69645  22082420.531                    22082429.945
 112947662.428 8  88011214.01146  21493200.508                    21493206.516
 118677373.190 7  92475850.38144  22583517.273                    22583525.289
 114470649.551 8  89198015.959 7  21783033.852
 118110674.315 7  92034345.72144  22475705.602                    22475714.750
 11  7 27  0 37  0.0000000  0  9G12G04G20G27G09G02G28G17G10
 125571461.141 7  97848078.133 6  23895487.453
 104847572.696 8  81699527.10046  19951797.156                    19951805.133
 130396421.143 5 101607639.65852  24813614.750                    24813623.242
 118124437.040 7  92045086.19745  22478337.484                    22478346.531
 116057253.583 8  90434236.91945  22084949.461                    22084958.559
 112888337.482 8  87964986.81946  21481911.148                    21481917.262
 118751510.152 7  92533619.40544  22597624.969                    22597632.770
 114507588.914 8  89226799.879 7  21790063.750
 118025833.847 7  91968236.29844  22459561.211                    22459570.340
 11  7 27  0 37 30.0000000  0  9G12G04G20G27G09G02G28G17G10
 125475147.324 6  97773028.464 6  23877159.695
 104868063.419 8  81715493.89246  19955696.391                    19955704.172
 130460723.714 5 101657745.54342  24825851.625                    24825859.766
 118145227.934 7  92061286.88245  22482293.914                    22482302.512
 116071158.878 7  90445072.21245  22087595.367                    22087604.672
 112829366.549 8  87919035.47746  21470689.148                    21470695.625
 118825990.313 7  92591655.82244  22611797.703                    22611806.063
 114544617.514 8  89255653.329 7  21797109.953
 117941245.157 7  91902323.11845  22443464.594                    22443474.195
 11  7 27  0 38  0.0000000  0 10G12G05G04G20G27G09G02G28G17G10
 125378887.234 7  97698020.659 6  23858842.031
 132737018.46615 103431497.33014  25259015.453
 104889063.922 8  81731857.92946  19959692.445                    19959700.371
 130525441.579 6 101708175.08043  24838167.375                    24838175.109
 118166464.381 7  92077834.73245  22486335.422                    22486344.340
 116085677.326 8  90456385.27645  22090358.508                    22090367.098
 112770750.254 8  87873360.46646  21459535.180                    21459540.797
 118900812.452 7  92649958.70944  22626036.172                    22626044.000
 114581735.532 8  89284576.440 7  21804173.070
 117856911.118 7  91836608.34244  22427416.242                    22427425.348
 11  7 27  0 38 30.0000000  0 10G12G05G04G20G27G09G02G28G17G10
 125282682.378 6  97623055.892 6  23840534.852
 132635706.408 4 103352553.028 4  25239737.055
 104910572.366 8  81748617.74946  19963785.555                    19963793.617
 130590572.842 5 101758926.62742  24850560.672                    24850569.613
 118188144.908 7  92094728.63245  22490461.188                    22490469.617
 116100807.769 7  90468175.22045  22093237.797                    22093246.652
 112712489.290 8  87827962.33546  21448448.266                    21448454.438
 118975975.842 7  92708527.54344  22640339.234                    22640347.898
 114618942.341 8  89313568.741 7  21811253.906
 117772835.253 7  91771094.73844  22411416.789                    22411426.078
 11  7 27  0 39  0.0000000  0 10G12G05G04G20G27G09G02G28G17G10
 125186535.196 6  97548136.059 6  23822237.664
 132534237.899 5 103273486.788 5  25220429.320
 104932587.914 8  81765772.72246  19967975.195                    19967983.172
 130656116.250 5 101809999.39042  24863033.016                    24863041.766
 118210268.544 7  92111967.81345  22494670.750                    22494679.766
 116116549.459 7  90480441.48745  22096233.148                    22096241.488
 112654584.796 8  87782841.96746  21437429.211                    21437434.957
 119051479.853 7  92767361.77644  22654706.945                    22654715.609
 114656239.122 8  89342631.174 7  21818350.727
 117689021.395 7  91705785.27744  22395467.867                    22395476.234
 11  7 27  0 39 30.0000000  0 10G12G05G04G20G27G09G02G28G17G10
 125090447.760 7  97473262.803 6  23803953.578
 132432614.763 4 103194300.151 5  25201089.945
 104955108.624 8  81783321.32546  19972260.570                    19972268.574
 130722069.687 5 101861391.73142  24875582.414                    24875592.430
 118232833.652 7  92129550.99045  22498964.570                    22498973.285
 116132900.728 7  90493182.71645  22099345.352                    22099352.770
 112597036.958 8  87737999.51946  21426478.273                    21426484.320
 119127323.467 7  92826460.61444  22669140.211                    22669147.910
 114693625.469 8  89371763.390 7  21825465.445
 117605472.485 7  91640682.31044  22379568.930                    22379577.730
 11  7 27  0 40  0.0000000  0  9G12G04G20G27G09G02G28G17G10
 124994421.402 7  97398437.101 6  23785679.844
 104978132.063 8  81801261.65946  19976641.758                    19976649.605
 130788430.857 6 101913101.71543  24888211.914                    24888220.965
 118255838.261 7  92147476.60945  22503343.102                    22503351.148
 116149859.635 7  90506397.42745  22102571.859                    22102580.027
 112539845.653 8  87693434.88446  21415595.133                    21415601.738
 119203505.236 7  92885822.99444  22683636.461                    22683645.660
 114731101.320 8  89400965.336 7  21832596.273
 117522191.407 7  91575788.00745  22363720.961                    22363730.020
 11  7 27  0 40 30.0000000  0 10G12G05G04G20G27G09G02G28G17G10
 124898459.237 7  97323661.436 7  23767418.898
 132228906.54715                  25162332.109
 105001657.450 8  81819593.13446  19981118.648                    19981126.328
 130855198.364 6 101965128.32243  24900917.766                    24900925.480
 118279281.768 7  92165744.28145  22507804.344                    22507812.973
 116167425.338 7  90520084.99945  22105914.797                    22105922.086
 112483012.406 8  87649149.26146  21404780.102                    21404786.406
 119280025.005 7  92945448.71844  22698198.438                    22698205.867
 114768667.652 8  89430237.797 7  21839745.078
 117439182.397 7  91511105.74845  22347924.891                    22347934.414
 11  7 27  0 41  0.0000000  0 10G12G05G04G20G27G09G02G28G17G10
 124802562.096 7  97248936.460 6  23749171.320
 132126832.24715 102956042.61515  25142903.602
 105025681.673 8  81838313.31446  19985690.070                    19985697.934
 130922369.045 6 102017469.10442  24913700.430                    24913707.699
 118303161.198 7  92184351.60245  22512348.352                    22512356.840
 116185595.170 7  90534243.30545  22109372.039                    22109380.371
 112426536.503 8  87605142.09946  21394032.844                    21394039.195
 119356880.250 7  93005335.87044  22712823.234                    22712831.418
 114806322.819 8  89459579.474 7  21846910.719
 117356446.828 7  91446636.52245  22332181.172                    22332190.043
 11  7 27  0 41 30.0000000  0 10G12G05G04G20G27G09G02G28G17G10
 124706732.440 7  97174264.041 6  23730934.930
 132024612.816 6 102876391.351 5  25123451.602
 105050204.338 8  81857421.88346  19990356.859                    19990364.441
 130989942.728 6 102070123.91842  24926558.406                    24926567.344
 118327476.609 7  92203298.63745  22516974.586                    22516983.707
 116204369.031 7  90548872.27045  22112944.781                    22112952.395
 112370419.708 8  87561414.74646  21383354.531                    21383360.477
 119434071.146 7  93065484.53644  22727512.672                    22727520.461
 114844068.441 8  89488991.640 7  21854092.898
 117273989.571 7  91382384.18145  22316489.938                    22316498.699
 11  7 27  0 42  0.0000000  0 10G12G05G04G20G27G09G02G28G17G10
 124610972.636 7  97099646.013 6  23712713.172
 131922250.188 6 102796628.400 4  25103972.914
 105075223.484 8  81876917.31746  19995117.695                    19995125.773
 131057916.88515 102123090.75752  24939493.148                    24939501.813
 118352225.975 7  92222583.84445  22521684.750                    22521693.359
 116223744.758 7  90563970.23245  22116631.859                    22116639.742
 112314661.813 8  87517967.05446  21372743.844                    21372750.313
 119511596.214 7  93125893.61744  22742265.469                    22742272.941
 114881904.255 8  89518474.091 7  21861293.180
 117191813.700 7  91318351.07745  22300851.930                    22300861.223
 11  7 27  0 42 30.0000000  0 10G12G05G04G20G27G09G02G28G17G10
 124515285.201 7  97025084.414 6  23694503.961
 131819747.107 6 102716756.042 4  25084466.000
 105100737.469 8  81896798.34046  19999972.797                    19999980.543
 131126289.91715 102176368.38052  24952504.977                    24952513.457
 118377407.932 7  92242206.11545  22526476.758                    22526485.637
 116243720.972 7  90579536.10245  22120433.227                    22120441.340
 112259264.008 8  87474799.94346  21362202.352                    21362208.031
 119589454.850 7  93186562.63444  22757081.141                    22757089.527
 114919830.758 7  89548027.203 7  21868510.672
 117109923.018 7  91254540.19545  22285269.008                    22285278.113
 11  7 27  0 43  0.0000000  0 10G12G05G04G20G27G09G02G28G17G10
 124419671.985 6  96950580.699 6  23676308.680
 131717105.589 6 102636775.931 4  25064933.461
 105126744.390 8  81917063.47246  20004921.563                    20004929.645
 131195059.76415                  24965590.117
 118403020.802 7  92262164.17145  22531350.852                    22531359.180
 116264296.300 7  90595568.82245  22124348.039                    22124355.793
 112204226.639 8  87431913.71546  21351729.039                    21351735.090
 119667646.035 7  93247490.72744  22771959.656                    22771968.613
 114957848.264 8  89577651.213 7  21875745.484
 117028320.355 7  91190953.78245  22269740.297                    22269749.863
 11  7 27  0 43 30.0000000  0 10G12G05G04G20G27G09G02G28G17G10
 124324135.074 6  96876136.383 6  23658129.391
 131614328.423 6 102556690.111 4  25045375.836
 105153242.595 8  81937711.42546  20009964.250                    20009972.047
 131264224.512 5                  24978753.250
 118429063.104 7  92282456.85745  22536306.633                    22536315.547
 116285469.017 7  90612067.04145  22128376.578                    22128385.688
 112149550.176 8  87389308.71146  21341324.148                    21341330.797
 119746168.342 7  93308676.91144  22786902.008                    22786911.164
 114995956.744 7  89607346.118 7  21882997.055
 116947008.914 7  91127594.28445  22254266.805                    22254276.734
 11  7 27  0 44  0.0000000  0 10G12G05G04G20G27G09G02G28G17G10
 124228676.150 7  96801752.850 6  23639963.641
 131511417.448 6 102476499.990 5  25025793.125
 105180229.661 8  81958740.31146  20015099.680                    20015107.836
 131333781.566 5                  24991988.711
 118455532.851 7  92303082.61445  22541342.992                    22541352.645
 116307237.133 7  90629029.17445  22132520.219                    22132527.742
 112095234.514 8  87346984.85746  21330988.352                    21330994.473
 119825020.481 7  93370120.06944  22801908.000                    22801915.926
 115034156.136 7  89637111.882 7  21890266.328
 116865991.912 7  91064464.19945  22238850.352                    22238859.051
 11  7 27  0 44 30.0000000  0 10G12G05G04G20G27G09G02G28G17G10
 124133298.051 6  96727432.296 6  23621813.719
 131408375.435 5 102396207.827 5  25006184.375
 105207704.818 8  81980149.52846  20020327.750                    20020335.949
 131403730.078 4                  25005297.234
 118482428.962 7  92324040.59345  22546461.633                    22546470.375
 116329599.423 7  90646454.34145  22136775.063                    22136783.160
 112041280.782 8  87304943.00046  21320721.492                    21320727.406
 119904201.827 7  93431819.77144  22816975.828                    22816983.750
 115072446.698 7  89666948.650 7  21897552.430
 116785273.073 7  91001566.44345  22223490.336                    22223498.930
 11  7 27  0 45  0.0000000  0 10G12G05G04G20G27G09G02G28G17G10
 124038002.560 6  96653176.044 6  23603680.508
 131305204.653 5 102315815.289 5  24986550.180
 105235665.502 8  82001937.06746  20025648.930                    20025656.859
 131474067.37415                  25018683.648
 118509749.513 7  92345329.30745  22551660.828                    22551670.012
 116352553.965 7  90664340.98045  22141142.969                    22141151.344
 111987689.408 8  87263183.50446  21310523.094                    21310528.863
 119983711.042 7  93493774.95244  22832105.461                    22832114.078
 115110828.769 7  89696856.746 7  21904856.133
 116704855.494 7  90938903.45245  22208186.867                    22208196.438
 11  7 27  0 45 30.0000000  0 10G12G05G04G20G27G09G02G28G17G10
 123942791.882 7  96578985.942 6  23585561.703
 131201906.940 5 102235323.955 5  24966891.344
 105264110.112 8  82024101.69346  20031061.516                    20031069.355
 131544791.676 5                  25032143.859
 118537493.098 7  92366947.66245  22556940.164                    22556949.039
 116376099.339 7  90682688.02645  22145623.344                    22145631.945
 111934460.603 8  87221706.53846  21300393.859                    21300400.633
 120063547.092 7  93555984.78344  22847297.867                    22847307.551
 115149302.569 7  89726836.307 7  21912177.742
 116624742.368 7  90876477.71645  22192941.398                    22192950.496
 11  7 27  0 46  0.0000000  0 10G12G05G04G20G27G09G02G28G17G10
 123847668.227 7  96504863.656 6  23567460.625
 131098485.641 5 102154736.212 5  24947213.023
 105293036.771 8  82046641.94246  20036566.602                    20036574.367
 131615900.755 5                  25045674.547
 118565657.833 7  92388894.19045  22562299.539                    22562308.445
 116400233.622 7  90701493.91745  22150216.469                    22150224.430
 111881594.724 8  87180512.39446  21290334.156                    21290340.086
 120143708.685 7  93618448.30844  22862551.867                    22862560.703
 115187868.247 7  89756887.478 7  21919516.242
 116544936.846 7  90814291.65545  22177755.383                    22177763.875
 11  7 27  0 46 30.0000000  0 10G12G05G04G20G27G09G02G28G17G10
 123752633.519 7  96430810.683 6  23549375.930
 130994942.547 6 102074053.608 6  24927509.609
 105322443.575 8  82069556.32946  20042162.164                    20042170.035
 131687392.848 5                  25059278.203
 118594241.714 7  92411167.31545  22567738.188                    22567747.625
 116424954.780 7  90720757.14245  22154920.594                    22154929.395
 111829092.231 8  87139601.39446  21280343.195                    21280349.254
 120224194.737 7  93681164.63344  22877868.297                    22877876.715
 115226525.755 7  89787010.201 7  21926872.883
 116465442.438 7  90752347.98345  22162627.641                    22162636.629
 11  7 27  0 47  0.0000000  0  9G12G05G04G27G09G02G28G17G10
 123657690.386 7  96356829.051 6  23531308.672
 130891280.605 6 101993278.346 5  24907782.195
 105352328.913 8  82092843.60846  20047849.047                    20047857.051
 118623243.514 7  92433766.10245  22573257.766                    22573266.969
 116450261.434 7  90740476.60345  22159736.492                    22159745.020
 111776953.855 8  87098974.12046  21270421.695                    21270427.434
 120305004.639 7  93744133.31944  22893246.086                    22893254.438
 115265275.947 7  89817205.144 7  21934246.789
 116386262.654 7  90690649.49944  22147560.164                    22147568.563
 11  7 27  0 47 30.0000000  0  9G12G05G04G27G09G02G28G17G10
 123562840.644 7  96282920.205 6  23513259.078
 130787502.024 6 101912412.143 5  24888034.688
 105382690.650 8  82116502.10346  20053626.484                    20053634.781
 118652661.332 7  92456689.07945  22578855.641                    22578864.234
 116476151.718 7  90760650.83145  22164663.109                    22164670.941
 111725179.665 8  87058630.61846  21260568.859                    21260575.195
 120386136.931 7  93807353.25444  22908684.867                    22908693.039
 115304118.690 8  89847472.185 7  21941638.398
 116307400.558 7  90629198.57345  22132553.250                    22132562.410
 11  7 27  0 48  0.0000000  0  9G12G05G04G27G09G02G28G17G10
 123468086.434 7  96209085.784 6  23495228.109
 130683609.214 6 101831456.965 6  24868264.500
 105413526.714 8  82140530.20946  20059494.516                    20059502.457
 118682493.598 7  92479935.00845  22584532.781                    22584541.164
 116502623.625 7  90781278.26845  22169701.164                    22169709.461
 111673770.063 8  87018571.22746  21250786.188                    21250792.141
 120467589.640 7  93870822.84544  22924184.742                    22924193.098
 115343054.184 7  89877811.527 7  21949047.570
 116228859.128 7  90567997.51545  22117607.063                    22117616.246
 11  7 27  0 48 30.0000000  0  9G12G05G04G27G09G02G28G17G10
 123373430.026 7  96135327.568 6  23477215.266
 130579604.545 6 101750414.706 5  24848472.891
 105444835.403 8  82164926.59046  20065452.883                    20065460.555
 118712738.589 7  92503502.50545  22590288.266                    22590297.730
 116529674.955 7  90802357.22045  22174848.563                    22174856.898
 111622725.337 8  86978796.14646  21241072.602                    21241078.738
 120549362.043 7  93934541.53644  22939745.672                    22939753.984
 115382082.441 7  89908223.132 7  21956474.633
 116150641.531 7  90507048.79645  22102722.813                    22102732.051
 11  7 27  0 49  0.0000000  0  9G12G05G04G27G09G02G28G17G10
 123278873.563 7  96061647.241 6  23459221.531
 130475490.273 5 101669286.972 5  24828660.211
 105476614.341 8  82189689.39446  20071499.680                    20071507.855
 118743394.160 7  92527389.95345  22596121.672                    22596130.684
 116557303.750 7  90823886.12845  22180106.055                    22180114.766
 111572045.460 8  86939305.36046  21231428.797                    21231435.016
 120631452.490 7  93998508.05944  22955367.508                    22955376.059
 115421203.474 7  89938707.033 7  21963918.547
 116072751.132 7  90446355.02545  22087900.891                    22087909.656
 11  7 27  0 49 30.0000000  0  9G12G05G04G27G09G02G28G17G10
 123184419.467 7  95988046.677 6  23441248.016
 130371269.430 6 101588076.181 5  24808826.680
 105508862.353 8  82214817.71646  20077636.375                    20077644.250
 118774459.169 7  92551596.41645  22602033.156                    22602041.988
 116585508.688 7  90845863.96945  22185473.383                    22185481.617
 111521731.600 8  86900099.79046  21221853.867                    21221860.180
 120713860.590 7  94062722.09444  22971049.070                    22971057.840
 115460418.426 7  89969264.113 7  21971381.078
 115995191.805 7  90385919.22745  22073141.891                    22073150.434
 11  7 27  0 50  0.0000000  0  9G12G05G04G27G09G02G28G17G10
 123090069.515 7  95914527.315 6  23423293.805
 130266943.986 6 101506783.881 5  24788974.242
 105541576.949 8  82240309.61346  20083862.070                    20083869.859
 118805931.228 7  92576120.06545  22608022.359                    22608031.660
 116614287.555 7  90868289.06145  22190949.977                    22190958.105
 111471783.392 8  86861179.13246  21212349.008                    21212355.043
 120796584.562 7  94127182.30044  22986790.484                    22986799.012
 115499727.024 7  89999894.172 7  21978861.625
 115917966.304 7  90325743.55845  22058446.805                    22058455.398
 11  7 27  0 50 30.0000000  0  9G12G05G04G27G09G02G28G17G10
 122995826.503 7  95841091.227 6  23405359.219
 130162516.818 6 101425412.358 5  24769102.633
 105574756.375 8  82266163.71146  20090175.672                    20090183.645
 118837808.904 7  92600959.80845  22614088.477                    22614097.125
 116643638.638 7  90891160.00345  22196535.320                    22196543.383
 111422201.301 8  86822543.76346  21202914.141                    21202920.199
 120879623.354 7  94191887.77844  23002592.625                    23002600.906
 115539129.721 7  90030597.560 7  21986359.008
 115841077.617 7  90265830.35545  22043814.555                    22043824.051
 11  7 27  0 51  0.0000000  0  9G12G05G04G27G09G02G28G17G10
 122901692.807 7  95767740.347 6  23387447.133
 130057990.144 6 101343963.252 5  24749211.859
 105608398.444 8  82292378.30346  20096577.508                    20096585.426
 118870090.052 6  92626113.92345  22620231.242                    22620240.102
 116673559.324 7  90914474.79345  22202228.750                    22202237.422
 111372985.646 8  86784193.93846  21193548.586                    21193554.449
 120962975.468 7  94256837.43043  23018453.930                    23018463.441
 115578626.374 8  90061374.162 7  21993875.555
 115764529.189 7  90206182.27845  22029248.273                    22029257.285
 11  7 27  0 51 30.0000000  0  9G12G05G04G27G09G02G28G17G10
 122807669.980 7  95694475.866 6  23369554.500
 129953366.748 6 101262438.796 5  24729302.219
 105642501.376 8  82318952.02246  20103066.961                    20103074.969
 118902772.959 7  92651581.11245  22626450.273                    22626459.367
 116704047.841 7  90938232.08345  22208030.625                    22208039.473
 111324136.792 8  86746129.91246  21184252.992                    21184259.047
 121046639.898 7  94322030.43544  23034374.516                    23034383.281
 115618217.770 7  90092224.565 7  22001409.320
 115688324.094 7  90146801.73245  22014746.969                    22014754.793
 11  7 27  0 52  0.0000000  0  9G12G05G04G27G09G02G28G17G10
 122713760.791 7  95621299.933 6  23351684.008
 129848649.190 6 101180840.988 5  24709374.625
 105677063.433 8  82345883.49846  20109644.109                    20109652.238
 118935856.087 7  92677360.14245  22632746.563                    22632754.395
 116735102.324 7  90962430.36745  22213939.609                    22213948.367
 111275655.226 8  86708352.09346  21175027.297                    21175032.980
 121130615.376 7  94387465.81244  23050355.125                    23050362.629
 115657904.241 7  90123149.043 7  22008961.477
 115612466.102 7  90087691.63845  22000311.289                    22000320.180
 11  7 27  0 52 30.0000000  0  9G12G05G04G27G09G02G28G17G10
 122619967.359 7  95548214.185 6  23333836.422
 129743839.982 6 101099171.802 5  24689430.383
 105712082.382 8  82373170.98246  20116308.031                    20116315.684
 118969337.363 7  92703449.42445  22639117.719                    22639126.367
 116766721.032 7  90987068.29345  22219957.133                    22219965.688
 111227541.160 8  86670860.65146  21165871.578                    21165877.484
 121214900.471 7  94453142.45544  23066393.461                    23066402.172
 115697685.655 7  90154147.531 7  22016531.805
 115536957.968 7  90028854.18645  21985942.336                    21985951.563
 11  7 27  0 53  0.0000000  0  9G12G05G04G27G09G02G28G17G10
 122526291.863 6  95475220.331 6  23316010.234
 129638941.415 6 101017432.951 6  24669468.328
 105747555.897 8  82400812.68546  20123058.172                    20123065.977
 119003214.462 7  92729847.14645  22645564.023                    22645573.191
 116798901.223 7  91012143.76045  22226080.719                    22226089.223
 111179794.200 8  86633655.24946  21156785.813                    21156791.488
 121299493.763 7  94519059.23344  23082491.094                    23082500.273
 115737562.131 8  90185220.092 7  22024120.461
 115461802.710 7  89970291.73245  21971640.703                    21971649.797
 11  7 27  0 53 30.0000000  0 10G12G05G04G20G27G09G02G28G17G10
 122432735.766 7  95402319.556 6  23298206.727
 129533955.373 6 100935625.950 6  24649489.617
 105783481.164 8  82428806.39246  20129894.227                    20129902.816
 132727327.81315                  25257174.086
 119037485.007 7  92756551.45945  22652084.836                    22652094.566
 116831640.149 7  91037654.59445  22232310.195                    22232319.418
 111132414.286 8  86596735.86146  21147769.367                    21147775.105
 121384392.971 7  94585214.39044  23098646.945                    23098655.984
 115777533.436 7  90216366.532 7  22031726.500
 115387003.171 7  89912006.41845  21957407.070                    21957415.648
 11  7 27  0 54  0.0000000  0 10G12G05G04G20G27G09G02G28G17G10
 122339302.645 7  95329514.567 6  23280427.156
 129428885.368 6 100853753.500 6  24629494.805
 105819857.876 8  82457151.88646  20136817.031                    20136824.906
 132804315.313 4                  25271822.727
 119072148.392 7  92783561.81445  22658681.844                    22658691.457
 116864936.837 7  91063600.04545  22238646.523                    22238655.551
 111085402.577 8  86560103.38146  21138823.625                    21138829.238
 121469598.255 7  94651608.04444  23114861.500                    23114869.902
 115817601.232 7  90247588.166 7  22039351.125
 115312563.574 7  89854001.56445  21943241.359                    21943250.672
 11  7 27  0 54 30.0000000  0 10G12G05G04G20G27G09G02G28G17G10
 122245994.615 7  95256807.023 6  23262671.438
 129323733.789 6 100771817.523 6  24609485.203
 105856683.425 8  82485847.11646  20143824.523                    20143832.203
 132881652.48314                  25286539.375
 119107202.347 7  92810876.55145  22665352.508                    22665361.262
 116898789.155 7  91089978.46245  22245088.938                    22245097.719
 111038759.579 8  86523758.21146  21129947.508                    21129953.063
 121555108.071 7  94718239.04844  23131133.656                    23131141.801
 115857765.519 7  90278885.007 7  22046993.922
 115238486.646 7  89796279.32945  21929145.039                    21929153.879
 11  7 27  0 55  0.0000000  0 10G12G05G04G20G27G09G02G28G17G10
 122152814.050 7  95184198.851 6  23244939.289
 129218503.318 6 100689820.042 5  24589460.375
 105893955.761 8  82514890.48446  20150917.211                    20150925.141
 132959336.95614                  25301323.789
 119142644.963 7  92838494.15144  22672097.664                    22672105.348
 116933194.833 7  91116788.07445  22251635.336                    22251644.715
 110992485.117 8  86487700.21246  21121141.773                    21121147.617
 121640920.803 7  94785106.05944  23147462.719                    23147471.848
 115898026.545 8  90310257.199 7  22054655.586
 115164775.769 7  89738842.36845  21915118.758                    21915128.117
 11  7 27  0 55 30.0000000  0  9G12G05G04G27G09G02G28G17G10
 122059763.520 7  95111691.994 7  23227233.023
 129113196.869 6 100607763.306 5  24569420.180
 105931673.077 8  82544280.59446  20158094.508                    20158102.828
 119178474.663 7  92866413.35145  22678915.461                    22678924.445
 116968151.650 7  91144027.13345  22258287.930                    22258296.707
 110946579.513 8  86451929.63346  21112406.406                    21112412.109
 121727035.420 7  94852208.30644  23163850.195                    23163858.594
 115938384.865 7  90341705.219 7  22062335.375
 115091434.254 7  89681693.17745  21901162.180                    21901170.906
 11  7 27  0 56  0.0000000  0  9G12G05G04G27G09G02G28G17G10
 121966844.459 7  95039287.560 6  23209550.961
 129007816.355 6 100525648.888 5  24549367.289
 105969832.679 8  82574015.35246  20165356.102                    20165363.797
 119214688.724 7  92894632.08245  22685806.484                    22685815.711
 117003657.019 7  91171693.62045  22265044.180                    22265052.723
 110901042.257 8  86416446.08146  21103740.742                    21103746.918
 121813449.786 7  94919544.11944  23180294.539                    23180302.875
 115978840.125 7  90373228.797 7  22070033.734
 115018464.610 7  89624833.76045  21887276.414                    21887284.664
 11  7 27  0 56 30.0000000  0 10G12G05G04G20G27G09G02G28G17G10
 121874059.636 7  94966987.762 6  23191894.250
 128902364.862 6 100443479.123 6  24529300.563
 106008432.963 8  82604093.48346  20172701.336                    20172709.348
 133194454.80415                  25346065.734
 119251285.725 7  92923149.17745  22692770.617                    22692779.777
 117039709.094 7  91199786.13545  22271905.828                    22271913.707
 110855874.416 8  86381250.37946  21095145.414                    21095151.504
 121900163.138 7  94987112.90744  23196795.359                    23196803.895
 116019393.253 7  90404828.601 7  22077750.813
 114945870.685 7  89568267.08245  21873462.148                    21873469.832
 11  7 27  0 57  0.0000000  0 10G12G05G04G20G27G09G02G28G17G10
 121781410.815 7  94894793.911 6  23174263.727
 128796844.140 6 100361255.387 6  24509220.711
 106047470.940 8  82634512.68146  20180130.398                    20180138.117
 133273506.37914                  25361110.086
 119288262.614 7  92951962.28345  22699806.875                    22699816.277
 117076304.753 7  91228302.22345  22278868.508                    22278877.727
 110811075.019 8  86346341.78046  21086620.805                    21086626.336
 121987173.115 7  95054912.83344  23213353.391                    23213361.570
 116060044.012 7  90436504.505 7  22085486.594
 114873654.769 7  89511994.99545  21859720.141                    21859728.555
 11  7 27  0 57 30.0000000  0 10G12G05G04G20G27G09G02G28G17G10
 121688900.881 7  94822708.289 6  23156659.328
 128691257.267 6 100278980.116 6  24489127.750
 106086945.134 8  82665271.78446  20187642.031                    20187650.016
 133352894.31314                  25376218.875
 119325618.221 7  92981070.46545  22706915.898                    22706925.211
 117113442.438 7  91257240.66445  22285935.844                    22285944.980
 110766645.144 8  86311721.12246  21078165.750                    21078171.465
 122074479.148 7  95122943.47743  23229967.266                    23229976.020
 116100792.833 7  90468256.829 7  22093240.492
 114801820.527 7  89456020.29545  21846051.078                    21846059.301
 11  7 27  0 58  0.0000000  0  9G12G05G04G27G09G02G28G17G10
 121596532.425 7  94750732.916 6  23139082.531
 128585607.169 6 100196655.653 6  24469022.336
 106126853.757 8  82696369.40746  20195236.406                    20195244.273
 119363350.486 7  93010472.21945  22714095.945                    22714104.793
 117151119.899 7  91286599.68845  22293105.891                    22293114.918
 110722584.665 8  86277388.30346  21069781.273                    21069787.066
 122162080.059 6  95191203.84543  23246635.633                    23246645.453
 116141640.432 7  90500086.104 7  22101014.352
 114730371.138 7  89400345.49945  21832454.086                    21832462.926
 11  7 27  0 58 30.0000000  0  9G12G05G04G27G09G02G28G17G10
 121504308.142 7  94678869.869 7  23121532.617
 128479896.867 6 100114284.249 6  24448906.969
 106167194.935 8  82727804.08646  20202912.984                    20202921.398
 119401457.846 7  93040166.21045  22721347.906                    22721356.477
 117189335.096 7  91316377.76845  22300378.328                    22300386.332
 110678894.034 8  86243343.67546  21061467.391                    21061473.141
 122249974.136 6  95259692.69543  23263362.523                    23263370.645
 116182587.511 7  90531992.908 7  22108805.953
 114659310.117 7  89344973.33045  21818931.094                    21818939.523
 11  7 27  0 59  0.0000000  0  9G12G05G04G27G09G02G28G17G10
 121412229.751 7  94607120.504 6  23104010.680
 128374128.376 6 100031867.475 6  24428779.938
 106207965.855 8  82759573.63546  20210671.797                    20210679.387
 119439937.522 7  93070150.32045  22728669.883                    22728679.652
 117228085.149 7  91346572.59745  22307751.547                    22307760.977
 110635572.974 8  86209587.04446  21053223.266                    21053229.438
 122338159.664 6  95328408.64843  23280143.594                    23280151.570
 116223633.854 8  90563977.025 7  22116617.023
 114588639.750 8  89289905.50645  21805483.570                    21805491.113
 11  7 27  0 59 30.0000000  0  9G12G05G04G27G09G02G28G17G10
 121320299.174 7  94535486.300 6  23086517.250
 128268303.886 6  99949407.026 6  24408642.000
 106249164.173 8  82791676.21446  20218511.133                    20218518.680
 119478787.183 7  93100422.72645  22736062.633                    22736072.211
 117267367.394 7  91377182.09045  22315226.797                    22315236.418
 110592620.701 8  86176117.76546  21045050.039                    21045055.613
 122426634.918 6  95397350.34143  23296979.891                    23296987.563
 116264779.330 7  90596038.416 7  22124446.391
 114518363.211 7  89235144.58445  21792110.375                    21792118.563
 11  7 27  1  0  0.0000000  0  9G12G05G04G27G09G02G28G17G10
 121228519.442 7  94463969.669 6  23069051.914
 128162426.612 6  99866905.427 6  24388493.789
 106290788.254 8  82824110.56346  20226431.930                    20226439.617
 119518005.215 7  93130982.16845  22743525.813                    22743535.160
 117307179.819 7  91408204.73445  22322802.719                    22322812.355
 110550038.705 8  86142937.00546  21036946.773                    21036952.504
 122515398.962 6  95466517.08044  23313871.461                    23313880.074
 116306025.142 7  90628177.989 7  22132295.258
 114448483.935 7  89180693.30445  21778811.844                    21778821.262
 11  7 27  1  0 30.0000000  0  9G12G05G04G27G09G02G28G17G10
 121136892.730 7  94392572.243 6  23051616.117
 128056498.886 6  99784364.548 6  24368336.242
 106332835.549 8  82856874.68146  20234432.883                    20234441.594
 119557589.083 7  93161826.68445  22751058.656                    22751067.602
 117347519.652 7  91439638.31745  22330478.859                    22330488.426
 110507826.124 8  86110044.12146  21028913.953                    21028919.793
 122604449.844 7  95535907.31844  23330817.219                    23330825.625
 116347370.941 7  90660395.471 7  22140163.094
 114379004.706 7  89126553.69645  21765591.188                    21765599.836
 11  7 27  1  1  0.0000000  0  9G12G05G04G27G09G02G28G17G10
 121045421.448 7  94321295.912 6  23034209.469
 127950523.801 6  99701786.774 6  24348170.023
 106375304.158 8  82889967.10246  20242514.766                    20242522.707
 119597537.182 7  93192955.02844  22758660.453                    22758668.930
 117388384.829 7  91471481.29045  22338255.773                    22338264.789
 110465983.591 8  86077439.57746  21020951.563                    21020957.176
 122693786.293 7  95605520.09944  23347816.398                    23347825.566
 116388817.609 7  90692691.560 7  22148049.945
 114309928.937 7  89072728.43045  21752446.750                    21752453.949
 11  7 27  1  1 30.0000000  0  9G12G05G04G27G09G02G28G17G10
 120954107.830 7  94250142.483 6  23016832.734
 127844503.603 6  99619173.846 6  24327994.742
 106418191.634 8  82923385.90346  20250676.414                    20250683.992
 119637847.010 6  93224365.21845  22766331.359                    22766340.586
 117429772.567 7  91503731.41744  22346131.578                    22346140.563
 110424510.618 8  86045122.99746  21013059.680                    21013065.348
 122783406.664 7  95675354.10644  23364871.344                    23364879.953
 116430365.399 7  90725066.432 7  22155956.570
 114241259.083 7  89019219.49545  21739378.719                    21739387.242
 11  7 27  1  2  0.0000000  0  9G12G05G04G27G09G02G28G17G10
 120862954.326 7  94179113.780 6  22999487.414
 127738441.133 6  99536527.997 6  24307811.461
 106461495.812 8  82957129.41846  20258916.602                    20258924.734
 119678516.333 7  93256055.52445  22774070.055                    22774079.855
 117471680.338 7  91536386.79145  22354106.781                    22354114.934
 110383407.007 8  86013094.22946  21005237.922                    21005243.488
 122873309.213 6  95745407.98244  23381979.156                    23381987.609
 116472014.276 8  90757520.102 7  22163881.828
 114172998.107 7  88966029.19445  21726389.328                    21726397.766
 11  7 27  1  2 30.0000000  0  9G12G05G04G27G09G02G28G17G10
 120771963.415 7  94108211.796 6  22982171.836
 127632339.202 6  99453851.399 6  24287621.289
 106505214.888 8  82991196.22846  20267235.875                    20267244.172
 119719543.501 7  93288024.69344  22781877.547                    22781887.215
 117514106.012 7  91569445.71244  22362180.063                    22362188.137
 110342673.501 8  85981353.86746  20997486.367                    20997491.863
 122963492.813 7  95815680.89944  23399140.266                    23399149.594
 116513765.251 8  90790053.303 7  22171826.445
 114105149.481 7  88913160.19145  21713478.258                    21713486.840
 11  7 27  1  3  0.0000000  0  9G12G05G04G27G09G02G28G17G10
 120681137.377 7  94037438.288 6  22964888.711
 127526200.419 6  99371146.094 6  24267423.125
 106549346.350 8  83025584.37546  20275633.977                    20275641.844
 119760926.002 7  93320270.75144  22789752.078                    22789761.215
 117557046.788 7  91602906.05445  22370351.875                    22370358.879
 110302309.734 8  85949901.61046  20989805.203                    20989811.148
 123053955.882 6  95886171.57543  23416355.281                    23416364.449
 116555618.458 7  90822666.175 7  22179791.453
 114037716.140 7  88860614.75545  21700645.680                    21700653.398
 11  7 27  1  3 30.0000000  0  9G12G05G04G27G09G02G28G17G10
 120590478.684 7  93966795.194 6  22947636.523
 127420027.048 6  99288413.847 6  24247218.313
 106593887.821 8  83060292.02246  20284109.867                    20284117.914
 119802661.507 7  93352791.88144  22797694.734                    22797703.586
 117600499.828 7  91636765.56245  22378620.563                    22378628.059
 110262315.299 8  85918737.14046  20982194.711                    20982200.551
 123144696.408 6  95956878.46443  23433622.023                    23433631.570
 116597574.098 7  90855358.871 7  22187775.586
 113970700.872 7  88808395.12945  21687892.891                    21687900.805
 11  7 27  1  4  0.0000000  0  9G12G05G04G27G09G02G28G17G10
 120499990.018 7  93896284.563 7  22930417.531
 127313822.313 6  99205657.130 6  24227008.453
 106638837.267 8  83095317.56646  20292663.703                    20292671.707
 119844748.014 6  93385586.51844  22805703.438                    22805712.750
 117644462.947 7  91671022.51745  22386985.516                    22386994.090
 110222690.670 8  85887860.83146  20974654.609                    20974660.168
 123235713.123 7  96027800.52444  23450942.914                    23450951.367
 116639632.429 8  90888131.584 7  22195778.945
 113904107.071 7  88756503.91245  21675220.180                    21675229.379
 11  7 27  1  4 30.0000000  0  9G12G05G04G27G09G02G28G17G10
 120409673.795 7  93825908.328 6  22913230.422
 127207588.929 6  99122878.094 6  24206793.492
 106684192.906 8  83130659.63046  20301294.258                    20301302.219
 119887183.501 7  93418653.07544  22813778.266                    22813788.457
 117688933.857 7  91705675.14245  22395448.539                    22395457.313
 110183436.165 8  85857272.93146  20967184.078                    20967190.258
 123327004.570 6  96098936.64643  23468314.711                    23468323.422
 116681794.655 7  90920985.239 7  22203802.094
 113837938.159 7  88704943.77745  21662629.172                    21662638.035
 11  7 27  1  5  0.0000000  0  9G12G05G04G27G09G02G28G17G10
 120319532.159 7  93755668.114 7  22896077.063
 127101329.182 6  99040078.537 6  24186571.742
 106729951.772 8  83166315.88246  20310002.203                    20310009.875
 119929965.313 6  93451989.49544  22821919.555                    22821928.160
 117733909.272 7  91740720.86645  22404006.406                    22404016.805
 110144550.810 8  85826972.68146  20959784.805                    20959790.594
 123418568.791 6  96170285.35743  23485738.938                    23485747.625
 116724060.388 8  90953919.590 7  22211844.820
 113772196.189 7  88653716.31445  21650118.305                    21650127.250
 11  7 27  1  5 30.0000000  0  9G12G05G04G27G09G02G28G17G10
 120229567.509 7  93685565.814 7  22878957.719
 126995046.026 6  98957260.674 6  24166347.305
 106776112.084 8  83202284.96746  20318786.094                    20318794.027
 119973091.448 7  93485594.24044  22830125.977                    22830135.281
 117779386.897 7  91776157.93945  22412659.930                    22412670.637
 110106034.851 8  85796960.26946  20952455.633                    20952461.289
 123510404.497 6  96241845.59543  23503214.727                    23503223.793
 116766430.520 7  90986935.262 7  22219907.789
 113706884.323 7  88602823.99545  21637689.625                    21637697.672
 11  7 27  1  6  0.0000000  0  9G12G05G04G27G09G02G28G17G10
 120139782.421 7  93615603.476 7  22861871.711
 126888742.229 6  98874426.765 6  24146117.805
 106822671.530 8  83238565.05446  20327645.813                    20327653.578
 120016559.733 7  93519465.57244  22838398.070                    22838407.461
 117825364.160 6  91811984.28744  22421409.680                    22421420.508
 110067888.386 8  85767235.76946  20945196.484                    20945202.328
 123602509.957 6  96313616.09143  23520740.938                    23520750.063
 116808904.982 7  91020032.241 7  22227990.117
 113642005.697 7  88552269.25045  21625344.328                    21625352.219
 11  7 27  1  6 30.0000000  0  9G12G05G04G27G09G02G28G17G10
 120050179.354 7  93545782.960 7  22844820.891
 126782420.371 6  98791578.756 6  24125886.008
 106869627.819 8  83275154.36046  20336581.359                    20336589.586
 120060367.944 6  93553601.79744  22846734.375                    22846743.789
 117871838.290 7  91848197.83245  22430254.156                    22430264.023
 110030111.085 8  85737798.92746  20938007.734                    20938013.000
 123694883.598 6  96385595.50843  23538319.922                    23538328.539
 116851484.290 7  91053210.945 7  22236092.594
 113577562.933 7  88502054.16345  21613081.195                    21613090.023
 11  7 27  1  7  0.0000000  0  9G12G05G04G27G09G02G28G17G10
 119960760.737 7  93476106.173 7  22827805.266
 126676083.216 6  98708718.860 5  24105650.008
 106916978.665 8  83312051.13346  20345592.023                    20345599.957
 120104513.600 7  93588000.94345  22855135.469                    22855144.945
 117918806.529 7  91884796.39045  22439192.672                    22439201.945
 109992702.812 8  85708649.64546  20930888.852                    20930894.410
 123787523.649 6  96457782.50843  23555949.102                    23555957.316
 116894169.016 7  91086471.773 7  22244215.594
 113513559.018 7  88452181.06045  21600901.797                    21600909.871
 11  7 27  1  7 30.0000000  0  9G12G05G04G27G09G02G28G17G10
 119871529.255 7  93406575.187 7  22810825.031
 126569733.740 7  98625849.295 5  24085412.406
 106964721.895 8  83349253.64646  20354677.266                    20354685.625
 120148994.711 6  93622661.50345  22863599.570                    22863609.445
 117966266.533 7  91921778.16745  22448224.141                    22448232.926
 109955664.122 8  85679788.34746  20923840.969                    20923846.469
 123880428.488 6  96530175.88743  23573627.258                    23573637.148
 116936959.884 7  91119815.304 7  22252358.195
 113449997.230 7  88402652.43445  21588805.961                    21588813.605
 11  7 27  1  8  0.0000000  0  9G12G05G04G27G09G02G28G17G10
 119782487.213 7  93337191.812 7  22793880.438
 126463374.734 7  98542972.288 6  24065172.336
 107012855.278 8  83386760.16746  20363836.961                    20363844.609
 120193808.668 7  93657581.45045  22872127.797                    22872136.836
 118014215.070 7  91959140.60045  22457348.289                    22457357.063
 109918994.233 8  85651214.41646  20916862.797                    20916868.578
 123973596.428 6  96602774.25843  23591356.867                    23591366.242
 116979857.032 7  91153241.652 7  22260521.414
 113386880.232 7  88353470.37545  21576795.336                    21576803.477
 11  7 27  1  8 30.0000000  0  9G12G05G04G27G09G02G28G17G10
 119693636.917 7  93267957.879 6  22776972.977
 126357008.729 7  98460089.903 6  24044932.258
 107061376.547 8  83424568.95546  20373069.875                    20373077.898
 120238953.382 7  93692759.10544  22880717.891                    22880727.785
 118062649.580 7  91996881.74945  22466564.977                    22466573.391
 109882693.091 8  85622927.84246  20909954.734                    20909960.293
 124067026.099 6  96675576.59143  23609136.203                    23609145.629
 117022860.619 8  91186750.965 7  22268704.953
 113324210.771 7  88304637.09645  21564869.563                    21564878.789
 11  7 27  1  9  0.0000000  0  9G12G05G04G27G09G02G28G17G10
 119604980.786 7  93198875.192 7  22760102.711
 126250638.104 6  98377203.887 6  24024690.914
 107110282.769 8  83462677.68846  20382376.813                    20382384.660
 120284426.248 7  93728192.43344  22889371.945                    22889381.195
 118111567.010 7  92034999.21044  22475872.875                    22475881.719
 109846760.244 8  85594928.23646  20903117.211                    20903122.676
 124160715.175 6  96748581.01043  23626965.031                    23626973.777
 117065971.034 7  91220343.491 7  22276908.266
 113261991.094 7  88256154.28045  21553029.641                    21553038.008
 11  7 27  1  9 30.0000000  0  9G12G05G04G27G09G02G28G17G10
 119516521.637 7  93129946.025 7  22743269.109
 126144266.297 7  98294316.890 6  24004447.930
 107159572.590 8  83501085.32546  20391756.320                    20391764.008
 120330225.148 7  93763879.83744  22898086.938                    22898097.082
 118160965.151 7  92073491.24744  22485273.125                    22485281.250
 109811195.984 8  85567215.83746  20896349.414                    20896355.055
 124254662.496 6  96821786.68643  23644841.922                    23644851.648
 117109189.057 8  91254019.873 7  22285132.164
 113200224.984 7  88208024.86245  21541276.148                    21541283.566
 11  7 27  1 10  0.0000000  0  9G12G05G04G27G09G02G28G17G10
 119428261.716 7  93061172.131 6  22726473.930
 126037896.089 6  98211431.184 6  23984206.102
 107209243.506 8  83539789.93746  20401208.117                    20401215.984
 120376348.026 7  93799819.68744  22906864.320                    22906873.613
 118210841.331 7  92112355.75544  22494764.352                    22494772.648
 109776000.429 8  85539790.75046  20889651.758                    20889657.629
 124348866.399 6  96895192.30443  23662768.141                    23662777.992
 117152515.255 8  91287780.573 7  22293377.070
 113138915.176 7  88160251.01845  21529608.734                    21529617.043
 11  7 27  1 10 30.0000000  0  9G12G05G04G27G09G02G28G17G10
 119340203.766 7  92992555.570 7  22709717.211
 125931529.740 6  98128548.554 6  23963964.266
 107259293.222 8  83578789.70846  20410732.406                    20410740.418
 120422792.225 7  93836009.93544  22915701.922                    22915711.086
 118261192.370 7  92151590.30745  22504345.844                    22504354.945
 109741172.774 8  85512652.33546  20883024.453                    20883029.844
 124443324.757 6  96968796.20743  23680744.234                    23680752.504
 117195950.156 8  91321625.953 7  22301642.039
 113078064.328 7  88112834.82845  21518029.508                    21518038.332
 11  7 27  1 11  0.0000000  0  9G12G05G04G27G09G02G28G17G10
 119252350.325 7  92924098.432 7  22692998.602
 125825170.644 7  98045671.507 6  23943725.680
 107309719.639 8  83618083.02046  20420328.383                    20420336.324
 120469555.592 7  93872448.85644  22924600.648                    22924610.852
 118312015.584 7  92191192.77744  22514017.094                    22514026.449
 109706713.185 8  85485800.73546  20876466.898                    20876472.723
 124538036.294 6  97042597.37843  23698766.320                    23698776.074
 117239493.735 7  91355556.032 7  22309928.594
 113017675.566 7  88065778.70845  21506537.477                    21506546.184
 11  7 27  1 11 30.0000000  0  9G12G05G04G27G09G02G28G17G10
 119164703.655 7  92855802.357 7  22676319.977
 125718821.121 7  97962801.855 6  23923488.586
 107360519.997 8  83657667.71846  20429995.328                    20430003.125
 120516635.421 7  93909134.36044  22933559.852                    22933569.824
 118363308.094 7  92231160.88345  22523778.719                    22523788.254
 109672621.280 8  85459235.62746  20869979.281                    20869985.164
 124632999.021 6  97116594.26743  23716837.844                    23716846.746
 117283146.471 7  91389571.153 7  22318235.086
 112957751.000 8  88019084.28345  21495134.750                    21495142.359
 11  7 27  1 12  0.0000000  0  9G12G05G04G27G09G02G28G17G10
 119077266.047 7  92787669.206 7  22659681.445
 125612484.026 6  97879941.933 6  23903252.602
 107411692.002 8  83697542.00146  20439733.078                    20439740.832
 120564029.177 7  93946064.51844  22942578.664                    22942587.961
 118415066.814 7  92271492.29945  22533628.063                    22533636.766
 109638896.545 8  85432956.64746  20863561.922                    20863567.602
 124728211.249 6  97190785.56543  23734955.297                    23734965.004
 117326908.951 7  91423671.767 7  22326563.250
 112898293.588 7  87972753.87145  21483820.055                    21483828.594
 11  7 27  1 12 30.0000000  0  9G12G05G04G27G09G02G28G17G10
 118990040.366 7  92719701.174 7  22643082.469
 125506162.197 7  97797093.908 6  23883019.836
 107463233.650 8  83737704.33546  20449541.063                    20449549.191
 120611734.843 7  93983237.71144  22951656.781                    22951665.969
 118467289.345 7  92312185.15545  22543565.234                    22543574.969
 109605539.264 8  85406963.98346  20857214.172                    20857219.996
 124823671.283 6  97265169.94843  23753120.813                    23753130.496
 117370781.655 7  91457858.293 7  22334911.773
 112839306.460 7  87926789.94045  21472595.258                    21472603.344
 11  7 27  1 13  0.0000000  0  9G12G05G04G27G09G02G28G17G10
 118903029.249 7  92651900.363 7  22626524.813
 125399858.708 7  97714260.136 6  23862790.719
 107515142.740 8  83778152.97146  20459418.953                    20459427.191
 120659750.343 7  94020652.31944  22960794.055                    22960803.184
 118519972.814 7  92353237.16645  22553590.891                    22553599.359
 109572549.254 8  85381257.50446  20850936.336                    20850942.219
 124919377.345 6  97339746.04543  23771333.719                    23771342.906
 117414765.045 7  91492131.054 7  22343281.789
 112780792.371 7  87881194.59045  21461460.633                    21461469.102
 11  7 27  1 13 30.0000000  0  9G12G05G04G27G09G02G28G17G10
 118816234.808 7  92584268.368 7  22610008.547
 125293575.946 7  97631442.529 6  23842566.188
 107567416.511 8  83818885.78746  20469366.539                    20469374.484
 120708072.524 7  94058305.89945  22969989.359                    22969999.465
 118573113.695 7  92394645.61945  22563702.852                    22563712.105
 109539925.467 8  85355836.39446  20844727.734                    20844733.605
 125015327.380 6  97414512.27243  23789592.641                    23789601.789
 117458859.467 7  91526490.334 7  22351672.602
 112722753.474 8  87835969.52745  21450415.477                    21450424.184
 11  7 27  1 14  0.0000000  0  9G12G05G04G27G09G02G28G17G10
 118729659.483 7  92516807.099 7  22593534.219
 125187317.314 7  97548643.748 6  23822345.477
 107620052.652 8  83859900.96646  20479382.766                    20479390.281
 120756699.200 6  94096196.72244  22979242.273                    22979252.379
 118626709.259 7  92436408.34945  22573901.750                    22573910.406
 109507667.851 8  85330700.61446  20838589.484                    20838595.195
 125111519.624 7  97489467.22644  23807897.078                    23807905.656
 117503065.312 7  91560936.465 7  22360084.117
 112665192.668 8  87791117.00145  21439462.664                    21439470.801
 11  7 27  1 14 30.0000000  0  9G12G05G04G27G09G02G28G17G10
 118643306.195 7  92449518.872 7  22577101.414
 125081085.079 7  97465865.490 6  23802130.000
 107673049.440 8  83901197.15746  20489467.891                    20489475.938
 120805628.229 7  94134323.16144  22988553.148                    22988562.582
 118680757.068 7  92478523.48145  22584187.250                    22584196.188
 109475776.665 8  85305850.34746  20832520.789                    20832527.023
 125207952.899 6  97564610.02643  23826247.664                    23826256.246
 117547383.431 7  91595470.036 7  22368518.133
 112608113.129 7  87746639.48545  21428600.336                    21428608.371
 11  7 27  1 15  0.0000000  0  9G12G05G04G27G09G02G28G17G10
 118557177.199 7  92382405.411 7  22560711.430
 124974882.251 6  97383110.151 6  23781920.883
 107726404.065 8  83942772.20246  20499620.883                    20499628.875
 120854856.646 7  94172682.88144  22997921.203                    22997931.051
 118735253.522 7  92520988.22045  22594557.016                    22594566.309
 109444251.281 8  85281285.13546  20826521.867                    20826527.578
 125304625.234 6  97639939.10143  23844643.461                    23844651.727
 117591814.105 7  91630091.314 7  22376973.156
 112551517.043 7  87702538.67345  21417830.531                    21417838.895
 11  7 27  1 15 30.0000000  0  9G12G05G04G27G09G02G28G17G10
 118471275.073 7  92315468.725 7  22544364.344
 124868711.955 6  97300380.191 6  23761716.852
 107780114.598 8  83984624.56846  20509841.492                    20509849.285
 120904382.562 7  94211274.45844  23007346.008                    23007355.680
 118790196.391 7  92563800.80544  22605012.383                    22605021.023
 109413091.589 8  85257004.89546  20820592.328                    20820598.676
 125401534.622 6  97715452.87843  23863085.352                    23863093.609
 117636357.904 7  91664800.760 7  22385448.938
 112495407.437 8  87658816.96946  21407153.250                    21407161.926
 11  7 27  1 16  0.0000000  0  9G12G05G04G27G09G02G28G17G10
 118385602.558 7  92248710.951 7  22528062.156
 124762576.521 6  97217677.352 6  23741520.188
 107834178.423 8  84026752.22146  20520129.859                    20520137.473
 120954203.358 7  94250095.78844  23016826.758                    23016835.906
 118845582.091 7  92606958.44944  22615552.258                    22615560.891
 109382296.894 8  85233009.05546  20814732.383                    20814738.383
 125498678.944 6  97791149.74343  23881571.195                    23881580.117
 117681014.997 7  91699598.500 7  22393947.672
 112439786.696 7  87615476.17045  21396569.102                    21396576.809
 11  7 27  1 16 30.0000000  0  9G12G05G04G27G09G02G28G17G10
 118300162.214 7  92182134.109 7  22511803.078
 124656479.014 6  97135004.145 6  23721329.742
 107888593.450 8  84069153.54146  20530484.102                    20530492.547
 121004316.808 7  94289145.17644  23026363.477                    23026372.961
 118901408.123 7  92650459.21945  22626175.695                    22626184.043
 109351867.416 8  85209297.79746  20808941.813                    20808947.594
 125596056.802 6  97867028.58443  23900101.352                    23900110.371
 117725786.253 7  91734485.154 7  22402467.313
 112384657.795 8  87572518.61945  21386078.070                    21386085.891
 11  7 27  1 17  0.0000000  0  9G12G05G04G27G09G02G28G17G10
 118214956.314 7  92115739.878 7  22495589.273
 124550421.932 6  97052362.450 7  23701147.477
 107943356.594 8  84111826.11646  20540905.406                    20540913.590
 121054719.506 7  94328419.94244  23035953.906                    23035964.602
 118957670.526 7  92694299.98745  22636881.453                    22636891.027
 109321801.710 8  85185870.00746  20803220.508                    20803226.332
 125693665.911 6  97943087.64043  23918675.953                    23918685.191
 117770671.384 7  91769460.563 7  22411008.398
 112330022.298 8  87529945.55845  21375681.195                    21375689.406
 11  7 27  1 17 30.0000000  0  9G12G05G04G27G09G02G28G17G10
 118129987.738 7  92049530.625 7  22479420.070
 124444408.760 6  96969754.922 6  23680974.219
 107998466.059 8  84154768.56146  20551392.297                    20551400.164
 121105409.503 7  94367918.57044  23045600.141                    23045609.859
 119014367.063 7  92738479.05144  22647671.000                    22647680.316
 109292100.215 8  85162726.00646  20797568.625                    20797574.453
 125791504.611 6  98019325.53343  23937293.859                    23937303.094
 117815671.261 7  91804525.377 7  22419571.594
 112275883.550 8  87487759.55145  21365379.289                    21365387.711
 11  7 27  1 18  0.0000000  0  9G12G05G04G27G09G02G28G17G10
 118045258.371 7  91983507.774 7  22463296.344
 124338442.284 6  96887183.775 6  23660809.375
 108053919.800 8  84197979.27446  20561944.914                    20561952.777
 121156384.633 7  94407639.39844  23055299.938                    23055310.563
 119071494.907 7  92782994.18744  22658541.703                    22658551.297
 109262762.769 8  85139865.68046  20791985.625                    20791991.211
 125889571.538 6  98095741.30943  23955955.703                    23955964.879
 117860787.017 7  91839680.489 7  22428156.641
 112222244.370 7  87445962.83845  21355171.648                    21355179.828
 11  7 27  1 18 30.0000000  0  9G12G05G04G27G09G02G28G17G10
 117960771.086 7  91917673.557 7  22447218.906
 124232525.480 7  96804651.345 6  23640653.781
 108109715.271 8  84241456.26146  20572562.445                    20572570.383
 121207642.065 7  94447580.24544  23065054.320                    23065063.734
 119129050.717 6  92827842.82845  22669494.680                    22669504.207
 109233788.542 8  85117288.39146  20786471.891                    20786477.500
 125987864.426 6  98172333.14943  23974660.445                    23974669.598
 117906018.594 7  91874925.878 7  22436763.961
 112169106.968 8  87404557.10745  21345060.195                    21345067.941
 11  7 27  1 19  0.0000000  0  9G12G05G04G27G09G02G28G17G10
 117876528.686 7  91852030.188 7  22431187.930
 124126660.669 7  96722159.420 6  23620508.266
 108165849.933 8  84285197.56146  20583244.359                    20583252.734
 121259179.340 7  94487739.13544  23074862.266                    23074871.121
 119187031.540 7  92873022.60945  22680528.000                    22680537.434
 109205177.184 8  85094993.84346  20781027.555                    20781033.113
 126086381.339 6  98249099.55943  23993407.281                    23993416.879
 117951366.321 7  91910261.737 7  22445393.695
 112116473.958 7  87363544.40046  21335044.609                    21335052.969
 11  7 27  1 19 30.0000000  0  9G12G05G04G27G09G02G28G17G10
 117792533.621 7  91786579.495 7  22415204.945
 124020850.843 7  96639710.324 6  23600372.914
 108222321.719 8  84329201.55746  20593990.320                    20593998.172
 121310994.178 7  94528114.28344  23084722.320                    23084732.402
 119245434.191 6  92918531.11844  22691641.453                    22691651.230
 109176928.620 8  85072982.01046  20775651.820                    20775657.598
 126185120.699 6  98326039.28543  24012196.836                    24012205.660
 117996830.851 7  91945688.631 7  22454045.008
 112064347.815 8  87322926.67545  21325124.711                    21325133.379
 11  7 27  1 20  0.0000000  0  9G12G05G04G27G09G02G28G17G10
 117708788.706 7  91721323.742 7  22399268.523
 123915099.188 7  96557306.568 6  23580249.406
 108279128.382 8  84373466.49046  20604800.477                    20604808.855
 121363083.882 7  94568703.66144  23094634.242                    23094643.289
 119304255.673 6  92964365.94844  22702834.555                    22702844.680
 109149042.520 8  85051252.60146  20770345.391                    20770351.180
 126284080.449 6  98403150.78943  24031027.797                    24031036.949
 118042412.685 7  91981206.928 7  22462718.617
 112012731.097 8  87282705.89545  21315302.641                    21315310.152
 11  7 27  1 20 30.0000000  0  9G12G05G04G27G09G02G28G17G10
 117625295.920 7  91656264.461 7  22383379.828
 123809408.522 7  96474950.313 6  23560136.680
 108336267.265 8  84417990.28746  20615673.938                    20615681.641
 121415445.965 7  94609505.24644  23104598.375                    23104607.543
 119363493.014 7  93010524.83544  22714107.633                    22714116.902
 109121518.095 8  85029805.02946  20765107.523                    20765113.039
 126383258.758 6  98480432.54543  24049900.422                    24049910.027
 118088112.300 7  92016817.005 7  22471415.227
 111961626.304 8  87242884.01645  21305578.250                    21305585.387
 11  7 27  1 21  0.0000000  0  9G12G05G04G27G09G02G28G17G10
 117542058.068 7  91591403.812 7  22367540.828
 123703781.794 7  96392643.892 6  23540036.719
 108393736.345 8  84462771.38046  20626609.813                    20626617.719
 121468077.882 7  94650517.07644  23114613.766                    23114623.891
 119423142.952 6  93057005.24144  22725459.273                    22725467.676
 109094355.174 8  85008639.13946  20759938.578                    20759944.477
 126482653.806 6  98557883.21843  24068815.891                    24068824.141
 118133930.351 7  92052519.360 7  22480133.867
 111911035.894 7  87203462.97046  21295950.813                    21295959.168
 11  7 27  1 21 30.0000000  0  9G12G05G04G27G09G02G28G17G10
 117459077.651 7  91526743.811 7  22351749.719
 123598221.300 7  96310389.092 6  23519948.992
 108451532.562 8  84507807.40546  20637608.172                    20637615.898
 121520976.710 7  94691736.90244  23124680.664                    23124690.059
 119483202.015 7  93103804.45744  22736887.375                    22736896.773
 109067552.732 8  84987754.16046  20754838.258                    20754844.020
 126582263.282 6  98635501.03643  24087770.078                    24087779.223
 118179866.976 7  92088314.124 7  22488875.797
 111860961.837 8  87164444.26545  21286421.648                    21286429.719
 11  7 27  1 22  0.0000000  0  9G12G05G04G27G09G02G28G17G10
 117376357.370 7  91462286.470 7  22336008.977
 123492730.325 7  96228188.451 6  23499875.133
 108509654.051 8  84553096.87746  20648668.133                    20648676.199
 121574140.006 7  94733162.83644  23134797.273                    23134807.039
 119543667.587 6  93150920.41544  22748393.898                    22748403.180
 109041110.498 8  84967149.86146  20749806.758                    20749812.254
 126682085.366 6  98713284.44742  24106766.305                    24106774.895
 118225922.707 7  92124201.663 7  22497640.086
 111811406.908 7  87125830.07445  21276991.969                    21277000.250
 11  7 27  1 22 30.0000000  0  9G12G05G04G27G09G02G28G17G10
 117293899.592 7  91398033.688 7  22320317.234
 123387311.930 6  96146044.311 6  23479814.672
 108568098.647 8  84598638.11146  20659790.063                    20659797.629
 121627565.459 7  94774793.04444  23144963.531                    23144973.555
 119604536.477 7  93198350.64144  22759977.133                    22759985.828
 109015028.321 8  84946826.09946  20744843.375                    20744848.715
 126782118.363 6  98791232.26042  24125801.813                    24125810.586
 118272098.485 7  92160182.773 7  22506426.742
 111762373.661 8  87087622.38745  21267661.313                    21267668.770
 11  7 27  1 23  0.0000000  0  9G12G05G04G27G09G02G28G17G10
 117211707.146 7  91333987.662 7  22304677.320
 123281969.141 6  96063959.184 6  23459767.344
 108626864.090 8  84644429.35846  20670972.344                    20670980.715
 121681250.680 7  94816625.65844  23155179.219                    23155188.754
 119665805.620 7  93246092.73944  22771636.742                    22771645.629
 108989305.940 8  84926782.70546  20739948.195                    20739954.117
 126882360.381 6  98869342.93742  24144876.188                    24144886.578
 118318394.599 7  92196257.656 6  22515236.930
 111713864.474 8  87049823.07045  21258429.805                    21258438.109
 11  7 27  1 23 30.0000000  0  9G12G05G04G27G09G02G28G17G10
 117129782.462 7  91270150.269 7  22289086.984
 123176704.732 7  95981935.104 6  23439736.492
 108685947.815 8  84690468.62146  20682215.852                    20682223.434
 121735192.724 7  94858658.38744  23165444.508                    23165453.531
 119727471.685 7  93294144.17444  22783370.828                    22783380.563
 108963942.436 8  84907018.95446  20735121.734                    20735127.738
 126982809.374 6  98947614.89342  24163992.594                    24164001.418
 118364811.427 7  92232426.609 6  22524069.133
 111665881.750 8  87012433.97745  21249299.414                    21249306.820
 11  7 27  1 24  0.0000000  0  9G12G05G04G27G09G02G28G17G10
 117048128.085 7  91206523.512 7  22273548.758
 123071521.482 7  95899974.254 6  23419721.117
 108745347.438 8  84736754.05046  20693519.258                    20693526.723
 121789389.046 7  94900889.26544  23175757.648                    23175767.316
 119789531.542 7  93342502.41044  22795180.438                    22795189.516
 108938937.408 8  84887534.53946  20730363.484                    20730369.180
 127083463.463 6  99026046.61142  24183145.852                    24183155.152
 118411349.661 7  92268690.149 7  22532925.844
 111618427.874 8  86975456.98746  21240269.227                    21240277.797
 11  7 27  1 24 30.0000000  0  9G12G05G04G27G09G02G28G17G10
 116966746.476 7  91143109.303 7  22258062.023
 122966422.690 7  95818079.216 6  23399721.367
 108805060.719 8  84783283.87346  20704881.813                    20704890.641
 121843837.129 7  94943316.30344  23186118.680                    23186128.781
 119851981.965 7  93391165.01744  22807064.742                    22807073.105
 108914290.444 8  84868329.12646  20725673.359                    20725679.039
 127184320.754 6  99104636.71542  24202338.711                    24202347.531
 118458009.892 7  92305048.731 7  22541804.609
 111571504.887 8  86938893.67045  21231339.508                    21231348.285
 11  7 27  1 25  0.0000000  0  9G12G05G04G27G09G02G28G17G10
 116885640.180 7  91079909.614 7  22242628.000
 122861410.391 7  95736251.577 6  23379738.289
 108865084.751 8  84830055.83446  20716304.289                    20716312.770
 121898533.799 7  94985937.05544  23196526.516                    23196536.527
 119914819.446 7  93440129.30044  22819022.281                    22819030.680
 108890000.397 8  84849401.82446  20721051.188                    20721056.363
 127285378.680 6  99183383.14543  24221568.969                    24221578.488
 118504791.947 7  92341502.271 6  22550707.063
 111525114.390 8  86902745.27145  21222511.969                    21222519.633
 11  7 27  1 25 30.0000000  0  9G12G05G04G27G09G02G28G17G10
 116804812.073 7  91016926.698 7  22227246.836
 122756488.210 7  95654494.151 7  23359772.203
 108925417.926 8  84877068.69946  20727785.680                    20727793.371
 121953477.292 7  95028750.11144  23206981.969                    23206992.414
 119978041.441 7  93489393.13244  22831052.898                    22831062.277
 108866067.363 8  84830752.73346  20716496.727                    20716502.500
 127386635.638 6  99262284.69642  24240837.734                    24240846.984
 118551697.018 7  92378051.693 7  22559632.352
 111479259.718 8  86867014.40745  21213786.148                    21213794.266
 11  7 27  1 26  0.0000000  0  9G12G05G04G27G09G02G28G17G10
 116724264.391 8  90954162.336 7  22211919.203
 122651658.874 7  95572809.087 6  23339823.492
 108986057.722 8  84924320.49646  20739324.766                    20739332.500
 122008664.566 7  95071753.12744  23217484.664                    23217494.680
 120041644.214 7  93538953.70144  22843156.203                    22843165.781
 108842490.736 8  84812381.35946  20712010.328                    20712015.754
 127488090.161 6  99341340.15142  24260142.898                    24260152.961
 118598725.567 7  92414697.260 7  22568581.945
 111433943.129 8  86831702.81646  21205162.570                    21205170.938
 11  7 27  1 26 30.0000000  0  9G12G05G04G27G09G02G28G17G10
 116643999.921 7  90891618.620 7  22196645.578
 122546925.236 7  95491198.606 7  23319892.719
 109047001.578 8  84971809.20546  20750921.969                    20750929.918
 122064093.170 7  95114944.16044  23228032.164                    23228042.406
 120105624.650 7  93588808.54744  22855331.477                    22855340.547
 108819270.076 8  84794287.34846  20707591.641                    20707597.074
 127589739.807 5  99420547.65642  24279487.000                    24279496.133
 118645878.083 7  92451439.453 7  22577555.125
 111389166.262 7  86796811.80345  21196641.539                    21196649.887
 11  7 27  1 27  0.0000000  0  9G12G05G04G27G09G02G28G17G10
 116564021.457 8  90829297.745 7  22181425.992
 122442290.664 7  95409665.303 6  23299982.047
 109108247.719 8  85019533.45446  20762576.922                    20762584.957
 122119760.543 7  95158321.30044  23238626.219                    23238635.105
 120169979.989 7  93638955.54244  22867577.688                    22867586.988
 108796404.891 8  84776470.34046  20703240.469                    20703245.738
 127691582.577 6  99499905.62242  24298866.781                    24298876.574
 118693154.889 7  92488278.524 7  22586551.328
 111344931.709 8  86762343.36346  21188224.547                    21188232.164
 11  7 27  1 27 30.0000000  0  9G12G05G04G27G09G02G28G17G10
 116484331.202 7  90767201.462 7  22166261.688
 122337757.712 6  95328211.199 7  23280089.523
 109169793.269 8  85067491.02846  20774288.531                    20774296.563
 122175663.804 7  95201882.27044  23249263.266                    23249272.895
 120234706.561 7  93689391.80944  22879894.664                    22879904.613
 108773894.580 8  84758929.84246  20698956.656                    20698962.324
 127793616.882 5  99579412.86042  24318284.023                    24318292.977
 118740556.487 7  92525214.828 6  22595571.344
 111301241.228 7  86728298.87845  21179910.188                    21179918.066
 11  7 27  1 28  0.0000000  0  9G12G05G04G27G09G02G28G17G10
 116404931.780 7  90705331.806 7  22151152.047
 122233329.139 7  95246838.434 6  23260217.516
 109231635.619 8  85115679.86546  20786056.789                    20786064.914
 122231800.279 7  95245624.91944  23259946.258                    23259956.184
 120299800.986 7  93740114.72944  22892281.641                    22892291.746
 108751737.782 8  84741664.83146  20694740.617                    20694746.195
 127895840.000 5  99659067.23842  24337735.789                    24337745.711
 118788083.187 7  92562248.584 7  22604615.531
 111258097.180 7  86694680.18546  21171700.055                    21171707.738
 11  7 27  1 28 30.0000000  0  9G12G05G04G27G09G02G28G17G10
 116325825.883 7  90643690.865 7  22136098.711
 122129008.508 7  95165549.715 6  23240366.422
 109293773.217 8  85164098.76346  20797881.328                    20797888.965
 122288167.734 7  95289547.53544  23270672.805                    23270682.488
 120365260.531 7  93791122.14144  22904738.719                    22904748.195
 108729934.823 8  84724675.52746  20690591.398                    20690597.219
 127998250.581 5  99738867.71052  24357224.227                    24357234.820
 118835736.066 7  92599380.663 7  22613683.695
 111215502.423 8  86661489.51546  21163594.625                    21163602.113
 11  7 27  1 29  0.0000000  0  9G12G05G04G27G09G02G28G17G10
 116247016.203 8  90582280.753 7  22121101.898
 122024798.558 7  95084347.267 6  23220535.383
 109356203.565 8  85212745.78546  20809761.352                    20809769.156
 122344763.098 7  95333647.76944  23281442.047                    23281451.875
 120431081.711 7  93842411.37344  22917263.844                    22917272.484
 108708484.719 8  84707961.17346  20686509.617                    20686515.070
 128100846.484 5                  24376747.352
 118883515.321 7  92636611.257 7  22622775.727
 111173458.615 8  86628728.16446  21155594.133                    21155601.965
 11  7 27  1 29 30.0000000  0  9G12G05G04G27G09G02G28G17G10
 116168505.706 7  90521103.774 7  22106161.953
 121920702.637 7  95003233.700 6  23200726.961
 109418924.811 8  85261619.47446  20821696.695                    20821704.516
 122401584.513 7  95377924.14244  23292255.102                    23292265.316
 120497262.070 7  93893980.47644  22929857.461                    22929866.902
 108687387.898 8  84691522.10946  20682495.156                    20682500.809
 128203626.312 4                  24396302.703
 118931422.347 7  92673941.369 7  22631892.219
 111131968.445 8  86596398.19346  21147698.539                    21147706.598
 11  7 27  1 30  0.0000000  0  9G12G05G04G27G09G02G28G17G10
 116090296.496 7  90460161.553 7  22091278.953
 121816723.346 7  94922211.007 6  23180939.836
 109481934.208 8  85310717.69746  20833686.953                    20833694.496
 122458628.714 7  95422374.11844  23303110.031                    23303120.793
 120563797.426 6  93945826.16344  22942518.609                    22942528.340
 108666642.983 8  84675357.26646  20678547.375                    20678553.008
 128306587.46714                  24415898.156
 118979456.965 7  92711370.925 7  22641032.500
 111091033.282 8  86564500.71746  21139908.547                    21139916.797
 11  7 27  1 30 30.0000000  0  9G12G05G04G27G09G02G28G17G10
 116012390.869 8  90399455.902 7  22076454.266
 121712863.286 7  94841281.220 6  23161175.586
 109545228.936 8  85360038.26146  20845731.508                    20845738.801
 122515892.856 7  95466995.44944  23314006.742                    23314016.992
 120630684.360 7  93997945.80444  22955246.602                    22955256.875
 108646248.941 8  84659465.83246  20674666.656                    20674671.969
 128409727.52414                  24435524.906
 119027619.540 7  92748900.172 7  22650198.266
 111050655.025 8  86533037.16446  21132224.930                    21132232.879
 11  7 27  1 31  0.0000000  0  9G12G05G04G27G09G02G28G17G10
 115934791.247 7  90338988.676 7  22061687.266
 121609125.110 7  94760446.369 6  23141434.828
 109608806.358 8  85409579.09746  20857830.008                    20857837.922
 122573373.963 7  95511785.89444  23324945.852                    23324954.566
 120697919.430 7  94050336.74144  22968041.344                    22968050.895
 108626204.701 8  84643846.95046  20670852.336                    20670857.668
 128513044.17214                  24455182.711
 119075910.176 7  92786529.237 7  22659387.203
 111010835.239 8  86502008.82646  21124647.570                    21124655.777
 11  7 27  1 31 30.0000000  0  8G12G05G04G27G09G02G17G10
 115857500.944 7  90278762.475 7  22046979.477
 121505511.935 7  94679708.950 7  23121717.828
 109672664.447 8  85459338.63946  20869981.789                    20869990.066
 122631069.505 6  95556743.39644  23335924.719                    23335935.078
 120765499.138 6  94102996.22444  22980901.047                    22980911.012
 108606509.966 8  84628500.40546  20667104.555                    20667109.965
 119124329.653 7  92824258.715 7  22668601.109
 110971576.174 7  86471417.38546  21117176.680                    21117184.250
 11  7 27  1 32  0.0000000  0  8G12G05G04G27G09G02G17G10
 115780521.778 7  90218778.761 7  22032331.102
 121402027.156 7  94599071.570 7  23102025.313
 109736801.166 8  85509315.28946  20882186.578                    20882194.352
 122688977.254 6  95601866.24944  23346943.742                    23346953.738
 120833420.868 6  94155922.19544  22993826.500                    22993835.996
 108587164.320 8  84613425.90046  20663423.094                    20663428.652
 119172878.629 7  92862089.027 7  22677839.930
 110932880.416 7  86441264.88546  21109813.289                    21109821.113
 11  7 27  1 32 30.0000000  0  8G12G05G04G27G09G02G17G10
 115703856.931 7  90159039.943 7  22017741.961
 121298674.084 7  94518536.837 6  23082357.852
 109801214.814 8  85559507.73246  20894444.617                    20894452.160
 122747094.781 7  95647152.56744  23358003.508                    23358013.129
 120901681.509 7  94209112.28244  23006815.750                    23006825.949
 108568167.904 8  84598623.52446  20659808.133                    20659814.004
 119221558.180 7  92900021.144 7  22687103.625
 110894750.404 8  86411553.22446  21102557.273                    21102565.047
 11  7 27  1 33  0.0000000  0  8G12G05G04G27G09G02G17G10
 115627508.860 8  90099547.941 7  22003213.352
 121195455.237 7  94438106.653 6  23062715.594
 109865902.323 8  85609913.56946  20906753.844                    20906761.906
 122805418.816 7  95692599.82444  23369102.195                    23369111.742
 120970277.198 7  94262563.41844  23019870.023                    23019878.887
 108549519.245 8  84584092.11246  20656259.398                    20656265.125
 119270368.290 7  92938054.993 7  22696391.883
 110857187.255 8  86382283.26646  21095409.195                    21095417.145
 11  7 27  1 33 30.0000000  0  9G12G05G25G04G27G09G02G17G10
 115551479.601 7  90040304.415 7  21988744.945
 121092373.210 7  94357783.105 6  23043100.000
 131617352.47615 102558928.91714  25045925.125
 109930861.118 8  85660530.80146  20919114.992                    20919123.051
 122863946.261 7  95738205.55944  23380239.594                    23380250.105
 121039204.699 7  94316273.09344  23032986.367                    23032996.195
 108531217.355 8  84569830.91746  20652776.680                    20652782.160
 119319309.377 7  92976190.893 6  22705704.594
 110820192.656 8  86353456.34945  21088368.938                    21088376.879
 11  7 27  1 34  0.0000000  0  9G12G05G25G04G27G09G02G17G10
 115475771.791 7  89981311.299 7  21974338.859
 120989431.296 7  94277568.732 6  23023511.023
 131512381.583 5 102477133.483 5  25025951.281
 109996089.240 8  85711357.89846  20931527.625                    20931535.148
 122922675.048 7  95783968.18344  23391415.461                    23391426.137
 121108460.742 7  94370238.79044  23046164.945                    23046174.094
 108513261.823 8  84555839.60346  20649359.891                    20649365.770
 119368382.234 7  93014429.449 7  22715042.742
 110783769.060 8  86325074.36446  21081437.734                    21081445.234
 11  7 27  1 34 30.0000000  0  9G12G05G25G04G27G09G02G17G10
 115400388.365 7  89922571.015 7  21959993.539
 120886632.520 7  94197465.909 7  23003948.875
 131407472.177 5 102395385.915 5  25005988.375
 110061584.579 8  85762393.23046  20943990.984                    20943998.621
 122981602.489 6  95829885.59244  23402629.273                    23402639.223
 121178041.904 7  94424457.86544  23059405.781                    23059415.219
 108495652.132 8  84542117.78346  20646009.172                    20646014.512
 119417587.335 7  93052771.105 6  22724406.250
 110747918.242 8  86297138.68946  21074615.875                    21074623.664
 11  7 27  1 35  0.0000000  0  9G12G05G25G04G27G09G02G17G10
 115325331.867 7  89864085.441 7  21945710.883
 120783979.784 7  94117476.852 6  22984413.813
 131302626.058 6 102313687.681 5  24986036.133
 110127344.399 8  85813634.63646  20956504.039                    20956512.469
 123040725.748 6  95875955.62744  23413879.508                    23413889.219
 121247944.878 7  94478927.66144  23072708.602                    23072717.918
 108478387.242 8  84528664.62746  20642723.586                    20642728.777
 119466924.964 7  93091216.018 7  22733794.922
 110712641.634 8  86269650.45046  21067902.773                    21067910.934
 11  7 27  1 35 30.0000000  0  9G12G05G25G04G27G09G02G17G10
 115250604.500 7  89805856.327 7  21931490.961
 120681475.703 7  94037603.633 6  22964908.711
 131197845.487 6 102232040.493 5  24966096.813
 110193366.252 8  85865080.21346  20969068.273                    20969075.871
 123100041.730 7  95922175.78144  23425167.797                    23425177.777
 121318166.022 7  94533645.36444  23086070.602                    23086079.906
 108461465.954 8  84515479.21446  20639503.625                    20639508.883
 119516395.586 7  93129764.538 6  22743209.500
 110677941.245 8  86242611.22646  21061300.031                    21061307.664
 11  7 27  1 36  0.0000000  0  9G12G05G25G04G27G09G02G17G10
 115176209.204 7  89747885.987 7  21917333.914
 120579123.606 7  93957848.855 6  22945431.234
 131093133.190 5 102150446.478 5  24946170.867
 110259648.225 8  85916728.50246  20981681.188                    20981689.008
 123159548.005 6  95968544.24044  23436491.641                    23436501.480
 121388702.109 7  94588608.53444  23099493.352                    23099502.648
 108444888.166 8  84502561.46546  20636348.695                    20636353.918
 119565999.885 7  93168417.217 6  22752648.063
 110643818.980 8  86216022.47446  21054806.648                    21054814.219
 11  7 27  1 36 30.0000000  0  9G12G05G25G04G27G09G02G17G10
 115102148.842 8  89690176.620 7  21903240.672
 120476926.889 7  93878215.121 6  22925983.828
 130988492.040 5 102068907.917 6  24926258.656
 110326188.510 8  85968578.06746  20994343.344                    20994351.426
 123219242.360 6  96015059.29044  23447850.734                    23447861.453
 121459550.490 7  94643815.00844  23112975.086                    23112984.887
 108428653.955 8  84489911.44546  20633259.344                    20633265.070
 119615738.648 7  93207174.672 7  22762113.289
 110610277.194 8  86189886.03946  21048423.531                    21048431.016
 11  7 27  1 37  0.0000000  0  9G12G05G25G04G27G09G02G17G10
 115028425.198 7  89632729.647 7  21889211.477
 120374887.974 7  93798704.373 6  22906566.328
 130883923.850 6 101987426.266 6  24906358.398
 110392984.250 8  86020626.69146  21007054.523                    21007062.270
 123279121.578 6  96061718.36044  23459245.641                    23459255.367
 121530707.238 7  94699261.78944  23126515.836                    23126525.797
 108412761.520 8  84477527.74946  20630235.195                    20630240.234
 119665612.118 7  93246037.103 7  22771604.469
 110577316.763 8  86164202.61546  21042151.070                    21042158.840
 11  7 27  1 37 30.0000000  0  9G12G05G25G04G27G09G02G17G10
 114955040.925 7  89575547.105 7  21875247.234
 120273009.803 7  93719318.855 6  22887179.445
 130779430.769 6 101906003.108 6  24886474.516
 110460033.217 8  86072872.61846  21019813.133                    21019821.672
 123339182.935 6  96108519.33444  23470675.180                    23470684.895
 121602168.953 7  94754946.21644  23140114.555                    23140123.496
 108397210.364 8  84465409.97446  20627275.938                    20627280.844
 119715621.058 7  93285005.114 6  22781120.805
 110544939.519 8  86138973.61546  21035990.500                    21035997.855
 11  7 27  1 38  0.0000000  0  9G12G05G25G04G27G09G02G17G10
 114881998.783 7  89518631.152 7  21861347.828
 120171295.616 7  93640061.130 7  22867823.656
 130675015.214 6 101824640.350 6  24866605.844
 110527332.932 8  86125313.93646  21032619.742                    21032628.016
 123399423.697 6  96155460.15944  23482137.766                    23482148.523
 121673932.170 7  94810865.58344  23153771.055                    23153780.355
 108381999.455 8  84453557.32946  20624381.422                    20624386.777
 119765765.718 7  93324078.857 6  22790663.164
 110513147.345 7  86114200.53246  21029940.102                    21029948.621
 11  7 27  1 38 30.0000000  0  9G12G05G25G04G27G09G02G17G10
 114809301.343 7  89461983.833 7  21847513.492
 120069748.231 7  93560933.362 6  22848500.227
 130570679.668 6 101743339.939 6  24846750.875
 110594881.311 8  86177949.02446  21045474.055                    21045481.930
 123459841.003 6  96202538.53244  23493634.688                    23493645.590
 121745993.769 7  94867017.45844  23167483.234                    23167493.137
 108367128.305 8  84441969.43646  20621551.508                    20621557.082
 119816046.745 7  93363258.849 6  22800230.594
 110481941.652 7  86089884.43946  21024001.906                    21024009.699
 11  7 27  1 39  0.0000000  0  9G12G05G25G04G27G09G02G17G10
 114736951.257 7  89405607.157 7  21833745.125
 119968370.966 7  93481938.179 7  22829208.148
 130466426.689 6 101662103.890 5  24826912.117
 110662676.153 8  86230776.15746  21058375.016                    21058383.254
 123520432.480 6  96249752.60544  23505165.680                    23505175.930
 121818350.268 7  94923399.11244  23181252.719                    23181261.754
 108352596.336 8  84430645.83646  20618786.242                    20618791.695
 119866464.644 7  93402545.516 7  22809824.898
 110451324.382 8  86066026.85546  21018175.797                    21018183.297
 11  7 27  1 39 30.0000000  0  9G12G05G25G04G27G09G02G17G10
 114664950.981 7  89349503.057 7  21820044.703
 119867166.556 7  93403077.671 7  22809950.172
 130362258.285 5 101580933.780 5  24807088.906
 110730715.106 8  86283793.51746  21071321.977                    21071330.016
 123581195.253 6  96297100.17244  23516728.375                    23516738.520
 121890998.246 7  94980007.88044  23195076.891                    23195086.543
 108338402.562 8  84419585.75446  20616085.313                    20616090.648
 119917020.034 7  93441939.327 6  22819445.281
 110421296.982 8  86042628.89646  21012461.938                    21012469.762
 11  7 27  1 40  0.0000000  0  9G12G05G25G04G27G09G02G17G10
 114593302.864 7  89293673.358 7  21806410.242
 119766137.699 7  93324353.989 7  22790724.750
 130258176.864 6 101499831.438 6  24787283.453
 110798995.584 8  86336999.07446  21084315.711                    21084323.938
 123642126.034 6  96344578.64644  23528323.109                    23528333.395
 121963934.121 7  95036840.98844  23208956.430                    23208965.680
 108324545.452 8  84408788.01146  20613448.453                    20613453.656
 119967713.115 7  93481440.390 6  22829092.313
 110391860.727 8  86019691.58146  21006859.930                    21006867.234
 11  7 27  1 40 30.0000000  0  9G12G05G25G04G27G09G02G17G10
 114522009.157 7  89238119.829 7  21792843.750
 119665287.426 7  93245769.432 7  22771533.430
 130154184.895 6 101418798.775 6  24767494.633
 110867515.673 8  86390391.33446  21097354.688                    21097362.988
 123703222.249 6  96392186.06143  23539948.938                    23539959.691
 122037154.588 7  95093895.86544  23222890.078                    23222898.859
 108311024.937 8  84398252.54946  20610875.570                    20610880.762
 120018544.753 7  93521049.443 7  22838765.398
 110363017.256 8  85997216.18546  21001371.461                    21001378.805
 11  7 27  1 41  0.0000000  0  9G12G05G25G04G27G09G02G17G10
 114451073.126 7  89182844.997 7  21779344.945
 119564619.464 7  93167326.927 7  22752376.969
 130050285.319 6 101337838.087 6  24747722.984
 110936273.541 8  86443968.87446  21110438.570                    21110446.707
 123764481.977 6  96439920.88344  23551605.977                    23551617.023
 122110656.639 7  95151170.15844  23236877.109                    23236886.770
 108297840.711 8  84387979.12346  20608366.898                    20608371.508
 120069515.417 7  93560766.826 6  22848464.359
 110334768.974 8  85975204.55646  20995995.938                    20996003.441
 11  7 27  1 41 30.0000000  0  9G12G05G25G04G27G09G02G17G10
 114380497.228 7  89127850.818 7  21765915.180
 119464136.540 7  93089028.655 7  22733255.625
 129946480.098 6 101256950.943 6  24727969.672
 111005266.476 8  86497729.59746  21123567.594                    21123575.367
 123825902.113 6  96487780.66343  23563294.922                    23563304.555
 122184436.601 6  95208660.99544  23250915.945                    23250926.711
 108284991.570 8  84377966.81446  20605921.445                    20605926.797
 120120625.699 7  93600592.990 6  22858190.898
 110307116.742 8  85953657.38746  20990733.680                    20990741.668
 11  7 27  1 42  0.0000000  0  9G12G05G25G04G27G09G02G17G10
 114310283.884 7  89073139.115 7  21752553.281
 119363841.147 7  93010876.452 6  22714170.281
 129842771.748 6 101176139.270 6  24708235.156
 111074492.437 8  86551671.89446  21136741.445                    21136748.848
 123887479.827 6  96535763.25043  23575011.930                    23575022.441
 122258490.985 7  95266365.64844  23265009.281                    23265018.887
 108272476.678 8  84368214.95846  20603539.898                    20603545.609
 120171876.195 7  93640528.406 6  22867943.336
 110280062.197 8  85932575.97046  20985585.453                    20985593.504
 11  7 27  1 42 30.0000000  0  9G12G05G25G04G27G09G02G17G10
 114240435.010 7  89018711.439 7  21739261.625
 119263736.377 7  92932872.814 7  22695120.008
 129739162.473 6 101095404.809 6  24688518.578
 111143948.662 8  86605793.62046  21149957.930                    21149966.258
 123949211.977 6  96583866.18743  23586759.789                    23586769.773
 122332816.380 7  95324281.48144  23279152.727                    23279162.496
 108260294.639 8  84358722.47746  20601221.914                    20601227.555
 120223267.101 7  93680573.268 6  22877722.563
 110253606.623 7  85911961.26446  20980551.391                    20980558.895
 11  7 27  1 43  0.0000000  0  9G12G05G25G04G27G09G02G17G10
 114170953.609 8  88964570.104 7  21726039.906
 119163825.308 7  92855020.121 7  22676108.227
 129635654.856 6 101014749.583 6  24668821.594
 111213633.328 8  86660093.33846  21163218.773                    21163226.383
 124011096.207 6  96632087.60543  23598536.516                    23598546.063
 122407409.536 7  95382405.97144  23293347.109                    23293356.422
 108248445.058 8  84349489.05646  20598966.734                    20598972.516
 120274799.064 7  93720727.994 6  22887528.359
 110227751.625 8  85891814.53446  20975630.961                    20975639.027
 11  7 27  1 43 30.0000000  0  9G12G05G25G04G27G09G02G17G10
 114101842.097 8  88910716.949 7  21712888.406
 119064111.118 7  92777320.818 7  22657132.703
 129532251.315 6 100934175.451 6  24649143.813
 111283544.269 8  86714569.39646  21176522.422                    21176530.531
 124073129.568 6  96680425.26343  23610340.680                    23610350.277
 122482266.975 7  95440736.38044  23307592.648                    23307601.809
 108236927.201 8  84340514.12146  20596775.336                    20596780.477
 120326472.624 7  93760993.092 7  22897362.008
 110202498.657 8  85872136.93146  20970825.273                    20970833.105
 11  7 27  1 44  0.0000000  0  9G12G05G25G04G27G09G02G17G10
 114033102.619 8  88857153.729 7  21699807.875
 118964596.380 7  92699776.933 7  22638196.219
 129428954.086 6 100853684.144 6  24629487.375
 111353678.878 8  86769219.74146  21189868.375                    21189876.379
 124135309.197 6  96728876.88344  23622172.992                    23622183.371
 122557384.897 7  95499269.78544  23321886.766                    23321896.977
 108225739.629 8  84331796.53046  20594646.141                    20594651.223
 120378288.406 7  93801368.984 7  22907222.109
 110177848.653 8  85852929.16946  20966134.891                    20966142.449
 11  7 27  1 44 30.0000000  0  9G12G05G25G04G27G09G02G17G10
 113964738.202 7  88803882.753 7  21686798.688
 118865284.612 7  92622391.237 7  22619297.695
 129325766.056 6 100773277.958 6  24609851.656
 111424035.272 8  86824042.90246  21203256.742                    21203264.563
 124197632.411 6  96777440.37243  23634033.063                    23634042.980
 122632760.414 7  95558003.87544  23336230.969                    23336240.398
 108214882.220 8  84323336.20946  20592580.156                    20592585.488
 120430246.893 7  93841856.111 7  22917109.320
 110153803.342 8  85834192.58646  20961559.258                    20961566.863
 11  7 27  1 45  0.0000000  0  9G12G05G25G04G27G09G02G17G10
 113896750.901 7  88750905.667 7  21673861.102
 118766178.395 7  92545165.665 7  22600438.547
 129222689.345 6 100692958.542 6  24590236.219
 111494611.088 8  86879037.03946  21216686.898                    21216694.488
 124260096.447 6  96826113.61344  23645919.781                    23645929.422
 122708389.790 7  95616935.81944  23350622.406                    23350631.426
 108204353.413 8  84315131.96446  20590576.250                    20590581.742
 120482348.258 7  93882454.544 7  22927024.086
 110130363.847 8  85815928.08446  20957098.406                    20957106.359
 11  7 27  1 45 30.0000000  0  9G12G05G25G04G27G09G02G17G10
 113829143.626 8  88698224.677 7  21660996.172
 118667281.038 7  92468102.878 7  22581618.477
 129119726.698 6 100612727.986 6  24570643.523
 111565404.251 8  86934200.53946  21230158.547                    21230166.227
 124322698.860 6  96874894.63643  23657832.789                    23657842.996
 122784269.923 7  95676063.13844  23365061.406                    23365071.055
 108194153.079 8  84307183.65746  20588635.336                    20588640.781
 120534593.344 7  93923164.995 6  22936966.000
 110107531.506 8  85798136.68346  20952753.500                    20952761.195
 11  7 27  1 46  0.0000000  0  9G12G05G25G04G27G09G02G17G10
 113761918.961 8  88645841.853 7  21648203.164
 118568595.267 7  92391204.945 7  22562839.320
 129016880.478 6 100532588.146 6  24551072.211
 111636412.602 8  86989531.72546  21243670.922                    21243679.648
 124385436.818 7  96923781.32244  23669771.430                    23669781.098
 122860397.376 7  95735383.17744  23379548.406                    23379558.051
 108184280.229 8  84299490.53146  20586756.328                    20586762.008
 120586982.613 7  93963987.803 7  22946934.867
 110085307.827 8  85780819.55346  20948524.797                    20948532.836
 11  7 27  1 46 30.0000000  0  9G12G05G25G04G27G09G02G17G10
 113695079.018 8  88593758.800 7  21635484.125
 118470124.032 7  92314474.182 6  22544100.922
 128914153.064 6 100452540.904 6  24531523.563
 111707633.723 8  87045028.70546  21257223.719                    21257231.680
 124448307.413 6  96972771.37744  23681734.328                    23681745.086
 122936768.708 7  95794893.24644  23394080.844                    23394091.160
 108174733.621 8  84292051.62846  20584939.789                    20584945.145
 120639516.579 6  94004923.336 7  22956931.586
 110063693.595 8  85763977.30546  20944411.656                    20944419.746
 11  7 27  1 47  0.0000000  0  9G12G05G25G04G27G09G02G17G10
 113628626.110 8  88541977.322 7  21622838.031
 118371870.356 7  92237912.940 7  22525403.539
 128811546.910 6 100372588.164 6  24511998.375
 111779065.306 8  87100689.66546  21270816.758                    21270825.262
 124511307.921 6  97021862.60043  23693723.859                    23693733.320
 123013380.010 7  95854590.29444  23408659.258                    23408669.719
 108165512.162 8  84284866.08246  20583185.242                    20583190.332
 120692195.691 7  94045971.991 7  22966957.109
 110042690.271 8  85747611.10546  20940414.828                    20940422.695
 11  7 27  1 47 30.0000000  0  9G12G05G25G04G27G09G02G17G10
 113562562.878 8  88490499.517 7  21610266.656
 118273837.131 7  92161523.519 7  22506748.703
 128709064.533 6 100292731.905 6  24492496.789
 111850705.330 8  87156513.07446  21284449.539                    21284457.473
 124574435.299 6  97071052.71044  23705736.492                    23705746.336
 123090227.909 7  95914471.70544  23423284.336                    23423293.246
 108156615.054 8  84277933.28846  20581492.273                    20581497.383
 120745020.527 7  94087134.171 6  22977008.898
 110022298.784 8  85731721.65746  20936534.625                    20936542.105
 11  7 27  1 48  0.0000000  0  9G12G05G25G04G27G09G02G17G10
 113496891.627 7  88439327.159 7  21597770.289
 118176027.421 7  92085308.239 7  22488136.047
 128606708.357 6 100212973.909 6  24473019.164
 111922551.607 8  87212497.19246  21298120.828                    21298129.383
 124637686.867 6  97120339.62243  23717772.172                    23717782.570
 123167309.076 7  95974534.90044  23437951.531                    23437961.527
 108148041.358 8  84271252.50146  20579860.570                    20579865.641
 120797991.752 7  94128410.455 6  22987089.195
 110002520.554 8  85716310.07446  20932770.742                    20932778.156
 11  7 27  1 48 30.0000000  0  9G12G05G25G04G27G09G02G17G10
 113431615.072 7  88388462.340 7  21585348.852
 118078444.218 7  92009269.448 7  22469566.266
 128504481.288 6 100133316.529 6  24453566.031
 111994602.263 8  87268640.55946  21311831.891                    21311840.305
 124701060.307 6  97169721.51543  23729832.016                    23729842.410
 123244620.531 7  96034777.55044  23452663.398                    23452673.492
 108139790.707 8  84264823.44046  20578290.430                    20578295.621
 120851109.519 7  94169800.929 7  22997197.125
 109983357.111 8  85701377.54046  20929124.156                    20929131.664
 11  7 27  1 49  0.0000000  0  9G12G05G25G04G27G09G02G17G10
 113366735.605 7  88337906.962 7  21573002.133
 117981090.832 7  91933409.743 7  22451041.008
 128402385.699 6 100053761.601 6  24434137.570
 112066854.941 8  87324941.33746  21325581.078                    21325589.090
 124764552.680 6  97219196.04943  23741914.359                    23741924.516
 123322158.755 7  96095196.86944  23467418.203                    23467428.414
 108131862.130 8  84258645.34946  20576781.578                    20576786.898
 120904374.522 7  94211306.086 6  23007333.148
 109964809.251 8  85686924.67346  20925594.359                    20925602.148
 11  7 27  1 49 30.0000000  0  9G12G05G25G04G27G09G02G17G10
 113302255.337 8  88287662.639 7  21560732.227
 117883969.517 7  91857730.856 7  22432559.242
 128300423.641 7  99974310.720 6  24414734.461
 112139307.081 8  87381397.54946  21339368.719                    21339376.645
 124828160.847 6  97268760.82843  23754019.313                    23754029.063
 123399919.994 7  96155789.97944  23482216.555                    23482226.035
 108124253.865 8  84252716.85146  20575333.852                    20575338.941
 120957787.110 7  94252926.249 6  23017497.258
 109946877.565 8  85672951.96446  20922182.188                    20922189.977
 11  7 27  1 50  0.0000000  0  9G12G05G25G04G27G09G02G17G10
 113238176.549 8  88237731.165 7  21548538.078
 117787083.505 7  91782235.321 7  22414122.453
 128198597.801 7  99894965.981 6  24395358.242
 112211956.721 8  87438007.68045  21353193.516                    21353201.137
 124891882.076 6  97318413.68943  23766144.828                    23766154.867
 123477900.613 7  96216554.05144  23497055.633                    23497065.184
 108116965.302 8  84247037.46246  20573946.898                    20573952.195
 121011347.958 7  94294661.938 6  23027689.539
 109929563.291 8  85659460.33846  20918887.406                    20918895.348
 11  7 27  1 50 30.0000000  0  9G12G05G25G04G27G09G02G17G10
 113174501.952 7  88188114.599 7  21536421.625
 117690435.749 7  91706925.466 7  22395730.641
 128096910.704 7  99815729.321 6  24376007.445
 112284801.757 8  87494770.03845  21367055.414                    21367062.977
 124955713.603 6  97368152.53243  23778291.242                    23778301.281
 123556097.632 7  96277486.74844  23511935.820                    23511945.531
 108109995.273 8  84241606.26946  20572620.461                    20572625.723
 121065057.368 7  94336513.406 6  23037910.344
 109912867.593 8  85646450.72346  20915710.555                    20915717.891
 11  7 27  1 51  0.0000000  0  9G12G05G25G04G27G09G02G17G10
 113111234.113 8  88138815.046 7  21524381.781
 117594029.420 7  91631803.707 7  22377385.266
 127995365.159 6  99736602.972 6  24356684.625
 112357840.212 8  87551683.12045  21380953.891                    21380961.578
 125019652.871 6  97417975.32543  23790458.109                    23790468.051
 123634507.595 6  96338585.34644  23526857.305                    23526866.121
 108103343.526 8  84236423.09946  20571354.805                    20571360.395
 121118915.968 7  94378481.120 6  23048158.984
 109896791.463 8  85633923.89746  20912651.211                    20912658.406
 11  7 27  1 51 30.0000000  0  9G12G05G25G04G27G09G02G17G10
 113048375.740 7  88089834.526 7  21512420.430
 117497867.282 7  91556872.262 7  22359085.875
 127893963.661 6  99657588.865 6  24337388.086
 112431070.019 8  87608745.31945  21394889.500                    21394897.313
 125083697.168 6  97467879.98143  23802645.039                    23802655.734
 123713127.095 6  96399847.23844  23541817.766                    23541827.828
 108097008.974 8  84231487.09746  20570149.398                    20570154.898
 121172924.426 7  94420565.607 6  23058436.281
 109881335.992 8  85621880.69246  20909710.461                    20909717.953
 11  7 27  1 52  0.0000000  0  9G12G05G25G04G27G09G02G17G10
 112985928.738 8  88041174.561 7  21500536.750
 117401952.379 7  91482133.437 7  22340833.086
 127792708.860 6  99578689.088 6  24318119.914
 112504488.876 8  87665954.82346  21408860.344                    21408868.172
 125147843.641 6  97517864.19943  23814852.195                    23814862.852
 123791952.534 7  96461269.61544  23556817.727                    23556827.633
 108090990.606 8  84226797.48146  20569004.117                    20569009.219
 121227083.026 7  94462767.053 6  23068742.617
 109866502.036 8  85610321.78646  20906887.180                    20906894.938
 11  7 27  1 52 30.0000000  0  9G12G05G25G04G27G09G02G17G10
 112923895.323 7  87992836.887 7  21488732.008
 117306287.689 7  91407589.563 7  22322629.438
 127691602.880 6  99499905.276 6  24298879.922
 112578094.665 8  87723309.97746  21422866.867                    21422875.199
 125212089.345 6  97567925.70643  23827077.563                    23827088.895
 123870980.326 7  96522849.62844  23571857.375                    23571866.543
 108085287.314 8  84222353.38046  20567918.781                    20567924.078
 121281392.471 7  94505086.077 6  23079076.961
 109852290.397 8  85599247.79546  20904183.000                    20904190.438
 11  7 27  1 53  0.0000000  0  9G12G05G25G04G27G09G02G17G10
 112862277.863 8  87944823.299 7  21477006.578
 117210875.971 7  91333242.839 7  22304472.633
 127590648.331 6  99421239.492 6  24279668.172
 112651885.053 8  87780808.97845  21436908.844                    21436916.871
 125276431.471 6  97618062.39643  23839322.117                    23839332.410
 123950207.273 7  96584584.89844  23586933.531                    23586942.211
 108079897.634 8  84218153.64646  20566893.336                    20566898.395
 121335852.838 7  94547522.688 6  23089441.352
 109838701.725 8  85588659.23646  20901597.055                    20901604.770
 11  7 27  1 53 30.0000000  0  9G12G05G25G04G27G09G02G17G10
 112801079.063 8  87897135.956 7  21465361.219
 117115720.547 7  91259095.813 7  22286365.484
 127489848.194 6  99342693.941 6  24260487.625
 112725858.376 8  87838450.53145  21450985.234                    21450993.754
 125340867.404 6  97668272.18243  23851583.078                    23851594.227
 124029630.065 7  96646472.73044  23602046.445                    23602056.461
 108074821.590 8  84214198.30146  20565926.977                    20565932.590
 121390465.048 7  94590077.632 6  23099832.945
 109825737.191 8  85578557.00846  20899129.859                    20899137.938
 11  7 27  1 54  0.0000000  0  9G12G05G25G04G27G09G02G17G10
 112740301.400 8  87849776.752 7  21453795.289
 117020824.015 7  91185150.546 7  22268307.328
 127389204.803 7  99264270.512 5  24241335.953
 112800012.244 8  87896232.77446  21465096.547                    21465104.422
 125405394.403 6  97718552.86643  23863862.484                    23863873.285
 124109245.316 7  96708510.54043  23617196.914                    23617206.184
 108070057.586 8  84210486.10746  20565020.820                    20565026.145
 121445229.285 7  94632750.972 6  23110254.117
 109813397.487 8  85568941.67646  20896781.680                    20896789.680
 11  7 27  1 54 30.0000000  0  9G12G05G25G04G27G09G02G17G10
 112679946.628 8  87802747.049 7  21442310.344
 116926189.341 7  91111409.312 7  22250298.969
 127288720.546 7  99185971.087 5  24222214.078
 112874344.602 8  87954154.10145  21479241.297                    21479249.676
 125470009.565 6  97768902.25043  23876158.859                    23876168.957
 124189049.099 7  96770695.29343  23632383.063                    23632392.625
 108065604.453 8  84207016.14246  20564173.492                    20564178.523
 121500145.983 7  94675543.170 6  23120704.820
 109801683.137 8  85559813.63946  20894552.414                    20894560.195
 11  7 27  1 55  0.0000000  0  9G12G05G25G04G27G09G02G17G10
 112620017.249 8  87756048.865 7  21430905.945
 116831819.492 7  91037874.399 7  22232340.883
 127188398.112 7  99107797.727 5  24203123.531
 112948853.197 8  88012212.74945  21493419.680                    21493427.500
 125534710.078 6  97819318.18043  23888470.516                    23888480.875
 124269038.109 7  96833024.36844  23647604.508                    23647614.555
 108061461.288 8  84203787.71746  20563384.867                    20563390.320
 121555215.799 7  94718454.704 6  23131184.492
 109790595.069 8  85551173.59946  20892442.727                    20892449.855
 11  7 27  1 55 30.0000000  0  9G12G05G25G04G27G09G02G17G10
 112560515.901 8  87709684.187 7  21419583.445
 116737717.589 7  90964548.329 7  22214433.563
 127088240.253 7  99029752.573 5  24184064.055
 113023536.287 8  88070407.36745  21507631.516                    21507639.664
 125599493.418 6  97869798.67843  23900799.461                    23900809.473
 124349209.197 7  96895495.34444  23662860.703                    23662869.879
 108057627.503 8  84200800.36646  20562654.867                    20562660.023
 121610439.136 7  94761485.824 6  23141692.914
 109780134.029 8  85543022.14846  20890451.602                    20890458.977
 11  7 27  1 56  0.0000000  0  9G12G05G25G04G27G09G02G17G10
 112501444.599 8  87663654.613 7  21408342.852
 116643885.985 8  90891432.818 7  22196578.891
 126988249.194 7  98951837.456 6  24165036.016
 113098391.454 8  88128736.06446  21521876.195                    21521884.109
 125664356.551 6  97920341.28143  23913142.000                    23913152.535
 124429558.516 7  96958105.18444  23678149.703                    23678160.453
 108054101.462 8  84198052.81746  20561984.492                    20561989.523
 121665816.469 7  94804637.001 6  23152230.633
 109770300.348 8  85535359.56746  20888580.805                    20888588.367
 11  7 27  1 56 30.0000000  0  9G12G05G25G04G27G09G02G17G10
 112442805.811 8  87617962.064 7  21397183.539
 116550328.078 7  90818530.587 7  22178775.016
 126888427.746 7  98874054.588 6  24146040.852
 113173416.702 8  88187197.30245  21536153.219                    21536160.793
 125729296.824 6  97970944.02443  23925500.234                    23925509.965
 124510083.116 7  97020851.59644  23693474.133                    23693483.293
 108050882.564 8  84195544.59446  20561371.531                    20561376.910
 121721348.336 7  94847908.594 6  23162797.891
 109761095.041 8  85528186.61246  20886828.758                    20886836.246
 11  7 27  1 57  0.0000000  0  9G12G05G25G04G27G09G02G17G10
 112384602.027 8  87572608.473 7  21386107.961
 116457046.829 7  90745843.954 7  22161023.953
 126788778.650 7  98796406.023 6  24127078.102
 113248610.253 8  88245789.68045  21550461.922                    21550470.500
 125794311.604 6  98021604.86943  23937871.680                    23937882.523
 124590779.399 7  97083731.78644  23708829.570                    23708839.836
 108047969.744 8  84193274.88046  20560817.289                    20560822.727
 121777035.158 7  94891300.912 6  23173394.570
 109752519.087 8  85521504.08646  20885196.859                    20885204.633
 11  7 27  1 57 30.0000000  0  9G12G05G25G04G27G09G02G17G10
 112326835.035 8  87527595.240 7  21375115.398
 116364044.930 7  90673375.002 7  22143326.070
 126689304.176 7  98718893.505 6  24108148.828
 113323969.782 8  88304511.39345  21564802.164                    21564810.238
 125859398.024 6  98072321.48842  23950258.031                    23950268.340
 124671643.764 7  97146742.98644  23724217.469                    23724227.629
 108045361.806 8  84191242.73546  20560321.055                    20560326.586
 121832877.293 7  94934814.248 6  23184021.648
 109744572.658 8  85515312.06146  20883685.008                    20883692.293
 11  7 27  1 58  0.0000000  0  9G12G05G25G04G27G09G02G17G10
 112269507.428 8  87482924.341 7  21364206.469
 116271325.595 7  90601126.223 7  22125682.250
 126590007.216 6  98641519.334 6  24089252.367
 113399493.351 8  88363360.91545  21579173.805                    21579182.160
 125924553.195 6  98123091.70342  23962655.047                    23962666.094
 124752673.033 6  97209882.66044  23739636.734                    23739647.313
 108043057.939 8  84189447.52646  20559882.820                    20559888.293
 121888875.406 6  94978449.143 6  23194677.547
 109737256.419 8  85509611.11946  20882292.648                    20882299.977
 11  7 27  1 58 30.0000000  0  9G12G05G25G04G27G09G02G17G10
 112212621.507 8  87438597.660 7  21353381.336
 116178891.518 7  90529099.734 7  22108092.727
 126490890.213 6  98564285.425 6  24070390.961
 113475178.897 8  88422336.67545  21593576.523                    21593584.441
 125989774.577 6  98173913.48943  23975066.758                    23975077.707
 124833863.918 6  97273148.26943  23755086.578                    23755097.508
 108041057.254 8  84187888.56046  20559502.016                    20559507.414
 121945030.072 6  95022206.003 6  23205363.711
 109730570.778 8  85504401.54146  20881020.195                    20881027.996
 11  7 27  1 59  0.0000000  0  9G12G05G25G04G27G09G02G17G10
 112156179.328 8  87394616.725 7  21342640.688
 116086745.697 7  90457297.846 7  22090557.781
 126391955.894 6  98487193.826 6  24051564.539
 113551024.491 8  88481437.12845  21608009.531                    21608017.102
 126055059.235 5  98224784.59843  23987490.875                    23987500.980
 124915212.695 6  97336536.88244  23770567.141                    23770577.090
 108039358.421 8  84186564.82046  20559178.773                    20559184.008
 122001341.461 7  95066085.042 6  23216079.773
 109724516.462 8  85499683.90146  20879868.164                    20879875.641
 11  7 27  1 59 30.0000000  0  9G12G05G25G04G27G09G02G17G10
 112100183.286 8  87350983.444 7  21331985.055
 115994890.836 7  90385722.666 7  22073078.539
 126293206.746 7  98410246.512 6  24032773.547
 113627027.851 8  88540660.52545  21622472.273                    21622479.941
 126120404.487 5  98275702.87842  23999924.648                    23999935.844
 124996715.932 6  97400045.88044  23786077.203                    23786087.438
 108037960.311 8  84185475.40446  20558912.859                    20558918.301
 122057810.125 7  95110086.627 6  23226824.289
 109719093.860 7  85495458.51646  20878835.695                    20878843.535
 11  7 27  2  0  0.0000000  0  9G12G05G25G04G27G09G02G17G10
 112044635.584 8  87307699.525 7  21321414.867
 115903329.998 7  90314376.640 7  22055654.781
 126194645.543 7  98333445.634 6  24014017.930
 113703187.430 7  88600005.65445  21636964.836                    21636972.547
 126185807.76815  98326666.39152  24012370.164                    24012381.934
 125078370.616 6  97463672.88244  23801615.477                    23801625.711
 108036862.321 8  84184619.84446  20558703.539                    20558709.465
 122114436.557 7  95154211.152 6  23237600.531
 109714303.524 8  85491725.80546  20877924.359                    20877931.941
 11  7 27  2  0 30.0000000  0  9G12G05G25G04G27G09G02G17G10
 111989538.409 8  87264766.640 7  21310930.109
 115812065.970 7  90243261.866 7  22038288.070
 126096274.866 7  98256793.204 6  23995298.883
 113779500.749 8  88659470.57245  21651486.758                    21651494.574
 126251266.03815  98377672.70053  24024827.680                    24024838.078
 125160173.056 7  97527415.02944  23817182.031                    23817191.613
 108036063.116 7  84183997.11346  20558551.445                    20558556.867
 122171220.968 7  95198458.793 6  23248405.813
 109710145.696 7  85488485.95646  20877132.898                    20877140.938
 11  7 27  2  1  0.0000000  0  9G12G05G25G04G27G09G02G17G10
 111934894.269 8  87222186.793 7  21300531.281
 115721101.908 7  90172380.816 7  22020977.992
 125998097.420 7  98180291.345 6  23976616.094
 113855966.263 8  88719054.07545  21666037.750                    21666045.512
 126316776.783 6  98428720.01643  24037293.492                    24037304.172
 125242120.118 7  97591269.84344  23832776.219                    23832785.371
 108035561.902 8  84183606.57446  20558455.867                    20558461.605
 122228164.115 6  95242830.058 6  23259241.727
 109706620.944 7  85485739.41246  20876462.328                    20876469.699
 11  7 27  2  1 30.0000000  0  9G12G05G25G04G27G09G02G17G10
 111880705.048 8  87179961.410 7  21290219.250
 115630440.209 7  90101735.388 7  22003725.711
 125900115.492 7  98103941.817 6  23957971.039
 113932581.401 7  88778754.18945  21680617.367                    21680624.883
 126382336.993 6  98479805.82943  24049769.625                    24049781.172
 125324207.763 7  97655234.21544  23848396.828                    23848407.137
 108035357.080 8  84183446.98846  20558417.102                    20558422.383
 122285266.289 6  95287325.277 6  23270107.938
 109703729.560 7  85483486.40146  20875912.164                    20875919.953
 11  7 27  2  2  0.0000000  0  9G12G05G25G04G27G09G02G17G10
 111826972.666 8  87138092.023 7  21279994.727
 115540084.010 7  90031328.018 7  21986531.602
 125802331.804 7  98027746.771 6  23939363.438
 114009344.527 7  88838569.61445  21695224.391                    21695233.016
 126447943.795 6  98530927.98443  24062254.211                    24062264.477
 125406432.606 7  97719305.51444  23864043.633                    23864053.414
 108035447.678 8  84183517.60446  20558434.617                    20558439.906
 122342527.953 7  95331944.765 7  23281004.664
 109701471.615 7  85481726.97046  20875482.711                    20875490.250
 11  7 27  2  2 30.0000000  0  9G12G05G25G04G27G09G02G17G10
 111773699.894 8  87096580.772 7  21269857.336
 115450036.312 7  89961161.049 7  21969395.648
 125704749.298 7  97951708.508 6  23920793.617
 114086253.849 7  88898498.95345  21709860.031                    21709868.102
 126513594.865 6  98582084.60243  24074746.422                    24074757.355
 125488791.998 7  97783481.65743  23879715.984                    23879725.699
 108035833.111 8  84183817.95846  20558507.828                    20558513.203
 122399949.343 7  95376688.730 7  23291932.180
 109699848.043 8  85480461.86346  20875174.125                    20875181.105
 11  7 27  2  3  0.0000000  0  9G12G05G25G04G27G09G02G17G10
 111720888.843 8  87055429.302 7  21259807.734
 115360299.503 7  89891236.323 7  21952319.406
 125607370.225 7  97875828.833 6  23902262.461
 114163307.123 7  88958540.46745  21724522.523                    21724531.254
 126579287.044 6  98633273.27243  24087248.016                    24087258.348
 125571282.405 6  97847759.80643  23895413.664                    23895423.652
 108036511.806 8  84184346.82246  20558636.758                    20558642.137
 122457531.001 7  95421557.555 6  23302889.625
 109698858.625 7  85479690.92346  20874985.438                    20874993.223
 11  7 27  2  3 30.0000000  0  9G12G05G25G04G27G09G02G17G10
 111668540.995 8  87014638.754 7  21249846.602
 115270876.938 7  89821556.481 7  21935302.578
 125510197.464 7  97800109.858 6  23883771.516
 114240502.405 7  89018692.61545  21739212.625                    21739220.379
 126645017.878 5  98684492.04843  24099756.570                    24099767.039
 125653900.006 7  97912137.11643  23911135.391                    23911145.227
 108037482.994 8  84185103.60646  20558821.766                    20558827.004
 122515273.539 6  95466551.733 6  23313876.664
 109698503.781 8  85479414.43446  20874917.531                    20874925.461
 11  7 27  2  4  0.0000000  0  9G12G05G25G04G27G09G02G17G10
 111616658.819 8  86974211.098 7  21239973.305
 115181771.227 7  89752123.511 7  21918345.883
 125413233.554 7  97724553.615 6  23865319.758
 114317837.828 7  89078953.97845  21753929.383                    21753937.273
 126710784.588 5  98735738.73942  24112270.547                    24112282.355
 125736641.712 7  97976611.10443  23926880.602                    23926890.762
 108038745.520 8  84186087.40846  20559061.719                    20559067.227
 122573177.170 6  95511671.473 6  23324895.938
 109698783.485 7  85479632.39946  20874971.789                    20874978.859
 11  7 27  2  4 30.0000000  0  9G12G05G25G04G27G09G02G17G10
 111565244.543 8  86934148.025 7  21230189.602
 115092984.956 7  89682939.479 7  21901450.672
 125316481.054 7  97649162.116 6  23846908.367
 114395311.291 7  89139322.92245  21768671.656                    21768680.156
 126776584.526 5  98787011.35543  24124793.297                    24124803.488
 125819504.042 6  98041179.10143  23942648.680                    23942658.930
 108040297.989 8  84187297.13646  20559356.992                    20559362.504
 122631242.274 7  95556917.011 6  23335945.102
 109699697.854 7  85480344.93046  20875145.086                    20875153.367
 11  7 27  2  5  0.0000000  0  9G12G05G25G04G27G09G02G17G10
 111514300.264 8  86894451.216 7  21220495.078
 115004521.004 7  89614006.596 7  21884616.602
 125219942.622 7  97573937.436 6  23828537.375
 114472920.965 7  89199797.98745  21783440.500                    21783448.160
 126842414.583 5  98838307.40443  24137320.391                    24137331.047
 125902483.600 6  98105838.45243  23958438.898                    23958450.117
 108042139.337 8  84188731.96946  20559707.656                    20559712.980
 122689469.343 7  95602288.732 6  23347025.328
 109701247.353 8  85481552.36546  20875439.516                    20875447.355
 11  7 27  2  5 30.0000000  0  9G12G05G25G04G27G09G02G17G10
 111463828.233 8  86855122.378 7  21210890.094
 114916382.724 7  89545327.489 7  21867844.641
 125123621.224 7  97498881.827 6  23810208.664
 114550665.111 7  89260377.83945  21798234.383                    21798242.688
 126908272.607 5  98889625.27643  24149851.859                    24149863.430
 125985577.087 6  98170586.55644  23974251.148                    23974261.684
 108044269.181 8  84190391.60246  20560113.031                    20560118.293
 122747859.016 7  95647787.161 6  23358136.586
 109703432.076 8  85483254.75246  20875855.531                    20875863.031
 11  7 27  2  6  0.0000000  0  9G12G05G25G04G27G09G02G17G10
 111413830.234 8  86816162.887 7  21201375.914
 114828572.736 7  89476904.179 7  21851134.461
 125027519.260 7  97423997.219 6  23791920.469
 114628541.795 7  89321060.97845  21813054.453                    21813062.098
 126974155.651 5  98940962.66543  24162388.984                    24162400.164
 126068781.248 7  98235420.90444  23990083.797                    23990094.609
 108046686.014 8  84192274.87946  20560572.859                    20560578.129
 122806411.276 7  95693412.288 6  23369278.922
 109706252.126 8  85485452.20646  20876392.125                    20876399.363
 11  7 27  2  6 30.0000000  0  9G12G05G25G04G27G09G02G17G10
 111364308.594 8  86777574.640 7  21191952.828
 114741093.774 7  89408738.831 7  21834488.063
 124931639.474 7  97349285.714 6  23773675.414
 114706548.974 7  89381845.79145  21827898.719                    21827906.598
 127040060.984 5  98992317.37142  24174930.898                    24174941.977
 126152092.675 6  98300338.77644  24005938.594                    24005948.984
 108049388.695 8  84194380.88646  20561087.016                    20561092.285
 122865126.768 7  95739164.612 6  23380452.273
 109709707.395 8  85488144.64346  20877049.906                    20877057.121
 11  7 27  2  7  0.0000000  0  9G12G05G25G04G27G09G02G17G10
 111315265.356 8  86739359.158 7  21182620.047
 114653948.490 7  89340833.454 7  21817904.422
 124835984.578 7  97274749.459 6  23755472.633
 114784685.012 7  89442731.02645  21842767.109                    21842775.277
 127105985.984 4  99043687.37642  24187473.875                    24187488.039
 126235507.840 6  98365337.54143  24021811.758                    24021822.387
 108052376.042 8  84196708.69546  20561655.594                    20561661.074
 122924005.941 7  95785044.497 6  23391656.477
 109713798.067 8  85491332.20746  20877828.008                    20877835.695
 11  7 27  2  7 30.0000000  0  9G12G05G25G04G27G09G02G17G10
 111266702.511 8  86701517.999 7  21173379.000
 114567139.859 7  89273190.440 7  21801385.789
 124740557.144 7  97200390.461 6  23737313.492
 114862947.644 7  89503714.88645  21857659.891                    21857668.203
 127171927.59915  99095070.31052  24200022.813                    24200035.855
 126319023.411 6  98430414.55744  24037703.664                    24037714.758
 108055647.092 8  84199257.57646  20562278.375                    20562283.434
 122983049.335 7  95831052.345 6  23402891.844
 109718524.131 7  85495014.86646  20878727.258                    20878735.051
 11  7 27  2  8  0.0000000  0  9G12G05G25G04G27G09G02G17G10
 111218621.789 8  86664052.531 7  21164229.445
 114480670.867 7  89205812.037 7  21784930.898
 124645359.822 7  97126210.757 6  23719197.594
 114941334.966 8  89564795.93145  21872576.953                    21872584.203
 127237882.98815  99146464.10552  24212575.031                    24212586.434
 126402636.356 6  98495567.39044  24053616.133                    24053625.891
 108059200.733 8  84202026.66246  20562954.023                    20562959.621
 123042257.178 7  95877188.324 6  23414158.953
 109723885.303 8  85499192.42646  20879747.859                    20879755.461
 11  7 27  2  8 30.0000000  0  9G12G05G25G04G27G09G02G17G10
 111171025.600 8  86626964.621 7  21155172.070
 114394543.715 7  89138700.058 7  21768541.398
 124550395.285 7  97052212.427 6  23701126.750
 115019845.451 8  89625972.91745  21887516.234                    21887524.371
 127303849.99815  99197866.84852  24225127.453                    24225140.117
 126486343.014 6  98560793.25843  24069544.484                    24069554.570
 108063035.794 8  84205015.04646  20563684.023                    20563689.219
 123101629.810 7  95923452.700 6  23425457.180
 109729881.983 8  85503865.18646  20880888.672                    20880896.113
 11  7 27  2  9  0.0000000  0  9G12G05G25G04G27G09G02G17G10
 111123916.465 8  86590256.250 7  21146207.352
 114308761.690 7  89071856.969 7  21752217.555
 124455666.399 7  96978397.688 6  23683100.500
 115098477.203 7  89687244.41245  21902479.852                    21902488.074
 127369825.87015                  24237684.188
 126570140.230 6  98626089.70443  24085490.422                    24085500.535
 108067151.537 8  84208222.13546  20564467.297                    20564472.879
 123161167.765 7  95969845.896 6  23436786.766
 109736514.074 8  85509033.05446  20882150.641                    20882157.738
 11  7 27  2  9 30.0000000  0  9G12G05G25G04G27G09G02G17G10
 111077294.924 8  86553927.794 7  21137335.711
 114223327.047 8  89005284.592 7  21735960.305
 124361175.413 7  96904768.378 6  23665119.055
 115177228.192 7  89748608.82445  21917466.344                    21917473.484
 127435807.43615                  24250239.039
 126654024.534 7  98691454.06443  24101452.258                    24101463.234
 108071546.310 8  84211646.65646  20565303.523                    20565309.055
 123220871.026 7  96016367.927 6  23448147.414
 109743781.141 8  85514695.72246  20883533.758                    20883541.012
 11  7 27  2 10  0.0000000  0  9G12G05G25G04G27G09G02G17G10
 111031163.845 8  86517981.530 7  21128557.086
 114138242.823 7  88938985.256 7  21719769.070
 124266925.293 7  96831326.710 6  23647184.180
 115256096.603 8  89810064.74045  21932473.836                    21932481.859
 127501792.74214                  24262793.914
 126737992.694 7  98756883.76943  24117431.773                    24117442.074
 108076219.171 8  84215287.88546  20566192.500                    20566198.129
 123280740.403 7  96063019.374 6  23459541.180
 109751683.155 7  85520853.15446  20885037.633                    20885044.461
 11  7 27  2 10 30.0000000  0  9G12G05G25G04G27G09G02G17G10
 110985524.602 8  86482418.518 7  21119872.359
 114053511.589 8  88872960.946 7  21703645.055
 124172918.346 7  96758074.530 6  23629294.852
 115335080.344 8  89871610.50845  21947504.344                    21947511.789
 127567777.89315                  24275352.188
 126822041.184 7  98822376.02743  24133426.094                    24133435.367
 108081168.509 8  84219144.52346  20567134.617                    20567139.863
 123340775.607 7  96109800.047 6  23470964.953
 109760219.467 7  85527504.85046  20886661.656                    20886669.578
 11  7 27  2 11  0.0000000  0  9G12G05G25G04G27G09G02G17G10
 110940379.831 8  86447240.820 7  21111281.406
 113969136.452 7  88807214.152 7  21687588.625
 124079157.551 7  96685014.195 6  23611453.023
 115414178.046 7  89933245.08945  21962555.766                    21962563.508
 127633760.96616  99454967.97252  24287908.250                    24287920.082
 126906166.801 6  98887928.45743  24149434.305                    24149444.242
 108086393.912 8  84223216.29046  20568128.648                    20568134.176
 123400977.427 7  96156710.556 6  23482421.445
 109769390.598 8  85534651.19646  20888406.766                    20888414.723
 11  7 27  2 11 30.0000000  0  9G12G05G25G04G27G09G02G17G10
 110895731.226 8  86412449.734 7  21102785.070
 113885120.028 8  88741746.877 7  21671601.484
 123985645.629 7  96612147.726 6  23593657.992
 115493387.693 7  89994966.88745  21977629.047                    21977636.824
 127699739.238 6  99506379.53242  24300463.938                    24300475.754
 126990366.336 6  98953538.43543  24165456.477                    24165466.605
 108091894.201 8  84227502.23346  20569175.555                    20569180.809
 123461346.233 7  96203751.166 6  23493909.039
 109779195.895 8  85542291.70346  20890272.953                    20890279.984
 11  7 27  2 12  0.0000000  0  9G12G05G25G04G27G09G02G17G10
 110851580.375 8  86378046.484 7  21094383.344
 113801464.741 8  88676560.985 7  21655681.867
 123892385.017 7  96539477.086 6  23575911.930
 115572707.325 7  90056774.39045  21992722.883                    21992730.820
 127765709.848 6  99557785.11842  24313017.078                    24313029.734
 127074636.516 6  99019203.44343  24181493.680                    24181502.969
 108097667.792 8  84232001.14046  20570274.547                    20570279.297
 123521882.136 7  96250922.016 6  23505428.656
 109789635.050 8  85550426.13046  20892258.984                    20892267.035
 11  7 27  2 12 30.0000000  0  9G12G05G25G04G27G09G02G17G10
 110807929.744 8  86344033.051 7  21086076.859
 113718173.442 8  88611658.732 7  21639832.141
 123799378.537 7  96467004.495 6  23558212.805
 115652135.305 7  90118666.31645  22007837.617                    22007845.539
 127831670.382 6  99609182.85542  24325570.148                    24325581.590
 127158973.896 6  99084920.92743  24197542.469                    24197551.223
 108103713.990 8  84236712.48146  20571424.688                    20571429.684
 123582585.951 7  96298223.735 6  23516979.938
 109800708.107 8  85559054.49346  20894366.109                    20894373.941
 11  7 27  2 13  0.0000000  0  9G12G05G25G04G27G09G02G17G10
 110764780.828 8  86310410.558 7  21077865.664
 113635248.899 8  88547042.246 7  21624052.289
 123706628.814 7  96394732.030 6  23540562.867
 115731670.001 7  90180641.40845  22022972.063                    22022980.688
 127897618.108 5                  24338119.039
 127243375.233 6  99150688.08443  24213603.141                    24213613.371
 108110031.455 8  84241635.18646  20572626.836                    20572632.207
 123643457.689 7  96345656.256 6  23528563.789
 109812414.535 8  85568176.39746  20896594.313                    20896601.539
 11  7 27  2 13 30.0000000  0  9G12G05G25G04G27G09G02G17G10
 110722135.913 8  86277180.792 7  21069751.367
 113552693.798 8  88482713.649 7  21608342.555
 123614138.773 7  96322661.850 6  23522963.258
 115811309.329 7  90242698.03445  22038127.289                    22038135.711
 127963550.332 6                  24350666.156
 127327837.348 6  99216502.68143  24229675.453                    24229685.535
 108116619.202 8  84246768.52646  20573880.352                    20573885.461
 123704497.858 7  96393220.003 6  23540179.102
 109824753.932 8  85577791.53746  20898942.422                    20898949.695
 11  7 27  2 14  0.0000000  0  9G12G05G25G04G27G09G02G17G10
 110679995.856 8  86244344.413 7  21061731.852
 113470510.414 8  88418674.708 7  21592703.430
 123521910.600 7  96250795.715 6  23505413.156
 115891051.761 7  90304834.99445  22053301.391                    22053309.527
 128029464.185 6                  24363209.164
 127412356.650 5  99282361.85443  24245759.508                    24245769.000
 108123475.714 8  84252111.28446  20575185.172                    20575190.383
 123765706.565 6  96440915.137 6  23551826.914
 109837725.764 8  85587899.47046  20901410.695                    20901418.453
 11  7 27  2 14 30.0000000  0  9G12G05G25G04G27G09G02G17G10
 110638363.256 8  86211903.471 7  21053809.398
 113388702.022 8  88354927.949 7  21577136.125
 123429947.335 7  96179136.035 6  23487912.922
 115970895.363 7  90367050.79345  22068495.438                    22068502.879
 128095357.242 5                  24375748.086
 127496930.186 6  99348263.27043  24261852.734                    24261863.363
 108130600.176 8  84257662.83246  20576540.984                    20576546.629
 123827084.397 7  96488741.984 6  23563505.859
 109851330.177 8  85598500.32846  20903999.742                    20904007.207
 11  7 27  2 15  0.0000000  0  9G12G05G25G04G27G09G02G17G10
 110597239.935 7  86179859.385 7  21045983.898
 113307271.071 8  88291475.312 7  21561640.305
 123338251.616 7  96107684.840 7  23470463.961
 116050838.517 7  90429344.15545  22083707.758                    22083715.785
 128161226.870 5                  24388281.633
 127581554.568 6  99414204.25343  24277956.273                    24277967.422
 108137991.401 8  84263422.25346  20577947.633                    20577952.504
 123888631.479 7  96536700.727 6  23575218.320
 109865566.230 8  85609593.38146  20906708.594                    20906715.949
 11  7 27  2 15 30.0000000  0  9G12G05G25G04G27G09G02G17G10
 110556627.604 7  86148213.452 7  21038255.781
 113226220.115 8  88228318.778 7  21546216.664
 123246826.273 7  96036444.342 6  23453065.711
 116130879.533 7  90491713.79345  22098939.070                    22098947.383
 128227070.631 5                  24400812.273
 127666226.690 6  99480182.45943  24294069.789                    24294079.629
 108145648.513 8  84269388.86246  20579404.641                    20579409.859
 123950348.619 6  96584792.002 6  23586962.922
 109880433.860 8  85621178.56046  20909537.773                    20909545.508
 11  7 27  2 16  0.0000000  0  9G12G05G25G04G27G09G02G17G10
 110516528.195 8  86116967.200 7  21030625.367
 113145552.166 8  88165460.672 7  21530865.898
 123155673.953 7  95965416.577 6  23435720.273
 116211016.949 7  90554158.53445  22114188.703                    22114196.691
 128292885.563 5                  24413336.875
 127750943.337 6  99546195.34743  24310190.313                    24310200.996
 108153570.345 8  84275561.74846  20580912.109                    20580917.027
 124012235.875 7  96633015.840 7  23598739.828
 109895932.637 8  85633255.54646  20912486.852                    20912494.453
 11  7 27  2 16 30.0000000  0  9G12G05G25G04G27G09G02G17G10
 110476943.184 8  86086121.791 7  21023092.203
 113065269.606 7  88102902.900 7  21515588.383
 123064797.257 7  95894603.601 6  23418426.758
 116291248.554 7  90616676.67045  22129456.586                    22129464.199
 128358669.049 5                  24425855.047
 127835700.937 6  99612240.18843  24326318.930                    24326329.297
 108161755.342 8  84281939.69046  20582469.508                    20582474.680
 124074293.315 7  96681372.306 6  23610548.773
 109912061.748 8  85645823.70546  20915556.547                    20915564.297
 11  7 27  2 17  0.0000000  0  9G12G05G25G04G27G09G02G17G10
 110437874.300 8  86055678.539 7  21015657.188
 112985375.010 8  88040647.402 7  21500384.891
 122974198.710 7  95824007.383 6  23401185.859
 116371572.938 7  90679267.11245  22144741.719                    22144749.668
 128424418.444 5                  24438366.523
 127920496.568 6  99678314.62243  24342456.258                    24342465.813
 108170202.766 8  84288522.12746  20584076.797                    20584081.805
 124136521.272 6  96729861.595 6  23622390.672
 109928820.640 8  85658882.61046  20918745.273                    20918753.102
 11  7 27  2 17 30.0000000  0  9G12G05G25G04G27G09G02G17G10
 110399323.462 7  86025638.987 7  21008321.625
 112905871.137 8  87978696.395 7  21485256.172
 122883881.151 7  95753630.123 6  23383999.273
 116451988.247 7  90741928.39145  22160044.102                    22160051.723
 128490131.025 5                  24450873.102
 128005326.664 6  99744415.94543  24358598.391                    24358608.664
 108178911.377 8  84295308.08846  20585734.453                    20585739.238
 124198920.407 6  96778484.270 6  23634264.570
 109946208.828 8  85672431.86446  20922054.125                    20922061.883
 11  7 27  2 18  0.0000000  0  9G12G05G25G04G27G09G02G17G10
 110361292.281 8  85996004.346 7  21001084.688
 112826760.486 8  87917051.778 7  21470201.414
 122793847.196 7  95683473.856 6  23366865.789
 116532492.879 7  90804659.27345  22175363.695                    22175371.918
 128555804.246 5                  24463369.602
 128090188.263 6  99810541.78844  24374745.789                    24374757.246
 108187880.022 8  84302296.66146  20587440.766                    20587445.781
 124261490.701 6  96827240.339 6  23646170.922
 109964225.615 8  85686470.95646  20925482.195                    20925490.461
 11  7 27  2 18 30.0000000  0  9G12G05G25G04G27G09G02G17G10
 110323782.372 8  85966775.875 7  20993946.453
 112748045.592 7  87855715.541 7  21455222.984
 122704099.465 7  95613540.639 6  23349787.828
 116613085.012 7  90867458.34245  22190699.719                    22190708.035
 128621435.63014                  24475856.008
 128175078.031 6  99876689.58643  24390900.805                    24390911.070
 108197107.394 8  84309486.85546  20589196.406                    20589201.797
 124324232.497 6  96876130.066 6  23658110.438
 109982870.328 8  85700999.32946  20929030.516                    20929037.773
 11  7 27  2 19  0.0000000  0  9G12G05G25G04G27G09G02G17G10
 110286795.572 7  85937955.028 7  20986907.805
 112669729.033 8  87794689.685 7  21440319.680
 122614640.882 7  95543832.747 6  23332764.133
 116693763.280 7  90930324.53445  22206052.672                    22206060.723
 128687022.69915                  24488338.391
 128259992.869 6  99942856.95943  24407059.727                    24407069.828
 108206592.634 8  84316877.96446  20591001.688                    20591006.789
 124387146.241 6  96925153.754 6  23670082.586
 110002142.382 8  85716016.53146  20932698.000                    20932705.594
 11  7 27  2 19 30.0000000  0  9G12G05G25G04G27G09G02G17G10
 110250333.201 8  85909542.822 7  20979969.789
 112591812.964 8  87733975.930 7  21425492.273
 122525473.460 7  95474351.707 6  23315796.586
 116774525.296 7  90993255.95245  22221420.813                    22221429.063
 128752562.327 5                  24500810.844
 128344929.098 7 100009040.98943  24423222.891                    24423232.734
 108216333.889 8  84324468.58546  20592855.617                    20592860.344
 124450231.761 6  96974311.293 6  23682087.289
 110022040.634 8  85731521.68346  20936484.516                    20936491.578
 11  7 27  2 20  0.0000000  0  9G12G05G25G04G27G09G02G17G10
 110214397.172 8  85881540.772 7  20973131.000
 112514300.442 8  87673576.579 7  21410742.109
 122436600.480 7  95405100.090 6  23298884.906
 116855370.165 7  91056251.95345  22236805.555                    22236813.156
 128818052.43214                  24513272.070
 128429884.216 6 100075239.75043  24439388.969                    24439399.219
 108226330.932 8  84332258.52446  20594757.734                    20594762.672
 124513489.883 6  97023603.362 6  23694125.070
 110042564.646 7  85747514.44846  20940390.016                    20940397.516
 11  7 27  2 20 30.0000000  0  9G12G05G25G29G04G09G02G17G10
 110178989.221 8  85853950.189 7  20966393.109
 112437194.206 8  87613493.850 7  21396069.086
 122348024.545 7  95336079.955 6  23282028.844
 132933132.99015 103584031.60915  25296250.641
 116936296.136 7  91119311.14345  22252205.320                    22252213.371
 128514854.873 6 100141450.55443  24455558.289                    24455568.180
 108236582.229 8  84340246.57546  20596708.258                    20596713.566
 124576920.648 6  97073029.940 6  23706196.031
 110063713.773 8  85763994.31146  20944414.555                    20944421.906
 11  7 27  2 21  0.0000000  0  9G12G05G25G29G04G09G02G17G10
 110144110.957 8  85826772.341 7  20959756.109
 112360496.472 8  87553729.433 7  21381474.430
 122259748.274 7  95267293.314 6  23265230.477
 132856182.788 5 103524070.459 5  25281607.477
 117017301.570 7  91182432.25345  22267619.891                    22267627.973
 128599837.773 6 100207670.93443  24471729.297                    24471740.797
 108247086.693 8  84348431.90546  20598707.141                    20598712.262
 124640524.351 6  97122591.245 6  23718298.711
 110085487.528 8  85780960.89146  20948558.055                    20948565.453
 11  7 27  2 21 30.0000000  0  9G12G05G25G29G04G09G02G17G10
 110109763.624 8  85800008.208 7  20953220.125
 112284209.750 8  87494285.256 7  21366957.453
 122171774.258 7  95198742.219 6  23248489.422
 132779151.570 5 103464046.117 5  25266949.211
 117098384.612 7  91245613.83645  22283049.461                    22283057.910
 128684829.693 6 100273898.35143  24487903.336                    24487913.543
 108257842.980 8  84356813.45346  20600754.242                    20600759.578
 124704301.238 7  97172287.555 6  23730435.328
 110107884.997 8  85798413.48646  20952820.180                    20952827.172
 11  7 27  2 22  0.0000000  0  9G12G05G25G29G04G09G02G17G10
 110075948.689 8  85773658.932 7  20946784.922
 112208336.556 8  87435163.334 7  21352519.172
 122084105.177 7  95130428.721 6  23231806.648
 132702038.962 5 103403958.337 6  25252275.602
 117179543.843 7  91308854.75845  22298493.547                    22298502.047
 128769827.377 6 100340130.22043  24504078.766                    24504088.684
 108268850.100 8  84365390.46746  20602848.797                    20602853.871
 124768251.590 7  97222119.025 6  23742604.805
 110130905.424 7  85816351.49646  20957200.805                    20957208.441
 11  7 27  2 22 30.0000000  0  9G12G05G25G29G04G09G02G17G10
 110042667.962 8  85747725.913 7  20940451.992
 112132879.447 8  87376365.638 7  21338159.820
 121996743.685 7  95062354.865 6  23215183.070
 132624403.58615 103343807.23315  25237585.992
 117260777.599 7  91372153.76645  22313951.938                    22313960.207
 128854827.826 5 100406364.29042  24520252.180                    24520263.719
 108280106.883 8  84374162.00746  20604991.172                    20604996.020
 124832375.628 7  97272085.788 6  23754807.148
 110154547.685 7  85834774.06146  20961699.930                    20961707.313
 11  7 27  2 23  0.0000000  0  9G12G05G25G29G04G09G02G17G10
 110009922.632 7  85722210.089 7  20934220.781
 112057840.761 8  87317893.981 7  21323880.648
 121909692.283 7  94994522.682 6  23198617.445
 132547128.32315 103283593.06115  25222880.781
 117342084.106 7  91435509.47745  22329423.906                    22329432.102
 128939827.838 5 100472597.96343  24536428.859                    24536438.656
 108291611.970 8  84383127.02746  20607180.117                    20607185.285
 124896673.377 6  97322187.915 6  23767042.789
 110178810.703 7  85853680.34846  20966316.492                    20966324.043
 11  7 27  2 23 30.0000000  0  9G12G05G25G29G04G09G02G17G10
 109977714.553 8  85697112.889 7  20928091.789
 111983222.852 8  87259750.192 7  21309681.273
 121822953.719 7  94926934.234 6  23182110.680
 132469772.752 5 103223315.953 4  25208160.313
 117423461.796 7  91498920.63345  22344909.406                    22344917.406
 129024824.319 6 100538828.90243  24552603.164                    24552612.984
 108303364.346 8  84392284.75346  20609416.578                    20609421.531
 124961145.214 6  97372425.713 6  23779311.008
 110203693.614 7  85873069.64546  20971051.789                    20971058.754
 11  7 27  2 24  0.0000000  0 10G12G05G25G29G04G27G09G02G17G10
 109946045.558 8  85672435.761 7  20922064.813
 111909027.872 8  87201935.952 7  21295562.438
 121736530.496 7  94859591.510 6  23165665.070
 132392336.445 6 103162976.055 4  25193425.094
 117504909.190 7  91562386.12245  22360408.328                    22360416.344
 129339859.83915                  24612572.984
 129109813.699 6 100605054.30543  24568776.641                    24568786.754
 108315362.840 8  84401634.24846  20611699.891                    20611704.953
 125025791.123 7  97422799.129 6  23791613.023
 110229195.136 7  85892940.98846  20975904.563                    20975912.008
 11  7 27  2 24 30.0000000  0  9G12G05G25G29G04G09G02G17G10
 109914916.507 8  85648179.373 7  20916141.320
 111835259.326 8  87144454.004 7  21281524.898
 121650425.753 7  94792496.992 6  23149280.289
 132314819.992 6 103102573.724 4  25178673.938
 117586424.951 7  91625904.85745  22375920.617                    22375928.152
 129194793.218 6 100671272.07243  24584947.203                    24584957.754
 108327606.541 8  84411174.82746  20614029.523                    20614034.766
 125090611.729 7  97473308.669 6  23803947.648
 110255315.122 7  85913294.23946  20980875.031                    20980882.660
 11  7 27  2 25  0.0000000  0  9G12G05G25G29G04G09G02G17G10
 109884328.703 8  85624344.739 7  20910321.070
 111761919.055 8  87087305.783 7  21267568.461
 121564641.740 7  94725652.369 6  23132956.055
 132237223.308 5 103042108.837 4  25163908.492
 117668007.231 7  91689475.44345  22391445.281                    22391453.246
 129279759.869 5 100737479.82843  24601115.477                    24601125.641
 108340094.016 8  84420905.34346  20616405.766                    20616410.879
 125155607.057 7  97523954.368 6  23816316.203
 110282052.284 7  85934128.41746  20985962.719                    20985970.234
 11  7 27  2 25 30.0000000  0  9G12G05G25G29G04G09G02G17G10
 109854283.768 8  85600933.113 7  20904603.797
 111689009.225 8  87030492.966 7  21253694.328
 121479181.159 7  94659059.761 6  23116693.063
 132159546.698 5 102981581.658 5  25149126.680
 117749654.620 7  91753096.77445  22406982.219                    22406990.949
 129364710.297 6 100803674.91443  24617280.711                    24617291.262
 108352824.021 8  84430824.85246  20618828.500                    20618833.754
 125220777.275 7  97574736.380 6  23828718.219
 110309405.249 8  85955442.45046  20991167.836                    20991175.184
 11  7 27  2 26  0.0000000  0  9G12G05G25G29G04G09G02G17G10
 109824783.307 8  85577945.756 7  20898989.758
 111616532.242 8  86974017.447 7  21239902.547
 121394046.642 7  94592721.237 6  23100492.680
 132081790.45714 102920992.41414  25134328.477
 117831365.686 7  91816767.70545  22422531.469                    22422539.707
 129449641.562 6 100869855.03743  24633443.227                    24633453.234
 108365795.625 8  84440932.60946  20621296.508                    20621301.438
 125286122.717 7  97625654.915 6  23841152.477
 110337372.901 8  85977235.43146  20996490.133                    20996497.645
 11  7 27  2 26 30.0000000  0  9G12G05G25G04G27G09G02G17G10
 109795828.162 8  85555383.324 7  20893479.773
 111544490.300 8  86917880.903 7  21226193.086
 121309240.500 7  94526638.576 6  23084354.531
 117913138.395 7  91880486.68245  22438092.352                    22438100.180
 129663706.94815                  24674199.430
 129534549.867 6 100936017.31644  24649601.344                    24649610.867
 108379007.213 8  84451227.36546  20623811.063                    20623816.023
 125351643.365 7  97676709.954 6  23853620.117
 110365954.241 7  85999506.63246  21001928.625                    21001935.781
 11  7 27  2 27  0.0000000  0  9G12G05G25G04G27G09G02G17G10
 109767419.916 8  85533247.036 7  20888073.938
 111472886.361 8  86862085.651 7  21212567.000
 121224765.724 7  94460814.128 7  23068279.406
 117994971.560 7  91944252.75645  22453664.438                    22453672.438
 129728230.293 5                  24686477.297
 129619433.113 6 101002160.04444  24665753.305                    24665764.004
 108392458.444 8  84461708.85546  20626370.789                    20626375.426
 125417339.626 7  97727901.836 6  23866122.117
 110395148.387 8  86022255.33246  21007484.211                    21007491.789
 11  7 27  2 27 30.0000000  0  9G12G05G25G04G27G09G02G17G10
 109739560.399 7  85511538.353 7  20882772.422
 111401722.812 8  86806633.579 7  21199025.305
 121140625.118 7  94395250.051 6  23052268.070
 118076863.912 7  92008064.96145  22469248.031                    22469256.363
 129792665.661 4                  24698739.188
 129704288.076 6 101068280.74444  24681900.883                    24681911.398
 108406147.895 8  84472375.97746  20628975.477                    20628980.547
 125483211.455 7  97779230.559 6  23878657.016
 110424954.549 7  86045480.93046  21013156.195                    21013163.684
 11  7 27  2 28  0.0000000  0  9G12G05G25G04G27G09G02G17G10
 109712250.534 8  85490257.964 7  20877575.500
 111331001.634 8  86751526.198 7  21185567.422
 121056821.175 7  94329948.322 6  23036320.484
 118158813.839 7  92071922.02144  22484842.484                    22484851.277
 129857010.46614                  24710982.969
 129789111.457 6 101134376.84244  24698042.875                    24698052.676
 108420074.408 8  84483227.81846  20631625.641                    20631630.734
 125549259.428 6  97830696.504 6  23891225.508
 110455371.158 7  86069182.19146  21018944.195                    21018951.625
 11  7 27  2 28 30.0000000  0  9G12G05G25G04G27G09G02G17G10
 109685492.008 8  85469407.179 7  20872483.469
 111260725.200 8  86696765.386 7  21172194.273
 120973356.459 7  94264910.884 6  23020437.648
 118240819.891 7  92135822.81745  22500448.219                    22500456.621
 129921262.19115                  24723210.297
 129873900.039 7 101200445.80843  24714177.195                    24714187.547
 108434236.654 8  84494263.33446  20634320.914                    20634325.840
 125615483.561 6  97882299.712 6  23903827.891
 110486396.907 7  86093358.12546  21024848.242                    21024854.996
 11  7 27  2 29  0.0000000  0  9G12G05G25G04G27G09G02G17G10
 109659285.508 8  85448986.556 7  20867496.563
 111190895.872 8  86642352.958 7  21158906.445
 120890233.634 7  94200139.866 6  23004620.070
 118322880.514 7  92199766.15345  22516063.719                    22516072.336
 129985418.11214                  24735418.445
 129958650.938 6 101266485.43543  24730304.484                    24730315.672
 108448633.485 8  84505481.66146  20637060.328                    20637065.230
 125681883.940 6  97934040.280 6  23916462.734
 110518030.784 7  86118007.90446  21030867.922                    21030875.387
 11  7 27  2 29 30.0000000  0  9G12G05G25G04G27G09G02G17G10
 109633632.801 8  85428997.471 7  20862615.102
 111121516.111 8  86588290.844 7  21145703.617
 120807455.423 7  94135637.378 6  22988868.203
 118404994.304 7  92263750.92045  22531688.758                    22531697.324
 130049479.17315                  24747609.609
 130043361.414 6 101332493.51843  24746424.227                    24746434.836
 108463264.002 8  84516882.08046  20639843.852                    20639849.180
 125748460.831 6  97985918.333 6  23929132.836
 110550271.820 7  86143130.80146  21037003.219                    21037010.797
 11  7 27  2 30  0.0000000  0  9G12G05G25G04G27G09G02G17G10
 109608534.267 8  85409440.189 7  20857838.875
 111052587.387 8  86534580.184 7  21132587.016
 120725023.900 7  94071404.985 6  22973181.555
 118487159.394 7  92327775.64344  22547325.172                    22547333.133
 130113436.14715                  24759779.430
 130128027.926 5 101398467.40043  24762535.469                    24762546.051
 108478126.596 8  84528463.32846  20642672.297                    20642677.383
 125815213.942 6  98037933.738 6  23941834.680
 110583117.918 7  86168725.17646  21043253.492                    21043260.551
 11  7 27  2 30 30.0000000  0 10G12G05G25G29G04G27G09G02G17G10
 109583991.744 8  85390316.171 7  20853168.578
 110984112.982 8  86481223.551 7  21119556.320
 120642942.206 7  94007445.243 7  22957562.023
 131378954.54415                  25000562.172
 118569374.877 7  92391839.64945  22562969.961                    22562977.988
 130177290.390 5                  24771931.617
 130212647.912 5 101464404.95343  24778638.313                    24778649.527
 108493220.684 8  84540224.96946  20645544.703                    20645549.852
 125882143.906 6  98090086.948 6  23954571.469
 110616568.433 7  86194790.53546  21049618.797                    21049625.941
 11  7 27  2 31  0.0000000  0 10G12G05G25G29G04G27G09G02G17G10
 109560006.523 8  85371626.398 7  20848604.578
 110916094.853 8  86428222.450 7  21106613.203
 120561212.964 7  93943760.100 7  22942009.547
 131300413.499 5                  24985591.438
 118651639.323 7  92455941.81745  22578624.547                    22578632.430
 130241039.424 4                  24784062.148
 130297218.042 5 101530303.64642  24794731.094                    24794743.020
 108508545.118 8  84552166.08946  20648461.250                    20648465.934
 125949250.934 6  98142378.101 6  23967341.391
 110650621.868 7  86221325.69546  21056099.117                    21056105.934
 11  7 27  2 31 30.0000000  0 10G12G05G25G29G04G27G09G02G17G10
 109536580.102 8  85353372.092 7  20844146.461
 110848535.621 8  86375578.933 7  21093757.211
 120479839.039 7  93880351.844 6  22926524.273
 131221795.965 5                  24970621.906
 118733951.613 7  92520081.25544  22594287.914                    22594296.051
 130304681.11415                  24796173.313
 130381735.711 5 101596161.46943  24810815.336                    24810826.266
 108524098.748 8  84564285.81646  20651420.539                    20651425.875
 126016535.545 6  98194807.645 6  23980144.992
 110685277.682 7  86248330.23546  21062694.242                    21062701.215
 11  7 27  2 32  0.0000000  0  9G12G05G25G04G27G09G02G17G10
 109513712.555 8  85335553.243 7  20839794.953
 110781436.269 8  86323293.746 7  21080988.383
 120398821.843 7  93817221.570 7  22911107.406
 118816309.038 7  92584255.85044  22609960.211                    22609968.086
 130368211.92115                  24808261.281
 130466196.631 5 101661975.15042  24826886.695                    24826898.387
 108539879.782 8  84576582.74846  20654423.758                    20654428.719
 126083996.544 6  98247374.680 6  23992983.250
 110720533.027 7  86275801.95745  21069402.836                    21069410.555
 11  7 27  2 32 30.0000000  0  9G12G05G25G04G27G09G02G17G10
 109491406.152 8  85318171.638 7  20835550.109
 110714800.442 8  86271369.762 7  21068308.469
 120318165.367 7  93754372.384 7  22895759.023
 118898711.854 7  92648465.85944  22625640.805                    22625648.797
 130431630.777 5                  24820330.625
 130550599.61215 101727743.56052  24842949.359                    24842960.293
 108555887.956 8  84589056.66046  20657469.883                    20657474.742
 126151635.382 6  98300080.256 6  24005853.523
 110756387.683 7  86303740.65645  21076225.734                    21076232.305
 11  7 27  2 33  0.0000000  0  8G12G05G25G04G09G02G17G10
 109469660.981 8  85301227.370 7  20831412.391
 110648629.245 8  86219807.843 7  21055716.109
 120237871.238 7  93691805.531 6  22880479.578
 118981157.478 7  92712709.19844  22641329.383                    22641337.844
 130634940.560 6 101793463.79142  24858998.320                    24859009.516
 108572121.410 8  84601706.11946  20660559.117                    20660564.297
 126219451.392 7  98352923.874 6  24018759.063
 110792839.461 7  86332144.65546  21083161.992                    21083169.551
 11  7 27  2 33 30.0000000  0  9G12G05G25G29G04G09G02G17G10
 109448477.583 8  85284720.876 7  20827381.070
 110582924.080 8  86168609.049 7  21043212.977
 120157941.380 7  93629522.518 6  22865269.344
 130906269.81815 102004754.97615  24910592.586
 119063643.840 7  92776984.30844  22657026.086                    22657034.352
 130719215.667 6 101859132.62943  24875035.555                    24875046.703
 108588578.395 8  84614529.74946  20663690.656                    20663695.879
 126287443.884 6  98405905.042 6  24031697.852
 110829886.367 7  86361012.38446  21090212.273                    21090219.645
 11  7 27  2 34  0.0000000  0  9G12G05G25G29G04G09G02G17G10
 109427859.214 8  85268654.613 7  20823457.398
 110517689.487 8  86117776.945 7  21030799.195
 120078380.508 7  93567527.046 7  22850129.148
 130827272.09514 101943198.41515  24895558.039
 119146172.083 7  92841292.01644  22672730.234                    22672738.500
 130803424.052 6 101924749.55543  24891059.398                    24891070.465
 108605259.774 8  84627528.23046  20666865.188                    20666869.875
 126355615.133 7  98459025.524 6  24044669.906
 110867528.984 7  86390344.31446  21097375.180                    21097382.496
 11  7 27  2 34 30.0000000  0  9G12G05G25G29G04G09G02G17G10
 109407806.076 8  85253028.824 7  20819641.609
 110452926.643 8  86067312.424 7  21018475.273
 119999190.253 7  93505820.399 6  22835060.352
 130748199.93715 101881583.90915  24880511.320
 119228739.578 7  92905630.31244  22688442.773                    22688450.703
 130887562.140 6 101990311.61743  24907070.672                    24907081.609
 108622163.756 8  84640700.19946  20670081.883                    20670087.160
 126423964.312 7  98512284.598 6  24057676.906
 110905764.808 8  86420138.48646  21104651.297                    21104657.992
 11  7 27  2 35  0.0000000  0  9G12G05G25G29G04G09G02G17G10
 109388318.475 8  85237843.708 7  20815932.969
 110388637.298 8  86017216.879 7  21006241.047
 119920372.871 7  93444404.248 7  22820061.414
 130669053.140 5 101819911.195 5  24865450.453
 119311344.749 7  92969997.98044  22704161.961                    22704170.074
 130971626.339 6 102055816.14442  24923067.828                    24923079.020
 108639288.871 8  84654044.45546  20673340.156                    20673345.617
 126492491.203 7  98565682.192 6  24070716.773
 110944592.044 7  86450393.49346  21112039.711                    21112047.434
 11  7 27  2 35 30.0000000  0  9G12G05G25G29G04G09G02G17G10
 109369397.407 8  85223100.031 7  20812332.375
 110324823.493 8  85967491.882 7  20994097.969
 119841930.753 7  93383280.570 7  22805134.523
 130589831.81315 101758180.34715  24850373.563
 119393986.006 7  93034393.77044  22719888.188                    22719897.098
 131055613.880 5 102121260.82143  24939050.586                    24939061.367
 108656633.760 8  84667559.98546  20676641.188                    20676646.328
 126561195.760 6  98619218.244 6  24083791.320
 110984009.132 7  86481108.11146  21119540.570                    21119547.918
 11  7 27  2 36  0.0000000  0  9G12G05G25G29G04G09G02G17G10
 109351044.061 8  85208798.758 7  20808839.602
 110261487.422 8  85918139.141 7  20982045.195
 119763866.634 7  93322451.422 7  22790279.289
 130510536.425 5 101696391.803 5  24835284.391
 119476662.547 7  93098817.05044  22735621.406                    22735629.609
 131139521.904 6 102186643.61643  24955017.305                    24955028.359
 108674197.350 8  84681245.91546  20679983.289                    20679988.551
 126630078.429 6  98672893.052 6  24096898.969
 111024014.647 7  86512281.26246  21127153.563                    21127160.379
 11  7 27  2 36 30.0000000  0  9G12G05G25G29G04G09G02G17G10
 109333259.700 8  85194940.829 7  20805455.508
 110198631.027 8  85869160.167 7  20970084.563
 119686183.155 7  93261918.891 7  22775496.898
 130431167.687 5 101634546.136 5  24820179.406
 119559372.879 7  93163266.67144  22751360.297                    22751368.336
 131223347.692 5 102251962.36543  24970969.414                    24970980.004
 108691978.846 8  84695101.65446  20683367.016                    20683371.871
 126699139.264 6  98726706.718 5  24110040.625
 111064607.162 7  86543911.81045  21134877.820                    21134884.727
 11  7 27  2 37  0.0000000  0 10G12G05G25G29G04G27G09G02G17G10
 109316044.272 8  85181526.226 7  20802179.820
 110136256.171 8  85820556.409 7  20958214.680
 119608882.280 7  93201684.471 7  22760787.313
 130351725.60014 101572643.22715  24805061.938
 119642115.222 7  93227741.23444  22767106.000                    22767113.227
 130996932.31615                  24927902.141
 131307087.705 6 102317214.20043  24986904.242                    24986916.051
 108709976.527 8  84709125.84446  20686791.938                    20686797.184
 126768377.930 6  98780658.951 5  24123216.008
 111105784.512 8  86575998.07146  21142713.609                    21142720.711
 11  7 27  2 37 30.0000000  0 10G12G05G25G29G04G27G09G02G17G10
 109299399.647 8  85168556.411 7  20799012.289
 110074365.355 8  85772329.849 7  20946437.305
 119531967.168 7  93141750.621 7  22746150.727
 130272211.088 5 101510683.896 5  24789933.281
 119724888.889 7  93292240.20344  22782856.883                    22782864.656
 131059091.095 5                  24939732.328
 131390739.891 6 102382397.63543  25002824.195                    25002833.934
 108728189.863 8  84723318.07946  20690257.898                    20690263.098
 126837794.667 6  98834749.917 5  24136425.477
 111147545.668 7  86608539.26146  21150660.719                    21150667.840
 11  7 27  2 38  0.0000000  0 10G12G05G25G29G04G27G09G02G17G10
 109283326.308 8  85156031.755 7  20795953.414
 110012960.739 8  85724482.138 7  20934751.984
 119455440.170 7  93082119.258 7  22731587.766
 130192624.183 5 101448668.150 5  24774787.430
 119807692.512 7  93356762.50744  22798614.141                    22798622.199
 131121111.039 4                  24951532.164
 131474301.093 6 102447510.14543  25018724.016                    25018735.172
 108746617.617 8  84737677.37946  20693764.523                    20693769.801
 126907389.491 6  98888979.684 5  24149669.344
 111189888.646 7  86641533.81346  21158718.516                    21158725.152
 11  7 27  2 38 30.0000000  0 10G12G05G25G29G04G27G09G02G17G10
 109267824.727 8  85143952.646 7  20793003.859
 109952043.498 8  85677014.201 7  20923160.141
 119379303.485 7  93022791.987 7  22717099.758
 130112965.044 5 101386596.093 5  24759626.609
 119890524.477 7  93421306.91144  22814376.289                    22814384.219
 131182989.28014                  24963308.438
 131557767.907 5 102512549.07342  25034606.570                    25034618.191
 108765258.206 8  84752202.53846  20697311.508                    20697316.520
 126977162.468 6  98943348.237 5  24162946.813
 111232811.839 7  86674980.47646  21166885.938                    21166892.887
 11  7 27  2 39  0.0000000  0 10G12G05G25G29G04G27G09G02G17G10
 109252896.757 8  85132320.475 7  20790162.945
 109891616.749 8  85629928.458 7  20911660.867
 119303560.362 7  92963771.388 7  22702686.438
 130033235.070 6 101324468.862 5  24744457.203
 119973384.167 7  93485872.91144  22830144.328                    22830151.742
 131244724.41014                  24975055.477
 131641138.263 5 102577512.85242  25050471.656                    25050483.457
 108784111.640 8  84766893.55646  20700899.539                    20700904.754
 127047114.078 6  98997856.001 5  24176257.547
 111276314.251 8  86708878.48646  21175164.172                    21175171.484
 11  7 27  2 39 30.0000000  0 10G12G05G25G29G04G27G09G02G17G10
 109238542.612 8  85121135.444 7  20787431.516
 109831681.548 8  85583225.741 7  20900255.805
 119228212.812 7  92905059.034 7  22688347.883
 129953434.197 6 101262286.487 5  24729269.852
 120056269.993 7  93550459.28344  22845916.758                    22845924.379
 131306313.42914                  24986777.867
 131724408.639 5 102642398.81142  25066318.219                    25066329.727
 108803176.079 8  84781748.98546  20704527.031                    20704532.039
 127117244.093 6  99052502.790 5  24189602.484
 111320393.417 8  86743225.91545  21183552.180                    21183559.637
 11  7 27  2 40  0.0000000  0 10G12G05G25G29G04G27G09G02G17G10
 109224762.987 8  85110398.085 7  20784809.563
 109772240.141 8  85536907.777 7  20888944.422
 119153263.393 7  92846656.949 7  22674085.063
 129873562.490 6 101200048.917 5  24714070.688
 120139180.655 7  93615064.98844  22861694.023                    22861702.367
 131367754.14115                  24998468.547
 131807576.949 5 102707205.10042  25082143.578                    25082157.078
 108822450.212 8  84796767.81746  20708194.672                    20708200.055
 127187552.592 6  99107288.559 5  24202982.180
 111365047.787 7  86778021.56146  21192049.555                    21192056.906
 11  7 27  2 40 30.0000000  0  9G12G05G25G29G04G09G02G17G10
 109211558.618 8  85100108.989 7  20782296.563
 109713294.724 8  85490976.319 7  20877727.672
 119078714.522 7  92788566.994 6  22659898.766
 129793620.849 5 101137756.690 5  24698858.844
 120222114.884 7  93679689.04344  22877475.961                    22877484.625
 131890640.004 6 102771929.44852  25097950.000                    25097963.070
 108841933.420 8  84811949.56346  20711902.570                    20711907.465
 127258039.28016  99162213.19515  24216395.852
 111410275.536 8  86813263.97245  21200655.805                    21200663.258
 11  7 27  2 41  0.0000000  0  9G12G05G25G29G04G09G02G17G10
 109198930.100 8  85090268.610 7  20779893.305
 109654846.696 8  85445432.447 8  20866605.156
 119004568.463 7  92730790.900 7  22645789.125
 129713609.543 5 101075410.200 5  24683633.539
 120305071.408 7  93744330.47244  22893261.875                    22893270.141
 131973594.494 5 102836569.23242  25113737.375                    25113748.969
 108861624.204 8  84827293.04446  20715649.375                    20715654.629
 127328703.980 5  99217276.646 5  24229842.305
 111456074.857 8  86848951.77446  21209371.758                    21209378.578
 11  7 27  2 41 30.0000000  0  9G12G05G25G29G04G09G02G17G10
 109186878.006 7  85080877.380 7  20777599.930
 109596897.889 8  85400277.575 7  20855577.641
 118930827.549 7  92673330.540 7  22631756.867
 129633528.512 6 101013009.528 5  24668394.547
 120388048.896 7  93808988.24544  22909051.836                    22909059.883
 132056437.601 6 102901122.21742  25129502.227                    25129512.926
 108881521.252 8  84842797.25546  20719435.563                    20719440.676
 127399546.86714  99272478.90814  24243317.156
 111502443.539 7  86885083.25246  21218194.773                    21218202.629
 11  7 27  2 42  0.0000000  0  9G12G05G25G29G04G09G02G17G10
 109175403.728 8  85071936.395 7  20775416.445
 109539450.591 8  85355513.484 7  20844645.977
 118857494.952 7  92616188.309 7  22617802.648
 129553379.209 6 100950555.574 5  24653142.992
 120471046.514 7  93873661.68744  22924846.156                    22924853.777
 132139167.267 6 102965586.74942  25145244.195                    25145255.309
 108901624.354 8  84858462.02346  20723261.453                    20723265.961
 127470568.26515  99327820.17714  24256837.320
 111549380.546 7  86921657.55945  21227126.688                    21227134.332
 11  7 27  2 42 30.0000000  0  8G12G05G25G29G04G09G02G10
 109164507.093 8  85063445.527 7  20773342.891
 109482506.184 8  85311141.256 7  20833809.719
 118784572.393 7  92559365.634 7  22603925.336
 129473161.493 5 100888048.332 5  24637877.883
 120554062.725 7  93938349.63544  22940643.891                    22940650.777
 132221779.868 6 103029960.09143  25160964.953                    25160977.207
 108921931.602 8  84874285.88246  20727125.547                    20727130.465
 111596883.309 7  86958672.72145  21236166.461                    21236173.117
 11  7 27  2 43  0.0000000  0  8G12G05G25G29G04G09G02G10
 109154189.343 8  85055405.747 8  20771379.297
 109426066.603 8  85267162.388 7  20823069.602
 118712062.497 7  92502864.498 7  22590127.328
 129392875.841 6 100825488.160 5  24622600.508
 120637096.369 7  94003051.15044  22956444.844                    22956452.500
 132304272.800 6 103094240.17942  25176663.328                    25176675.113
 108942442.099 8  84890268.10346  20731028.688                    20731033.496
 111644950.340 7  86996127.55846  21245313.359                    21245320.270
 11  7 27  2 43 30.0000000  0  9G12G05G25G29G04G09G02G17G10
 109144450.934 8  85047817.394 7  20769526.469
 109370133.885 8  85223578.489 7  20812426.102
 118639967.940 7  92446687.007 7  22576408.070
 129312523.291 6 100762875.815 6  24607309.500
 120720146.644 6  94067765.63444  22972247.750                    22972256.160
 132386643.746 6 103158425.28842  25192337.688                    25192349.828
 108963155.139 8  84906408.14046  20734969.984                    20734974.781
 127684694.08715  99494599.09715  24297587.125
 111693579.499 7  87034020.42445  21254567.047                    21254574.551
 11  7 27  2 44  0.0000000  0  9G12G05G25G29G04G09G02G17G10
 109135291.888 8  85040680.469 7  20767783.461
 109314709.548 8  85180390.739 7  20801879.086
 118568290.834 7  92390834.823 7  22562768.133
 129232104.120 6 100700211.559 6  24592006.141
 120803211.963 7  94132491.85244  22988055.406                    22988062.645
 132468889.796 6 103222512.98942  25207989.414                    25208000.473
 108984069.207 8  84922704.82746  20738949.609                    20738954.738
 127756428.166 5  99550495.781 4  24311235.891
 111742768.904 7  87072349.83245  21263927.359                    21263934.527
 11  7 27  2 44 30.0000000  0  9G12G05G25G29G04G09G02G17G10
 109126712.921 8  85033995.570 7  20766151.273
 109259795.465 8  85137600.569 7  20791429.242
 118497033.398 7  92335309.632 7  22549208.203
 129151618.267 6 100637495.335 5  24576691.336
 120886291.056 7  94197228.76444  23003864.742                    23003872.414
 132551007.885 6 103286501.00642  25223616.438                    25223627.996
 109005182.817 8  84939157.01646  20742967.773                    20742972.578
 127828340.23915                  24324922.125
 111792516.437 7  87111114.15146  21273394.125                    21273401.914
 11  7 27  2 45  0.0000000  0  9G12G05G25G29G04G09G02G17G10
 109118714.824 8  85027763.305 7  20764628.617
 109205393.506 8  85095209.487 7  20781077.000
 118426198.458 7  92280113.623 7  22535729.039
 129071066.837 6 100574728.080 5  24561362.086
 120969383.283 7  94261975.97244  23019676.383                    23019684.164
 132632995.581 6 103350387.46242  25239218.109                    25239230.449
 109026495.664 8  84955764.44346  20747023.578                    20747028.383
 127900430.506 5                  24338639.742
 111842820.456 7  87150312.09246  21282966.656                    21282974.664
 11  7 27  2 45 30.0000000  0  9G12G05G25G29G04G09G02G17G10
 109111297.829 8  85021983.842 7  20763217.305
 109151505.235 8  85053218.642 7  20770822.164
 118355788.036 7  92225248.442 7  22522330.234
 128990450.231 6 100511909.968 6  24546020.688
 121052487.063 7  94326732.14844  23035490.523                    23035498.840
 132714849.827 5 103414169.96942  25254792.844                    25254806.727
 109048006.444 8  84972526.10446  20751116.258                    20751121.535
 127972698.51914                  24352390.914
 111893679.049 7  87189942.15745  21292644.570                    21292652.133
 11  7 27  2 46  0.0000000  0  8G12G05G25G29G04G09G02G10
 109104462.596 8  85016657.696 7  20761916.906
 109098132.150 7  85011629.273 7  20760665.406
 118285804.425 7  92170715.834 7  22509013.008
 128909768.750 6 100449041.319 5  24530667.117
 121135601.234 7  94391496.42244  23051306.969                    23051315.082
 132796568.013 6 103477846.33142  25270344.055                    25270356.176
 109069713.738 8  84989440.88946  20755247.492                    20755252.168
 111945089.632 7  87230002.35845  21302427.516                    21302435.004
 11  7 27  2 46 30.0000000  0  8G12G05G25G29G04G09G02G10
 109098209.703 8  85011785.316 7  20760726.891
 109045276.235 7  84970442.872 7  20750607.945
 118216250.527 7  92116518.069 7  22495776.594
 128829023.416 6 100386122.945 6  24515302.094
 121218725.172 6  94456268.31544  23067124.484                    23067132.297
 132878147.731 5 103541414.82742  25285868.852                    25285880.793
 109091617.128 8  85006508.47546  20759415.422                    20759420.617
 111997050.854 7  87270491.63745  21312315.914                    21312323.188
 11  7 27  2 47  0.0000000  0  8G12G05G25G29G04G09G02G10
 109092540.089 7  85007367.438 7  20759648.148
 108992939.635 7  84929661.131 8  20740648.148
 118147128.805 7  92062657.046 7  22482623.648
 128748214.558 7 100323155.098 6  24499924.570
 121301858.013 7  94521047.16144  23082944.719                    23082951.750
 132959586.227 5 103604873.35042  25301366.398                    25301378.629
 109113715.835 7  85023728.26446  20763620.883                    20763625.379
 112049560.788 7  87311408.46745  21322307.719                    21322315.559
 11  7 27  2 47 30.0000000  0  9G12G05G25G29G04G09G02G17G10
 109087453.610 7  85003403.956 7  20758679.695
 108941123.415 8  84889284.902 7  20730787.594
 118078441.119 7  92009134.229 7  22469552.641
 128667343.042 6 100260138.410 6  24484535.148
 121384998.227 7  94585831.73144  23098765.219                    23098773.559
 133040880.751 5 103668219.66942  25316835.555                    25316847.523
 109136008.223 8  85041098.96346  20767863.133                    20767867.375
 128263548.57314  99945648.33514  24407742.664
 112102617.068 7  87352751.01445  21332404.414                    21332411.789
 11  7 27  2 48  0.0000000  0  8G12G05G25G29G04G09G02G10
 109082950.122 8  84999894.761 7  20757823.047
 108889828.980 8  84849315.239 7  20721026.594
 118010189.577 7  91955951.272 7  22456564.914
 128586409.168 6 100197073.091 6  24469135.125
 121468144.228 6  94650620.85344  23114586.867                    23114595.293
 133122028.376 5 103731451.50442  25332277.781                    25332289.336
 109158492.878 8  85058619.49646  20772141.477                    20772146.020
 112156217.447 7  87394517.52745  21342603.734                    21342611.598
 11  7 27  2 48 30.0000000  0  8G12G05G25G29G04G09G02G10
 109079030.121 8  84996840.222 7  20757077.359
 108839058.257 8  84809753.673 8  20711365.242
 117942376.656 7  91903110.079 7  22443660.523
 128505413.477 6 100133959.634 6  24453721.078
 121551295.378 6  94715413.92544  23130410.922                    23130417.941
 133203026.472 5 103794566.88442  25347691.734                    25347702.535
 109181169.022 8  85076289.22546  20776456.727                    20776461.855
 112210360.178 7  87436706.70145  21352907.008                    21352913.867
 11  7 27  2 49  0.0000000  0  8G12G05G25G29G04G09G02G10
 109075694.285 8  84994240.873 7  20756442.320
 108788812.787 8  84770601.373 7  20701803.906
 117875004.923 7  91850612.686 7  22430839.602
 128424356.690 6 100070798.607 6  24438296.523
 121634450.875 7  94780210.41544  23146234.234                    23146242.852
 133283872.512 5 103857563.74642  25363075.070                    25363087.457
 109204035.948 8  85094107.62946  20780807.938                    20780812.711
 112265043.210 7  87479316.85245  21363312.867                    21363320.074
 11  7 27  2 49 30.0000000  0  8G12G05G25G29G04G09G02G10
 109072943.291 8  84992097.249 7  20755918.859
 108739094.313 8  84731859.724 8  20692342.641
 117808076.880 7  91798460.989 7  22418103.906
 128343239.695 6 100007590.627 6  24422860.313
 121717609.777 7  94845009.53944  23162059.336                    23162067.129
 133364564.384 5 103920440.53842  25378430.641                    25378443.430
 109227092.724 8  85112073.96846  20785195.602                    20785200.480
 112320264.190 7  87522346.19045  21373821.148                    21373828.348
 11  7 27  2 50  0.0000000  0  8G12G05G25G29G04G09G02G10
 109070777.037 8  84990409.270 7  20755506.477
 108689904.426 8  84693529.969 8  20682982.023
 117741594.610 7  91746656.666 7  22405452.758
 128262063.187 6  99944336.238 6  24407412.930
 121800770.886 7  94909810.41344  23177883.805                    23177892.316
 133445098.806 5                  25393755.773
 109250338.211 8  85130187.34046  20789618.984                    20789624.012
 112376021.050 7  87565793.10145  21384431.336                    21384438.559
 11  7 27  2 50 30.0000000  0  8G12G05G25G29G04G09G02G10
 109069195.391 8  84989176.828 7  20755205.422
 108641244.146 8  84655612.895 7  20673722.508
 117675560.037 7  91695201.211 7  22392887.008
 128180827.247 6  99881035.617 6  24391953.859
 121883932.740 7  94974611.86644  23193709.367                    23193717.922
 133525473.053 5                  25409051.156
 109273770.876 8  85148446.57346  20794078.008                    20794082.816
 112432311.479 7  87609655.78945  21395142.875                    21395149.836
 11  7 27  2 51  0.0000000  0  8G12G05G25G29G04G09G02G10
 109068199.343 8  84988400.697 7  20755016.109
 108593115.486 8  84618110.090 7  20664563.820
 117609975.596 8  91644096.483 7  22380406.453
 128099532.685 6  99817689.321 6  24376484.719
 121967094.679 7  95039413.38744  23209534.375                    23209542.477
 133605684.493 4                  25424314.734
 109297389.999 8  85166851.10046  20798572.680                    20798577.691
 112489133.632 7  87653932.78545  21405956.109                    21405962.723
 11  7 27  2 51 30.0000000  0  7G12G05G25G29G04G02G10
 109067788.886 8  84988080.864 8  20754938.172
 108545520.204 8  84581022.873 8  20655506.906
 117544844.214 7  91593344.759 7  22368012.367
 128018180.939 6  99754298.435 6  24361003.820
 122050256.231 7  95104214.60544  23225360.008                    23225367.523
 109321195.258 8  85185400.66346  20803102.672                    20803107.551
 112546485.808 7  87698622.81945  21416869.555                    21416876.793
 11  7 27  2 52  0.0000000  0  7G12G05G25G29G04G02G10
 109067963.999 8  84988217.315 7  20754971.211
 108498459.395 8  84544352.139 8  20646551.078
 117480167.708 7  91542947.512 7  22355704.500
 127936771.976 6  99690862.975 6  24345511.578
 122133415.901 7  95169014.36844  23241184.367                    23241192.770
 109345185.021 8  85204094.00946  20807667.891                    20807672.715
 112604365.209 7  87743723.66645  21427883.523                    21427891.027
 11  7 27  2 52 30.0000000  0  7G12G05G25G29G04G02G10
 109068724.873 8  84988810.214 7  20755116.008
 108451934.377 8  84508098.909 8  20637697.625
 117415948.141 7  91492906.297 7  22343484.492
 127855306.615 6  99627383.556 6  24330009.711
 122216572.639 7  95233811.83344  23257008.977                    23257016.840
 109369358.489 8  85222930.49246  20812267.734                    20812272.910
 112662769.373 7  87789233.39645  21438997.547                    21439004.844
 11  7 27  2 53  0.0000000  0  7G12G05G25G29G04G02G10
 109070071.380 8  84989859.435 7  20755372.609
 108405946.341 8  84472264.095 8  20628946.719
 117352187.377 7  91443222.615 7  22331350.383
 127773784.998 6  99563860.316 6  24314495.422
 122299725.272 7  95298606.14044  23272832.273                    23272839.770
 109393713.947 8  85241908.77946  20816902.109                    20816907.137
 112721695.814 7  87835150.10945  21450210.859                    21450218.047
 11  7 27  2 53 30.0000000  0  7G12G05G25G29G04G02G10
 109072003.183 8  84991364.732 7  20755739.938
 108360496.037 8  84436848.304 8  20620297.711
 117288887.290 7  91393897.895 7  22319305.352
 127692207.622 6  99500293.644 6  24298972.703
 122382872.295 7  95363396.02744  23288653.844                    23288662.582
 109418249.965 8  85261027.76546  20821571.664                    20821576.813
 112781141.990 7  87881471.82545  21461523.500                    21461531.047
 11  7 27  2 54  0.0000000  0  7G12G05G25G29G04G02G10
 109074521.326 8  84993326.935 7  20756218.945
 108315586.050 8  84401853.531 7  20611751.500
 117226051.038 7  91344934.606 7  22307347.867
 127610576.209 6  99436684.887 6  24283438.563
 122466013.810 7  95428181.64944  23304475.383                    23304484.246
 109442966.950 8  85280287.76946  20826274.992                    20826280.148
 112841106.612 7  87928197.51045  21472933.695                    21472941.215
 11  7 27  2 54 30.0000000  0  7G12G05G25G29G04G02G10
 109077625.004 8  84995745.383 7  20756809.758
 108271216.971 8  84367280.261 8  20603308.422
 117163680.075 7  91296333.863 7  22295479.242
 127528890.546 6  99373033.843 6  24267893.609
 122549148.199 6  95492961.68544  23320295.008                    23320303.992
 109467863.026 8  85299687.31546  20831012.688                    20831017.113
 112901586.742 7  87975324.89545  21484442.570                    21484450.539
 11  7 27  2 55  0.0000000  0  7G12G05G25G29G04G02G10
 109081315.353 8  84998620.989 7  20757512.016
 108227391.127 8  84333130.278 8  20594968.648
 117101777.669 7  91248098.247 7  22283699.469
 127447152.182 6  99309341.699 6  24252339.328
 122632275.473 7  95557736.21244  23336114.383                    23336122.113
 109492938.340 8  85319226.52846  20835784.258                    20835789.258
 112962581.050 7  88022852.93245  21496050.109                    21496056.898
 11  7 27  2 55 30.0000000  0  7G12G05G25G29G04G02G10
 109085590.747 8  85001952.451 7  20758325.250
 108184108.433 8  84299403.526 8  20586732.297
 117040344.333 7  91200228.167 7  22272009.094
 127365360.933 6  99245608.370 6  24236774.555
 122715393.320 7  95622503.34444  23351931.031                    23351938.840
 109518190.212 8  85338903.33046  20840589.570                    20840594.598
 113024085.610 7  88070778.58145  21507754.344                    21507761.199
 11  7 27  2 56  0.0000000  0  7G12G05G25G29G04G02G10
 109090452.091 8  85005740.508 7  20759250.516
 108141370.958 8  84266101.631 8  20578599.695
 116979383.134 8  91152725.946 7  22260408.727
 127283518.034 6  99181834.793 5  24221200.797
 122798501.500 6  95687262.99343  23367746.102                    23367753.313
 109543618.500 8  85358717.59646  20845428.461                    20845433.625
 113086099.078 7  88119100.78445  21519554.563                    21519562.023
 11  7 27  2 56 30.0000000  0  7G12G05G25G29G04G02G10
 109095898.813 8  85009984.703 7  20760287.203
 108099179.552 8  84233225.223 8  20570570.695
 116918895.727 8  91105592.962 7  22248897.758
 127201624.054 6  99118021.367 5  24205616.805
 122881598.940 6  95752014.25043  23383559.055                    23383566.492
 109569221.987 8  85378668.37246  20850300.141                    20850305.395
 113148618.676 7  88167817.35745  21531451.859                    21531459.250
 11  7 27  2 57  0.0000000  0  7G12G05G25G29G04G02G10
 109101931.649 8  85014685.616 7  20761435.273
 108057535.808 8  84200775.588 8  20562646.172
 116858884.693 8  91058831.144 7  22237478.477
 127119680.146 6  99054168.986 5  24190023.922
 122964685.004 6  95816756.64743  23399369.055                    23399377.645
 109595000.213 8  85398755.31046  20855205.820                    20855210.805
 113211642.530 7  88216926.86445  21543444.438                    21543451.699
 11  7 27  2 57 30.0000000  0  7G12G05G25G29G04G02G10
 109108549.771 8  85019842.591 7  20762694.531
 108016440.567 8  84168753.338 8  20554825.953
 116799351.741 8  91012441.870 7  22226149.742
 127037686.635 7  98990277.883 5  24174421.352
 123047758.484 6  95881489.22643  23415177.883                    23415186.086
 109620951.707 8  85418977.27446  20860143.805                    20860148.840
 113275167.759 7  88266427.05545  21555533.172                    21555540.008
 11  7 27  2 58  0.0000000  0  7G12G05G25G29G04G02G10
 109115753.259 8  85025455.704 7  20764065.008
 107975895.407 8  84137159.734 8  20547110.758
 116740299.135 8  90966426.903 7  22214911.766
 126955644.413 7  98926348.864 5  24158808.523
 123130818.646 6  95946211.45843  23430984.180                    23430991.445
 109647075.701 8  85439333.64546  20865115.680                    20865120.609
 113339192.040 7  88316316.12645  21567716.422                    21567723.953
 11  7 27  2 58 30.0000000  0  7G12G05G25G29G04G02G10
 109123541.422 8  85031524.379 7  20765546.977
 107935900.866 8  84105995.178 7  20539499.695
 116681728.350 7  90920787.374 7  22203766.203
 126873553.807 7  98862382.134 5  24143187.641
 123213864.206 6  96010922.31643  23446786.898                    23446794.699
 109673370.492 8  85459823.11646  20870119.148                    20870124.137
 113403712.438 7  88366591.77545  21579994.148                    21580001.504
 11  7 27  2 59  0.0000000  0  7G12G05G25G29G04G02G10
 109131915.016 8  85038049.266 7  20767140.773
 107896458.653 8  84075261.002 7  20531994.359
 116623642.222 8  90875525.509 7  22192713.125
 126791416.355 7  98798378.935 6  24127557.930
 123296895.081 6  96075621.69943  23462587.242                    23462595.898
 109699836.378 8  85480445.89146  20875155.352                    20875160.500
 113468727.435 7  88417252.82445  21592366.383                    21592373.672
 11  7 27  2 59 30.0000000  0  7G12G05G25G29G04G02G10
 109140873.405 8  85045029.822 7  20768845.695
 107857569.906 8  84044958.116 8  20524593.953
 116566042.654 7  90830642.764 7  22181752.180
 126709232.704 6  98734339.735 6  24111918.219
 123379910.157 6  96140308.78944  23478384.578                    23478392.125
 109726472.219 8  85501201.10746  20880224.328                    20880229.332
 113534234.663 7  88468297.41445  21604832.234                    21604839.098
 11  7 27  3  0  0.0000000  0  7G12G05G25G29G04G02G10
 109150416.379 8  85052465.901 7  20770660.953
 107819235.272 8  84015086.994 7  20517299.086
 116508931.253 8  90786140.412 7  22170883.891
 126627003.335 6  98670264.930 6  24096269.438
 123462908.239 7  96204982.64243  23494179.344                    23494186.699
 109753276.262 8  85522087.38946  20885324.531                    20885329.527
 113600231.027 7  88519723.17045  21617390.617                    21617397.887
 11  7 27  3  0 30.0000000  0  7G12G05G25G29G04G02G10
 109160543.377 8  85060357.064 7  20772588.484
 107781456.076 8  83985648.673 8  20510109.820
 116452310.290 8  90742020.233 7  22160109.344
 126544729.320 5  98606155.360 6  24080613.867
 123545888.820 7  96269642.82844  23509969.320                    23509976.852
 109780248.148 8  85543104.46046  20890457.219                    20890462.344
 113666714.207 7  88571528.26045  21630041.734                    21630049.352
 11  7 27  3  1  0.0000000  0  7G12G05G25G29G04G02G10
 109171254.570 8  85068703.428 7  20774626.797
 107744233.663 8  83956644.220 8  20503026.320
 116396181.959 7  90698283.904 7  22149428.297
 126462411.682 6  98542011.870 6  24064948.297
 123628851.139 7  96334288.82144  23525756.352                    23525764.672
 109807387.159 8  85564251.75346  20895621.695                    20895626.391
 113733682.344 7  88623711.22545  21642785.727                    21642792.668
 11  7 27  3  1 30.0000000  0  7G12G05G25G29G04G02G10
 109182549.378 8  85077504.576 7  20776776.242
 107707568.498 8  83928073.975 8  20496049.039
 116340547.677 7  90654932.559 7  22138841.406
 126380050.848 6  98477834.612 6  24049276.766
 123711794.129 7  96398919.75244  23541539.742                    23541548.051
 109834691.601 8  85585527.94946  20900817.594                    20900822.484
 113801132.020 7  88676269.42845  21655621.055                    21655627.406
 11  7 27  3  2  0.0000000  0  7G12G05G25G29G04G02G10
 109194427.311 8  85086760.110 7  20779036.320
 107671461.709 8  83899938.850 8  20489178.539
 116285409.502 8  90611967.778 7  22128349.211
 126297647.735 6  98413624.442 6  24033595.914
 123794717.036 7  96463535.00044  23557319.047                    23557327.871
 109862160.839 8  85606932.56246  20906044.984                    20906049.531
 113869061.037 7  88729201.14045  21668547.266                    21668554.410
 11  7 27  3  2 30.0000000  0  7G12G05G25G29G04G02G10
 109206887.871 8  85096469.624 7  20781407.578
 107635914.324 8  83872239.599 8  20482413.961
 116230769.368 8  90569391.090 7  22117951.250
 126215203.273 7  98349382.073 6  24017907.180
 123877619.182 7  96528134.08244  23573095.477                    23573103.590
 109889794.108 8  85628464.99746  20911302.641                    20911307.930
 113937467.011 7  88782504.48045  21681564.484                    21681571.621
 11  7 27  3  3  0.0000000  0  7G12G05G25G29G04G02G10
 109219931.332 8  85106633.370 7  20783889.578
 107600927.243 8  83844976.968 8  20475756.445
 116176629.427 8  90527204.164 7  22107649.102
 126132718.782 6  98285108.474 6  24002211.008
 123960499.662 7  96592716.27244  23588867.445                    23588875.348
 109917590.707 8  85650124.69646  20916592.688                    20916597.266
 114006347.293 7  88836177.44145  21694672.258                    21694679.020
 11  7 27  3  3 30.0000000  0  7G12G05G25G29G04G02G10
 109233556.545 8  85117250.405 7  20786482.383
 107566501.245 8  83818151.540 8  20469205.344
 116122991.407 7  90485408.348 7  22097441.969
 126050194.945 7  98220804.186 6  23986506.891
 124043357.620 7  96657280.92144  23604634.219                    23604642.438
 109945549.441 8  85671910.74646  20921912.984                    20921917.871
 114075699.246 7  88890217.93045  21707869.063                    21707876.535
 11  7 27  3  4  0.0000000  0  7G12G05G25G29G04G02G10
 109247763.159 8  85128320.496 7  20789185.836
 107532637.331 8  83791764.096 8  20462761.031
 116069857.042 8  90444004.953 7  22087330.953
 125967632.141 7  98156469.592 5  23970796.555
 124126192.326 6  96721827.39643  23620396.383                    23620405.105
 109973669.237 8  85693822.27946  20927264.172                    20927269.262
 114145520.289 7  88944623.94745  21721155.734                    21721162.648
 11  7 27  3  4 30.0000000  0  7G12G05G25G29G04G02G10
 109262550.643 7  85139843.201 7  20791999.648
 107499336.614 8  83765815.499 8  20456423.930
 116017228.241 8  90402995.530 7  22077315.836
 125885031.291 7  98092105.349 5  23955078.070
 124209003.136 6  96786355.25544  23636155.438                    23636164.020
 110001949.296 8  85715858.70546  20932645.453                    20932650.641
 114215808.035 7  88999393.62845  21734530.961                    21734538.082
 11  7 27  3  5  0.0000000  0  7G12G05G25G29G04G02G10
 109277918.506 8  85151818.161 7  20794924.031
 107466599.759 8  83740306.282 8  20450194.688
 115965106.730 8  90362381.415 7  22067397.430
 125802393.531 7  98027712.296 5  23939351.953
 124291788.980 7  96850863.69843  23651908.938                    23651917.301
 110030388.620 8  85738019.22646  20938057.602                    20938062.273
 114286559.800 7  89054524.87145  21747994.797                    21748001.828
 11  7 27  3  5 30.0000000  0  7G12G05G25G29G04G02G10
 109293867.340 8  85164245.811 7  20797958.789
 107434427.827 8  83715237.268 8  20444072.172
 115913495.026 8  90322164.518 7  22057576.313
 125719720.232 6  97963291.628 6  23923619.766
 124374549.882 6  96915352.71144  23667657.648                    23667665.691
 110058987.196 8  85760303.84446  20943499.766                    20943504.227
 114357773.511 7  89110016.07445  21761546.203                    21761552.852
 11  7 27  3  6  0.0000000  0  7G12G05G25G29G04G02G10
 109310395.240 8  85177124.706 7  20801104.500
 107402821.403 8  83690608.905 8  20438057.703
 115862394.413 8  90282345.895 7  22047851.867
 125637012.156 6  97898843.861 6  23907880.539
 124457284.616 6  96979821.34443  23683401.227                    23683409.598
 110087743.555 8  85782711.40546  20948971.711                    20948976.629
 114429446.192 7  89165864.91145  21775184.695                    21775192.109
 11  7 27  3  6 30.0000000  0  7G12G05G25G29G04G02G10
 109327502.097 8  85190454.720 7  20804359.734
 107371781.335 8  83666421.865 8  20432151.078
 115811806.770 8  90242926.994 7  22038225.281
 125554269.86016  97834369.46116  23892135.719
 124539992.580 6  97044269.07543  23699140.977                    23699148.789
 110116656.788 8  85805241.20246  20954473.703                    20954478.578
 114501575.231 7  89222069.36045  21788910.883                    21788917.980
 11  7 27  3  7  0.0000000  0  7G12G05G25G29G04G02G10
 109345187.179 8  85204235.295 7  20807725.086
 107341308.550 8  83642676.868 8  20426352.445
 115761733.850 8  90203909.172 7  22028697.172
 125471494.368 6  97769869.185 6  23876383.789
 124622673.119 6  97108695.47043  23714874.266                    23714882.020
 110145726.103 8  85827892.63146  20960005.445                    20960010.289
 114574157.936 7  89278627.34845  21802722.977                    21802729.125
 11  7 27  3  7 30.0000000  0  7G12G05G25G29G04G02G10
 109363449.560 8  85218465.717 7  20811200.383
 107311403.220 8  83619374.039 8  20420661.398
 115712177.046 8  90165293.523 7  22019266.477
 125388686.714 6  97705343.805 6  23860625.703
 124705325.082 6  97173099.59743  23730602.305                    23730610.258
 110174950.201 8  85850664.66746  20965566.516                    20965570.758
 114647191.272 7  89335536.44945  21816620.438                    21816628.176
 11  7 27  3  8  0.0000000  0  7G12G05G25G29G04G02G10
 109382289.016 8  85233145.814 7  20814785.352
 107282066.272 8  83596514.105 8  20415078.516
 115663138.333 8  90127081.551 7  22009934.633
 125305847.779 7  97640794.074 6  23844862.219
 124787948.136 6  97237481.25043  23746324.703                    23746332.859
 110204328.579 8  85873556.91246  20971157.047                    20971161.535
 114720672.632 7  89392794.65545  21830603.570                    21830610.555
 11  7 27  3  8 30.0000000  0  7G12G05G25G29G04G02G10
 109401704.679 7  85248274.891 7  20818480.375
 107253298.380 8  83574097.579 8  20409604.531
 115614619.447 8  90089274.645 7  22000701.711
 125222978.641 6  97576220.816 6  23829092.773
 124870541.544 6  97301839.74343  23762042.586                    23762049.293
 110233860.341 8  85896568.69746  20976776.992                    20976781.313
 114794599.729 7  89450400.19145  21844671.164                    21844678.602
 11  7 27  3  9  0.0000000  0  7G12G05G25G29G04G02G10
 109421696.220 8  85263852.709 7  20822284.594
 107225100.526 8  83552125.250 8  20404238.375
 115566622.249 8  90051874.268 7  21991568.344
 125140080.438 6  97511624.960 6  23813317.820
 124953104.715 6  97366174.69743  23777753.313                    23777760.957
 110263544.926 8  85919699.55546  20982425.656                    20982430.453
 114868969.908 7  89508350.98245  21858823.617                    21858830.727
 11  7 27  3  9 30.0000000  0  7G12G05G25G29G04G02G10
 109442262.618 8  85279878.471 7  20826197.898
 107197473.176 8  83530597.473 8  20398981.188
 115519148.344 8  90014881.643 7  21982534.305
 125057154.351 6  97447007.293 6  23797537.031
 125035636.810 7  97430485.44243  23793458.242                    23793467.020
 110293381.402 8  85942948.78346  20988103.180                    20988107.766
 114943780.436 7  89566644.92245  21873059.586                    21873066.723
 11  7 27  3 10  0.0000000  0  7G12G05G25G29G04G02G10
 109463402.947 8  85296351.451 7  20830220.508
 107170415.788 8  83509513.823 8  20393832.500
 115472198.530 8  89978297.406 7  21973600.078
 124974200.332 6  97382367.867 6  23781750.469
 125118136.646 6  97494771.03543  23809157.547                    23809165.969
 110323367.897 8  85966314.89346  20993809.375                    20993814.449
 115019027.614 7  89625279.07845  21887378.391                    21887385.793
 11  7 27  3 10 30.0000000  0  7G12G05G25G29G04G02G10
 109485116.056 8  85313270.765 7  20834352.453
 107143930.277 8  83488875.779 8  20388792.383
 115425775.256 8  89942123.471 7  21964765.898
 124891220.196 6  97317708.091 6  23765960.758
 125200604.464 7  97559031.67543  23824850.828                    23824859.027
 110353504.575 8  85989798.01246  20999544.195                    20999548.840
 115094710.093 7  89684252.45045  21901780.438                    21901787.426
 11  7 27  3 11  0.0000000  0  7G12G05G25G29G04G02G10
 109507401.634 8  85330636.142 7  20838593.398
 107118016.849 8  83468683.521 8  20383860.875
 115379880.391 8  89906361.246 7  21956032.094
 124808215.317 6  97253029.055 6  23750165.359
 125283039.517 7  97623266.79244  23840538.344                    23840546.125
 110383790.833 8  86013397.70846  21005307.711                    21005312.359
 115170825.259 7  89743562.98745  21916264.305                    21916271.914
 11  7 27  3 11 30.0000000  0  7G12G05G25G29G04G02G10
 109530258.865 8  85348446.983 7  20842943.008
 107092676.283 8  83448937.645 8  20379039.227
 115334515.081 8  89871011.678 7  21947399.234
 124725186.043 7  97188331.036 6  23734365.227
 125365440.870 6  97687475.66143  23856217.914                    23856226.480
 110414225.375 8  86037112.95846  21011098.938                    21011103.828
 115247369.768 7  89803208.07245  21930830.680                    21930837.215
 11  7 27  3 12  0.0000000  0  7G12G05G25G29G04G02G10
 109553686.556 8  85366702.331 7  20847401.102
 107067908.702 8  83429638.265 8  20374326.188
 115289680.937 8  89836076.027 7  21938867.453
 124642133.540 7  97123614.863 6  23718560.961
 125447808.042 6  97751657.90844  23871892.523                    23871900.066
 110444807.413 8  86060943.12346  21016918.188                    21016923.250
 115324340.697 7  89863185.42145  21945477.711                    21945484.262
 11  7 27  3 12 30.0000000  0  7G12G05G25G29G04G02G10
 109577684.218 8  85385401.798 7  20851967.836
 107043714.535 8  83410785.673 8  20369721.539
 115245379.654 8  89801555.586 7  21930437.477
 124559058.814 7  97058881.386 6  23702752.633
 125530140.481 6  97815813.05543  23887559.828                    23887566.949
 110475536.260 8  86084887.69646  21022765.945                    21022770.918
 115401735.739 7  89923493.25145  21960205.414                    21960212.691
 11  7 27  3 13  0.0000000  0  7G12G05G25G29G04G02G10
 109602250.828 8  85404544.606 7  20856642.828
 107020094.741 8  83392380.661 8  20365226.805
 115201612.654 7  89767451.429 7  21922109.781
 124475963.260 7  96994131.697 6  23686939.594
 125612437.552 6  97879940.62943  23903220.000                    23903228.746
 110506411.332 8  86108946.19946  21028641.523                    21028646.238
 115479552.195 7  89984129.46145  21975013.594                    21975020.816
 11  7 27  3 13 30.0000000  0  7G12G05G25G29G04G02G10
 109627385.220 8  85424129.861 7  20861425.750
 106997049.539 8  83374423.378 8  20360841.750
 115158381.635 8  89733764.947 7  21913882.555
 124392848.051 7  96929366.698 6  23671123.656
 125694698.704 6  97944040.23943  23918873.961                    23918882.203
 110537431.724 8  86133117.93646  21034544.477                    21034549.324
 115557787.412 7  90045091.97845  21989900.867                    21989908.211
 11  7 27  3 14  0.0000000  0  7G12G05G25G29G04G02G10
 109653086.484 8  85444156.836 7  20866316.359
 106974579.109 8  83356913.965 8  20356565.656
 115115687.969 8  89700497.199 7  21905757.906
 124309714.087 7  96864587.071 6  23655304.094
 125776923.295 6  98008111.35443  23934520.727                    23934528.285
 110568596.539 8  86157402.22946  21040475.281                    21040479.633
 115636438.199 7  90106378.31545  22004867.875                    22004874.188
 11  7 27  3 14 30.0000000  0  7G12G05G25G29G04G02G10
 109679353.993 8  85464625.033 7  20871315.086
 106952683.885 8  83339852.776 8  20352399.156
 115073533.019 8  89667649.221 7  21897736.070
 124226561.953 7  96799793.243 6  23639480.359
 125859110.594 6  98072153.40943  23950159.688                    23950168.273
 110599904.914 8  86181798.37646  21046432.453                    21046437.266
 115715501.889 7  90167986.40045  22019913.039                    22019919.805
 11  7 27  3 15  0.0000000  0  7G12G05G25G29G04G02G10
 109706186.612 8  85485533.565 7  20876420.797
 106931364.629 8  83323240.386 8  20348342.086
 115031918.661 8  89635222.477 7  21889817.211
 124143393.830 6  96734986.990 6  23623653.102
 125941260.460 6  98136166.23943  23965792.727                    23965801.262
 110631356.608 8  86206306.19046  21052417.563                    21052422.410
 115794976.526 7  90229914.70045  22035036.445                    22035043.453
 11  7 27  3 15 30.0000000  0  7G12G05G25G29G04G02G10
 109733582.951 8  85506881.382 7  20881634.242
 106910621.087 8  83307076.602 8  20344394.914
 114990845.732 8  89603217.619 7  21882001.281
 124060209.952 6  96670168.451 6  23607824.492
 126023371.860 6  98200149.11143  23981417.586                    23981427.203
 110662950.117 8  86230924.52546  21058429.578                    21058434.109
 115874858.530 7  90292160.44145  22050237.445                    22050243.816
 11  7 27  3 16  0.0000000  0  7G12G05G25G29G04G02G10
 109761542.382 8  85528667.967 7  20886954.680
 106890453.789 8  83291361.847 8  20340557.273
 114950316.144 8  89571636.153 7  21874288.828
 123977011.894 7  96605338.846 6  23591992.203
 126105444.798 6  98264102.03843  23997036.477                    23997044.516
 110694685.367 8  86255653.29646  21064468.523                    21064473.176
 115955145.526 7  90354721.75845  22065515.672                    22065522.867
 11  7 27  3 16 30.0000000  0  7G12G05G25G29G04G02G10
 109790063.720 8  85550892.370 7  20892382.133
 106870863.485 8  83276096.695 8  20336829.094
 114910331.385 8  89540479.235 7  21866680.156
 123893801.120 7  96540499.377 6  23576157.516
 126187478.347 6  98328024.24143  24012646.000                    24012655.063
 110726561.639 8  86280491.96346  21070534.695                    21070538.734
 116035834.831 7  90417596.55245  22080870.281                    22080877.051
 11  7 27  3 17  0.0000000  0  7G12G05G25G29G04G02G10
 109819145.103 8  85573553.196 7  20897916.102
 106851849.269 8  83261280.441 8  20333210.969
 114870891.877 8  89509747.165 7  21859175.008
 123810577.985 7  96475650.283 6  23560320.227
 126269471.704 6  98391915.16243  24028250.211                    24028258.250
 110758577.141 8  86305439.12446  21076626.695                    21076631.570
 116116922.281 7  90480781.59145  22096300.563                    22096307.852
 11  7 27  3 17 30.0000000  0  7G12G05G25G29G04G02G10
 109848785.975 8  85596649.962 7  20903556.609
 106833411.836 8  83246913.635 8  20329702.516
 114831999.416 8  89479441.393 7  21851774.172
 123727343.599 7  96410792.372 6  23544481.172
 126351424.554 6  98455774.50743  24043845.227                    24043853.176
 110790731.571 7  86330494.53446  21082745.828                    21082750.207
 116198405.872 7  90544275.29545  22111806.906                    22111813.762
 11  7 27  3 18  0.0000000  0  7G12G05G25G29G04G02G10
 109878985.133 8  85620181.783 7  20909303.539
 106815551.746 8  83232996.696 8  20326303.922
 114793655.523 8  89449563.065 7  21844477.125
 123644099.188 7  96345926.693 6  23528639.992
 126433336.522 7  98519601.99743  24059432.477                    24059440.379
 110823024.356 8  86355657.76946  21088890.945                    21088895.238
 116280283.208 7  90608075.81645  22127387.563                    22127394.254
 11  7 27  3 18 30.0000000  0  7G12G05G25G29G04G02G10
 109909741.480 7  85644147.773 7  20915156.047
 106798269.127 8  83219529.737 8  20323015.031
 114755861.633 8  89420113.303 7  21837285.508
 123560846.475 7  96281054.578 6  23512798.063
 126515207.152 6  98583397.26743  24075011.898                    24075019.566
 110855455.124 7  86380928.49646  21095062.039                    21095066.563
 116362551.596 7  90672181.08144  22143042.117                    22143049.141
 11  7 27  3 19  0.0000000  0  8G12G05G25G29G04G26G02G10
 109941053.607 7  85668546.812 7  20921114.508
 106781563.859 8  83206512.665 8  20319836.266
 114718618.687 8  89391092.837 7  21830197.953
 123477586.661 7  96216176.896 6  23496953.773
 126597035.732 7  98647159.78643  24090583.164                    24090591.578
 131919032.56915                  25103342.906
 110888022.744 7  86406305.87746  21101259.352                    21101264.457
 116445207.785 7  90736588.50945  22158771.539                    22158778.320
 11  7 27  3 19 30.0000000  0  8G12G05G25G29G04G26G02G10
 109972920.850 7  85693378.421 7  20927179.047
 106765436.327 8  83193945.785 8  20316766.984
 114681928.225 8  89362502.873 7  21823215.953
 123394320.836 7  96151294.541 6  23481108.820
 126678822.002 7  98710889.38243  24106146.336                    24106154.668
 131826182.353 5                  25085676.141
 110920726.626 7  86431789.43346  21107482.914                    21107487.859
 116528248.934 7  90801295.90245  22174573.672                    22174581.109
 11  7 27  3 20  0.0000000  0  8G12G05G25G29G04G26G02G10
 110005341.224 8  85718641.051 7  20933348.453
 106749886.177 8  83181828.812 8  20313807.836
 114645791.211 8  89334344.190 7  21816339.492
 123311049.849 7  96086408.161 6  23465263.313
 126760565.182 6  98774585.40243  24121701.633                    24121709.535
 131733167.410 5                  25067975.789
 110953565.895 8  86457378.47846  21113731.750                    21113736.570
 116611672.086 7  90866300.93645  22190448.141                    22190455.953
 11  7 27  3 20 30.0000000  0  8G12G05G25G29G04G26G02G10
 110038313.502 8  85744333.721 7  20939622.844
 106734913.846 8  83170162.079 8  20310958.594
 114610209.067 8  89306617.868 7  21809568.047
 123227774.984 7  96021518.724 6  23449416.664
 126842264.999 6  98838247.56243  24137248.656                    24137257.145
 131639990.602 5                  25050244.141
 110986540.217 8  86483072.75746  21120006.383                    21120011.539
 116695474.977 7  90931601.87744  22206396.133                    22206402.504
 11  7 27  3 21  0.0000000  0  8G12G05G25G29G04G26G02G10
 110071836.793 8  85770455.767 7  20946002.063
 106720519.097 8  83158945.421 8  20308219.461
 114575182.717 8  89279324.615 7  21802903.227
 123144497.584 7  95956627.330 6  23433569.219
 126923921.038 6  98901875.59343  24152786.742                    24152796.145
 131546654.268 5                  25032482.789
 111019648.520 8  86508871.44946  21126306.852                    21126311.695
 116779654.301 7  90997196.15445  22222414.570                    22222421.715
 11  7 27  3 21 30.0000000  0  8G12G05G25G29G04G26G02G10
 110105909.422 8  85797005.861 7  20952485.484
 106706702.363 8  83148179.161 8  20305590.180
 114540713.448 8  89252465.453 7  21796343.719
 123061218.854 7  95891734.905 6  23417721.555
 127005532.747 6  98965469.12343  24168317.789                    24168325.492
 131453161.586 5 102431017.81752  25014691.297                    25014700.734
 111052890.218 8  86534774.05946  21132633.016                    21132637.551
 116864207.154 7  91063081.49445  22238504.813                    22238511.039
 11  7 27  3 22  0.0000000  0  8G12G05G25G29G04G26G02G10
 110140529.865 7  85823982.832 7  20959073.492
 106693463.397 8  83137863.101 8  20303070.836
 114506802.580 8  89226041.408 7  21789890.523
 122977940.032 7  95826842.391 6  23401874.055
 127087099.675 6  99029027.78643  24183838.492                    24183846.551
 131359515.218 5 102358046.65042  24996871.938                    24996881.141
 111086264.659 7  86560780.13046  21138983.688                    21138988.441
 116949130.932 7  91129255.87545  22254664.570                    22254671.391
 11  7 27  3 22 30.0000000  0  8G12G05G25G29G04G26G02G10
 110175697.170 8  85851385.924 7  20965765.945
 106680802.226 8  83127997.287 8  20300661.703
 114473450.967 8  89200053.142 7  21783544.133
 122894662.265 7  95761950.707 6  23386026.648
 127168621.457 6  99092551.24143  24199351.625                    24199359.902
 131265717.74315 102284957.84852  24979022.086                    24979031.836
 111119771.216 8  86586889.13946  21145359.602                    21145364.777
 117034422.572 7  91195716.89445  22270895.047                    22270902.746
 11  7 27  3 23  0.0000000  0  8G12G05G25G29G04G26G02G10
 110211409.470 8  85879213.692 7  20972561.789
 106668718.571 8  83118581.471 8  20298361.797
 114440659.780 8  89174501.586 7  21777304.313
 122811386.970 7  95697060.956 6  23370179.734
 127250097.449 6  99156039.05643  24214857.109                    24214863.973
 131171771.947 5 102211753.39742  24961144.898                    24961154.160
 111153409.139 7  86613100.50646  21151760.836                    21151765.586
 117120079.353 7  91262462.44445  22287195.742                    22287202.605
 11  7 27  3 23 30.0000000  0  8G12G05G25G29G04G26G02G10
 110247665.805 7  85907465.369 7  20979461.195
 106657212.132 8  83109615.435 8  20296172.563
 114408429.934 8  89149387.423 7  21771170.766
 122728115.263 7  95632173.954 6  23354333.953
 127331527.097 6  99219490.72443  24230351.664                    24230359.934
 131077680.540 5 102138435.46042  24943240.164                    24943249.582
 111187177.453 7  86639413.48346  21158186.586                    21158191.477
 117206098.385 7  91329490.25245  22303563.813                    22303571.098
 11  7 27  3 24  0.0000000  0  8G12G05G25G29G04G26G02G10
 110284464.567 8  85936139.734 7  20986463.852
 106646283.732 8  83101099.833 8  20294093.180
 114376762.949 8  89124711.851 7  21765144.719
 122644848.839 7  95567291.027 6  23338488.938
 127412910.505 5  99282906.34342  24245838.383                    24245847.535
 130983446.737 5 102065006.62542  24925305.898                    24925316.980
 111221076.252 8  86665828.14946  21164637.438                    21164642.035
 117292476.911 7  91396798.20444  22320001.398                    22320008.121
 11  7 27  3 24 30.0000000  0  8G12G05G25G29G04G26G02G10
 110321804.507 8  85965235.785 7  20993569.383
 106635933.028 8  83093034.364 8  20292123.297
 114345659.782 8  89100475.626 7  21759226.234
 122561588.739 7  95502413.059 6  23322645.047
 127494247.373 5  99346285.70843  24261316.758                    24261324.781
 130889073.321 5 101991468.94542  24907348.992                    24907358.676
 111255104.593 8  86692343.74546  21171112.891                    21171117.695
 117379211.987 7  91464383.98244  22336506.750                    22336513.621
 11  7 27  3 25  0.0000000  0  8G12G05G25G29G04G26G02G10
 110359683.797 8  85994752.123 7  21000777.414
 106626159.426 8  83085418.591 8  20290263.320
 114315121.222 8  89076679.376 7  21753414.922
 122478336.410 6  95437541.154 6  23306802.359
 127575536.837 5  99409628.10043  24276785.594                    24276793.797
 130794562.940 6 101917824.49542  24889364.016                    24889373.711
 111289261.699 8  86718959.67346  21177612.563                    21177617.676
 117466300.993 7  91532245.54745  22353078.953                    22353086.250
 11  7 27  3 25 30.0000000  0  8G12G05G25G29G04G26G02G10
 110398100.721 8  86024687.385 7  21008088.164
 106616962.500 8  83078252.178 8  20288513.406
 114285148.118 8  89053323.725 7  21747710.953
 122395093.010 7  95372676.168 6  23290961.805
 127656778.294 6  99472933.11643  24292245.305                    24292253.367
 130699918.079 6 101844075.35742  24871353.805                    24871363.676
 111323546.657 8  86745675.23146  21184136.516                    21184141.477
 117553740.700 7  91600380.38544  22369718.031                    22369725.793
 11  7 27  3 26  0.0000000  0  8G12G05G25G29G04G26G02G10
 110437054.197 8  86055040.730 7  21015501.094
 106608342.759 8  83071535.518 8  20286872.938
 114255741.749 8  89030409.685 7  21742115.359
 122311859.721 7  95307819.104 6  23275122.781
 127737972.006 6  99536200.91543  24307696.211                    24307704.051
 130605142.080 6 101770223.91842  24853318.727                    24853327.770
 111357959.651 8  86772490.56546  21190685.383                    21190690.402
 117641528.491 7  91668786.44944  22386423.453                    22386430.793
 11  7 27  3 26 30.0000000  0  8G12G05G25G29G04G26G02G10
 110476542.708 8  86085811.005 7  21023014.859
 106600299.334 8  83065267.933 8  20285342.227
 114226902.768 8  89007937.764 7  21736627.656
 122228637.975 7  95242970.998 6  23259287.000
 127819117.184 6  99599430.92043  24323137.414                    24323145.828
 130510237.417 6 101696272.27443  24835259.898                    24835268.172
 111392499.300 8  86799404.58746  21197258.094                    21197262.594
 117729661.358 7  91737461.40445  22403194.938                    22403202.066
 11  7 27  3 27  0.0000000  0  8G12G05G25G29G04G26G02G10
 110516564.060 8  86116996.457 7  21030630.961
 106592832.176 8  83059449.394 8  20283921.266
 114198632.062 8  88985908.652 7  21731247.992
 122145429.187 7  95178133.022 6  23243451.984
 127900213.508 6  99662622.86543  24338569.813                    24338577.887
 130415207.045 6 101622222.64643  24817175.539                    24817184.555
 111427165.017 8  86826416.83946  21203854.633                    21203859.445
 117818136.218 7  91806402.84044  22420030.336                    22420038.008
 11  7 27  3 27 30.0000000  0  8G12G05G25G29G04G26G02G10
 110557116.936 8  86148596.093 7  21038347.555
 106585941.218 8  83054079.834 8  20282610.094
 114170930.633 8  88964323.145 7  21725976.102
 122062234.751 7  95113306.210 6  23227620.898
 127981260.566 6  99725776.40343  24353992.383                    24354000.766
 130320054.068 6 101548077.49043  24799067.922                    24799077.109
 111461956.554 8  86853527.12546  21210475.656                    21210480.152
 117906950.347 7  91875608.63944  22436932.180                    22436938.477
 11  7 27  3 28  0.0000000  0  8G12G05G25G29G04G26G02G10
 110598199.970 8  86180608.848 7  21046165.617
 106579625.838 8  83049158.769 8  20281408.227
 114143799.192 8  88943181.780 7  21720813.164
 121979055.991 7  95048491.601 6  23211792.602
 128062257.955 6  99788891.20543  24369406.305                    24369414.031
 130224781.129 6 101473838.86043  24780939.039                    24780947.203
 111496872.870 8  86880734.64846  21217120.008                    21217124.535
 117996100.861 7  91945076.59845  22453896.805                    22453903.320
 11  7 27  3 28 30.0000000  0  8G12G05G25G29G04G26G02G10
 110639810.995 8  86213033.017 7  21054083.633
 106573885.766 8  83044686.019 8  20280315.648
 114117238.659 8  88922485.289 7  21715758.883
 121895894.156 7  94983690.203 6  23195967.211
 128143205.427 6  99851967.16043  24384809.430                    24384818.105
 130129391.222 7 101399509.08743  24762785.891                    24762795.246
 111531913.535 8  86908039.07346  21223787.586                    21223792.484
 118085584.926 7  92014804.44344  22470924.586                    22470931.797
 11  7 27  3 29  0.0000000  0  8G12G05G25G29G04G26G02G10
 110681949.022 8  86245867.866 7  21062102.297
 106568720.968 8  83040661.517 8  20279333.000
 114091250.108 8  88902234.494 7  21710813.695
 121812750.817 7  94918903.246 6  23180145.602
 128224102.822 6  99915004.09743  24400203.609                    24400212.199
 130033887.302 6 101325090.49744  24744612.836                    24744621.910
 111567078.311 8  86935440.19846  21230478.859                    21230484.414
 118175399.767 7  92084790.03444  22488015.984                    22488022.816
 11  7 27  3 29 30.0000000  0  8G12G05G25G29G04G26G02G10
 110724611.338 8  86279111.217 7  21070221.156
 106564130.462 8  83037084.514 8  20278459.453
 114065833.748 8  88882429.555 7  21705976.984
 121729627.410 7  94854131.799 6  23164328.039
 128304949.447 6  99978001.45143  24415588.875                    24415596.457
 129938272.113 6 101250585.23043  24726417.625                    24726426.246
 111602366.121 8  86962937.19946  21237194.258                    21237199.418
 118265542.087 7  92155030.82444  22505169.422                    22505176.168
 11  7 27  3 30  0.0000000  0  8G12G05G25G29G04G26G02G10
 110767797.195 8  86312762.533 7  21078438.688
 106560114.498 8  83033955.203 8  20277695.344
 114040990.810 8  88863071.457 7  21701249.125
 121646525.405 7  94789377.030 6  23148513.820
 128385745.216 7 100040959.25343  24430963.875                    24430971.727
 129842548.881 6 101175995.74843  24708202.484                    24708210.859
 111637776.786 8  86990529.93246  21243932.859                    21243937.707
 118356009.293 7  92225524.75844  22522384.758                    22522392.008
 11  7 27  3 30 30.0000000  0  8G12G05G25G29G04G26G02G10
 110811504.603 8  86346820.238 7  21086756.000
 106556672.559 8  83031273.200 8  20277040.164
 114016722.118 8  88844160.796 7  21696631.219
 121563445.954 7  94724639.854 6  23132704.141
 128466490.030 6 100103877.28643  24446329.430                    24446336.684
 129746720.661 6 101101324.44843  24689966.430                    24689976.227
 111673309.785 8  87018218.00146  21250694.477                    21250699.254
 118446798.626 7  92296269.67344  22539661.195                    22539668.664
 11  7 27  3 31  0.0000000  0  8G12G05G25G29G04G26G02G10
 110855731.367 8  86381282.651 7  21095172.156
 106553803.650 8  83029037.694 8  20276493.953
 113993028.116 8  88825697.953 7  21692122.586
 121480390.373 7  94659921.312 6  23116900.109
 128547183.183 6 100166755.07343  24461683.547                    24461691.543
 129650790.030 6 101026573.38443  24671712.070                    24671720.555
 111708964.259 8  87046000.71546  21257479.477                    21257484.496
 118537906.861 7  92367263.10344  22556999.125                    22557005.777
 11  7 27  3 31 30.0000000  0  8G12G05G25G29G04G26G02G10
 110900476.316 8  86416148.828 7  21103686.805
 106551507.943 8  83027248.854 8  20276057.164
 113969909.622 8  88807683.554 7  21687722.891
 121397360.493 7  94595222.756 6  23101099.492
 128627824.726 6 100229592.65242  24477029.086                    24477037.527
 129554760.189 6 100951745.00443  24653437.789                    24653446.160
 111744739.727 8  87073877.69646  21264286.766                    21264292.242
 118629331.481 7  92438503.08244  22574396.227                    22574403.297
 11  7 27  3 32  0.0000000  0  8G12G05G25G29G04G26G02G10
 110945737.397 8  86451417.195 7  21112299.609
 106549784.817 8  83025906.178 8  20275729.742
 113947367.247 8  88790118.086 7  21683433.273
 121314357.658 7  94530545.276 6  23085304.188
 128708414.190 6 100292389.70042  24492365.086                    24492373.969
 129458633.999 6 100876841.54343  24635144.883                    24635153.797
 111780635.746 8  87101848.62346  21271118.164                    21271123.023
 118721069.394 7  92509987.16944  22591854.016                    22591860.336
 11  7 27  3 32 30.0000000  0  8G12G05G25G29G04G26G02G10
 110991513.095 8  86487086.572 7  21121010.781
 106548633.449 8  83025009.021 8  20275510.516
 113925401.616 8  88773002.053 7  21679253.461
 121231383.340 7  94465890.028 6  23069514.984
 128788951.339 5 100355145.98942  24507690.766                    24507699.410
 129362414.608 6 100801865.49343  24616835.820                    24616843.898
 111816651.828 7  87129913.11146  21277971.617                    21277976.074
 118813117.566 7  92581713.03744  22609369.031                    22609376.652
 11  7 27  3 33  0.0000000  0  8G12G05G25G29G04G26G02G10
 111037800.923 8  86523155.025 7  21129819.016
 106548053.164 8  83024556.867 8  20275400.008
 113904013.274 8  88756335.829 7  21675183.461
 121148438.745 7  94401257.944 6  23053730.680
 128869436.021 6 100417861.22842  24523005.695                    24523015.086
 129266104.824 6 100726819.00442  24598507.492                    24598516.355
 111852787.256 8  87158070.59046  21284847.641                    21284852.977
 118905473.324 7  92653678.55944  22626944.164                    22626950.715
 11  7 27  3 33 30.0000000  0  8G12G05G25G29G04G26G02G10
 111084599.478 8  86559621.432 7  21138724.305
 106548043.894 8  83024549.665 8  20275398.188
 113883203.019 8  88740120.056 7  21671223.219
 121065525.581 7  94336650.324 6  23037952.180
 128949867.698 6 100480535.28542  24538312.500                    24538321.008
 129169708.017 6 100651704.67542  24580163.508                    24580173.324
 111889041.636 8  87186320.76646  21291746.563                    21291751.531
 118998133.936 6  92725881.63844  22644577.391                    22644584.016
 11  7 27  3 34  0.0000000  0  8G12G05G25G29G04G26G02G10
 111131906.764 8  86596484.254 7  21147726.508
 106548604.792 8  83024986.740 8  20275504.742
 113862971.309 8  88724355.097 7  21667373.695
 120982645.477 7  94272068.488 6  23022181.328
 129030246.250 6 100543167.97743  24553607.781                    24553615.703
 129073226.772 5 100576524.52942  24561803.641                    24561813.875
 111925414.436 8  87214663.22946  21298668.469                    21298673.363
 119091096.169 7  92798319.74444  22662267.508                    22662273.637
 11  7 27  3 34 30.0000000  0  8G12G05G25G29G04G26G02G10
 111179721.027 8  86633742.118 7  21156825.297
 106549735.520 8  83025867.838 8  20275720.148
 113843318.822 8  88709041.498 7  21663633.852
 120899799.879 7  94207513.523 6  23006416.383
 129110571.640 6 100605759.17443  24568893.727                    24568900.824
 128976664.383 6 100501281.10142  24543428.773                    24543438.098
 111961905.380 8  87243097.74446  21305612.117                    21305617.234
 119184357.104 7  92870990.59544  22680014.367                    22680021.375
 11  7 27  3 35  0.0000000  0  8G12G05G25G29G04G26G02G10
 111228040.288 8  86671393.495 7  21166020.250
 106551435.137 8  83027192.233 8  20276043.430
 113824245.833 8  88694179.453 7  21660004.398
 120816990.047 7  94142986.417 6  22990658.102
 129190843.177 6 100668308.42543  24584168.508                    24584176.516
 128880024.076 6 100425977.10642  24525039.086                    24525047.824
 111998513.536 8  87271623.58446  21312578.438                    21312583.539
 119277913.967 7  92943892.03944  22697817.398                    22697823.953
 11  7 27  3 35 30.0000000  0  8G12G05G25G29G04G26G02G10
 111276862.459 8  86709436.759 7  21175310.828
 106553703.131 8  83028959.509 8  20276475.305
 113805753.065 8  88679769.510 7  21656484.906
 120734217.795 7  94078488.559 6  22974907.117
 129271061.010 6 100730815.81343  24599432.766                    24599441.758
 128783308.576 6 100350614.40742  24506634.750                    24506643.250
 112035238.826 8  87300240.71946  21319567.289                    21319572.148
 119371764.048 7  93017021.97944  22715675.906                    22715682.910
 11  7 27  3 36  0.0000000  0  8G12G05G25G29G04G26G02G10
 111326185.812 8  86747870.542 7  21184696.492
 106556538.500 8  83031168.892 8  20277014.570
 113787840.779 8  88665811.920 7  21653076.648
 120651484.436 7  94014021.074 6  22959163.672
 129351224.730 6 100793281.02043  24614688.336                    24614695.621
 128686520.923 6 100275195.45343  24488216.797                    24488224.527
 112072080.617 8  87328948.60946  21326578.180                    21326582.789
 119465904.464 7  93090378.12844  22733591.141                    22733597.852
 11  7 27  3 36 30.0000000  0  8G12G05G25G29G04G26G02G10
 111376007.881 8  86786692.951 7  21194177.484
 106559940.690 8  83033819.963 8  20277662.063
 113770509.243 8  88652306.850 7  21649778.203
 120568791.534 7  93949585.054 6  22943427.664
 129431333.689 6 100855703.58843  24629932.844                    24629939.895
 128589664.515 6 100199722.93143  24469785.688                    24469793.801
 112109038.106 8  87357746.66046  21333611.031                    21333615.676
 119560331.867 7  93163957.94244  22751560.078                    22751565.867
 11  7 27  3 37  0.0000000  0  8G12G05G25G29G04G26G02G10
 111426326.892 8  86825902.572 7  21203752.641
 106563908.978 8  83036912.159 8  20278417.172
 113753759.086 8  88639254.800 7  21646590.602
 120486140.500 7  93885181.684 6  22927699.188
 129511388.222 6 100918083.74443  24645165.547                    24645173.789
 128492742.121 6 100124199.01743  24451342.133                    24451350.324
 112146110.972 8  87386634.61746  21340665.898                    21340670.371
 119655043.709 7  93237759.36744  22769583.203                    22769589.602
 11  7 27  3 37 30.0000000  0  8G12G05G25G29G04G26G02G10
 111477140.711 8  86865497.756 7  21213422.266
 106568442.504 8  83040444.784 8  20279280.063
 113737590.575 8  88626655.979 7  21643514.039
 120403532.829 7  93820812.120 6  22911979.523
 129591388.114 6 100980421.33243  24660389.984                    24660397.211
 128395757.111 6 100048626.31843  24432886.422                    24432895.172
 112183298.776 8  87415612.12646  21347742.023                    21347746.512
 119750037.017 7  93311780.13444  22787659.703                    22787666.207
 11  7 27  3 38  0.0000000  0  8G12G05G25G29G04G26G02G10
 111528447.700 8  86905477.218 7  21223185.633
 106573540.824 8  83044417.522 8  20280250.141
 113722004.217 8  88614510.776 7  21640548.125
 120320970.530 7  93756477.901 6  22896268.117
 129671333.147 6 101042716.13343  24675602.672                    24675610.559
 128298712.371 6  99973007.13643  24414418.953                    24414427.875
 112220601.031 8  87444678.80846  21354840.250                    21354844.805
 119845309.000 7  93386018.03544  22805789.164                    22805796.207
 11  7 27  3 38 30.0000000  0  8G12G05G25G29G04G26G02G10
 111580245.334 8  86945839.018 7  21233042.703
 106579202.708 8  83048829.408 8  20281327.430
 113707000.204 8  88602819.326 7  21637692.758
 120238454.870 7  93692179.999 7  22880566.711
 129751222.769 6 101104967.74343  24690804.992                    24690813.305
 128201611.191 6  99897343.92343  24395941.656                    24395949.711
 112258017.343 8  87473834.38146  21361960.422                    21361965.188
 119940856.557 7  93460470.66344  22823971.242                    22823978.199
 11  7 27  3 39  0.0000000  0  8G12G05G25G29G04G26G02G10
 111632532.014 8  86986581.877 7  21242992.508
 106585427.651 8  83053680.022 8  20282512.023
 113692578.923 8  88591581.968 7  21634948.984
 120155987.535 7  93627919.802 6  22864872.984
 129831056.999 6 101167176.22043  24705997.414                    24706005.121
 128104456.572 6  99821639.12243  24377453.133                    24377462.199
 112295547.243 8  87503078.46846  21369102.250                    21369106.859
 120036677.391 7  93535136.23844  22842205.289                    22842212.164
 11  7 27  3 39 30.0000000  0  8G12G05G25G29G04G26G02G10
 111685305.260 8  87027703.880 7  21253034.750
 106592214.957 8  83058968.855 8  20283803.484
 113678740.769 8  88580798.990 7  21632315.383
 120073570.179 7  93563698.508 6  22849189.938
 129910836.018 6 101229341.68744  24721178.703                    24721186.961
 128007251.924 6  99745895.31943  24358956.109                    24358964.762
 112333190.690 8  87532411.02846  21376265.727                    21376270.359
 120132768.321 6  93610012.27844  22860491.039                    22860498.078
 11  7 27  3 40  0.0000000  0  8G12G05G25G29G04G26G02G10
 111738562.993 8  87069203.402 7  21263169.805
 106599563.038 8  83064694.649 8  20285201.805
 113665485.725 8  88570470.383 7  21629793.219
 119991204.238 7  93499517.287 6  22833515.789
 129990559.156 6 101291463.62444  24736349.453                    24736357.176
 127910000.053 6  99670114.72743  24340448.867                    24340457.742
 112370946.632 8  87561831.25946  21383450.297                    21383455.273
 120229126.267 7  93685096.35044  22878827.094                    22878834.695
 11  7 27  3 40 30.0000000  0  8G12G05G25G29G04G26G02G10
 111792303.188 8  87111078.874 7  21273396.078
 106607471.594 8  83070857.176 8  20286706.430
 113652814.158 8  88560596.427 7  21627381.352
 119908891.492 7  93435377.556 7  22817852.391
 130070226.425 6 101353541.96943  24751510.094                    24751517.770
 127812704.297 5  99594299.99043  24321933.195                    24321943.164
 112408814.764 8  87591338.88846  21390656.438                    21390661.559
 120325748.561 7  93760386.43844  22897214.375                    22897220.902
 11  7 27  3 41  0.0000000  0  8G12G05G25G29G04G26G02G10
 111846523.585 8  87153328.533 7  21283713.563
 106615939.189 8  83077455.327 8  20288318.086
 113640726.231 8  88551177.246 7  21625081.063
 119826633.451 7  93371280.440 7  22802199.313
 130149837.502 6 101415576.52643  24766659.602                    24766667.613
 127715367.829 5  99518453.47843  24303411.992                    24303420.668
 112446794.527 8  87620933.51946  21397883.500                    21397888.133
 120422631.775 7  93835879.84644  22915650.219                    22915657.426
 11  7 27  3 41 30.0000000  0  8G12G05G25G29G04G26G02G10
 111901222.269 7  87195950.883 7  21294122.570
 106624965.817 8  83084489.079 8  20290035.680
 113629222.299 8  88542213.142 7  21622892.258
 119744431.899 7  93307227.345 6  22786556.938
 130229392.590 6 101477567.53743  24781797.875                    24781805.836
 127617994.108 5  99442577.92343  24284882.539                    24284891.188
 112484885.953 8  87650615.14746  21405132.672                    21405136.906
 120519773.731 7  93911574.88344  22934135.688                    22934142.703
 11  7 27  3 42  0.0000000  0  8G12G05G25G29G04G26G02G10
 111956397.205 8  87238944.341 7  21304622.008
 106634549.695 8  83091957.057 8  20291859.648
 113618302.241 8  88533703.988 7  21620814.531
 119662288.308 7  93243219.380 6  22770925.508
 130308891.388 6 101539514.55842  24796926.328                    24796934.215
 127520585.812 6  99366675.45543  24266345.570                    24266354.070
 112523088.446 8  87680383.32846  21412401.820                    21412406.262
 120617171.293 7  93987469.11544  22952670.359                    22952676.465
 11  7 27  3 42 30.0000000  0  8G12G05G25G29G04G26G02G10
 112012045.738 8  87282306.826 7  21315211.273
 106644689.610 8  83099858.308 8  20293789.086
 113607966.247 8  88525649.940 7  21618847.531
 119580204.293 7  93179257.864 6  22755305.086
 130388333.40015 101601417.43252  24812042.242                    24812051.520
 127423146.313 6  99290748.56443  24247804.359                    24247812.195
 112561401.720 8  87710237.82246  21419692.664                    21419697.395
 120714821.321 7  94063560.05644  22971251.570                    22971259.336
 11  7 27  3 43  0.0000000  0  8G12G05G25G29G04G26G02G10
 112068165.525 7  87326036.531 7  21325890.492
 106655384.941 8  83108192.356 8  20295824.594
 113598214.427 8  88518051.109 7  21616991.758
 119498181.662 7  93115344.163 6  22739696.836
 130467718.871 5 101663276.23042  24827148.883                    24827158.711
 127325679.103 6  99214800.14043  24229255.984                    24229264.672
 112599825.185 8  87740178.18746  21427004.078                    21427009.121
 120812721.206 7  94139845.66144  22989881.414                    22989888.535
 11  7 27  3 43 30.0000000  0  8G12G05G25G29G04G26G02G10
 112124754.879 7  87370132.122 7  21336659.195
 106666635.281 8  83116958.863 8  20297965.352
 113589047.196 8  88510907.797 7  21615247.406
 119416222.178 7  93051479.674 7  22724100.445
 130547047.776 5 101725091.00642  24842244.734                    24842253.699
 127228187.390 6  99138832.63343  24210704.328                    24210711.930
 112638358.872 8  87770204.43946  21434337.141                    21434342.488
 120910868.488 7  94216324.06844  23008558.547                    23008565.668
 11  7 27  3 44  0.0000000  0  8G12G05G25G29G04G26G02G10
 112181811.299 8  87414591.672 7  21347516.703
 106678439.476 8  83126156.952 8  20300211.406
 113580464.541 8  88504220.010 7  21613614.047
 119334327.802 7  92987665.896 6  22708515.797
 130626319.989 5 101786861.51042  24857330.945                    24857339.188
 127130674.396 7  99062848.54943  24192148.320                    24192156.516
 112677002.235 8  87800316.14846  21441690.750                    21441695.535
 121009260.231 7  94292992.94344  23027281.469                    23027289.055
 11  7 27  3 44 30.0000000  0  8G12G05G25G29G04G26G02G10
 112239332.379 8  87459413.290 7  21358462.641
 106690795.565 8  83135785.086 8  20302562.703
 113572465.950 8  88497987.334 7  21612091.945
 119252499.365 7  92923903.537 6  22692945.078
 130705535.025 6 101848587.60142  24872404.906                    24872414.039
 127033143.101 7  98986850.08743  24173588.172                    24173596.270
 112715754.468 8  87830512.70246  21449065.313                    21449070.102
 121107893.137 7  94369849.77143  23046050.758                    23046058.215
 11  7 27  3 45  0.0000000  0  8G12G05G25G29G04G26G02G10
 112297315.762 8  87504595.143 7  21369496.508
 106703702.347 8  83145842.335 8  20305018.688
 113565051.387 8  88492209.748 7  21610681.320
 119170738.761 7  92860194.008 6  22677386.344
 130784692.604 6                  24887468.984
 126935596.567 7  98910839.79743  24155025.945                    24155034.578
 112754615.092 8  87860793.70946  21456459.938                    21456464.945
 121206764.273 7  94446892.19244  23064865.430                    23064872.973
 11  7 27  3 45 30.0000000  0  8G12G05G25G29G04G26G02G10
 112355759.382 8  87550135.635 7  21380617.906
 106717159.232 8  83156328.232 8  20307579.781
 113558221.146 8  88486887.496 7  21609381.406
 119089047.998 7  92796538.903 6  22661840.984
 130863792.958 6                  24902520.672
 126838038.352 7  98834820.48843  24136461.430                    24136469.891
 112793584.237 8  87891159.28046  21463875.664                    21463880.207
 121305871.005 7  94524118.21844  23083724.523                    23083731.613
 11  7 27  3 46  0.0000000  0  8G12G05G25G29G04G26G02G10
 112414661.236 8  87596033.174 7  21391826.516
 106731165.183 8  83167241.968 8  20310244.742
 113551975.160 8  88482020.495 7  21608193.109
 119007428.801 7  92732939.581 6  22646309.625
 130942836.080 6 102033276.52552  24917562.148                    24917568.797
 126740471.769 6  98758794.58543  24117895.438                    24117903.742
 112832661.486 8  87921609.08046  21471312.148                    21471316.195
 121405210.490 7  94601525.60244  23102628.734                    23102636.223
 11  7 27  3 46 30.0000000  0  8G12G05G25G29G04G26G02G10
 112474018.176 8  87642285.323 7  21403121.961
 106745718.919 8  83178582.549 8  20313014.156
 113546313.385 8  88477608.732 7  21607115.523
 118925882.759 7  92669397.248 6  22630791.531
 131021822.046 6 102094823.98242  24932591.836                    24932600.629
 126642900.094 6  98682764.78443  24099327.773                    24099336.547
 112871846.528 8  87952142.88546  21478768.375                    21478773.016
 121504780.126 7  94679112.35744  23121576.328                    23121583.348
 11  7 27  3 47  0.0000000  0  8G12G05G25G29G04G26G02G10
 112533828.314 8  87688890.642 7  21414503.070
 106760819.442 8  83190349.213 8  20315887.883
 113541235.725 8  88473652.133 7  21606149.359
 118844411.896 7  92605913.480 7  22615288.500
 131100750.502 6 102156326.68542  24947612.133                    24947620.609
 126545326.740 6  98606733.71843  24080759.984                    24080768.727
 112911139.008 8  87982760.40246  21486245.313                    21486250.051
 121604576.794 7  94756875.98344  23140565.781                    23140574.434
 11  7 27  3 47 30.0000000  0  8G12G05G25G29G04G26G02G10
 112594089.243 8  87735847.204 7  21425970.930
 106776465.503 8  83202540.967 8  20318864.961
 113536742.012 8  88470150.539 7  21605293.859
 118763017.519 7  92542489.335 6  22599799.453
 131179621.395 6 102217784.50142  24962620.688                    24962629.082
 126447755.103 6  98530703.93343  24062192.602                    24062201.754
 112950538.725 8  88013461.48646  21493742.898                    21493747.695
 121704597.738 7  94834814.37744  23159599.789                    23159607.289
 11  7 27  3 48  0.0000000  0  8G12G05G25G29G04G26G02G10
 112654798.407 7  87783153.030 7  21437523.289
 106792655.608 8  83215156.637 8  20321946.023
 113532831.956 8  88467103.777 7  21604550.063
 118681701.829 7  92479126.505 6  22584325.484
 131258434.758 6 102279197.49542  24977617.727                    24977626.559
 126350188.222 6  98454677.84143  24043626.227                    24043634.762
 112990045.176 8  88044245.73046  21501260.977                    21501265.906
 121804840.145 7  94912925.39044  23178675.297                    23178682.352
 11  7 27  3 48 30.0000000  0  8G12G05G25G29G04G26G02G10
 112715953.533 7  87830806.368 7  21449160.516
 106809388.628 8  83228195.373 8  20325130.391
 113529505.370 8  88464511.623 7  21603916.867
 118600466.349 7  92415826.144 7  22568866.320
 131337190.230 6 102340565.40542  24992604.453                    24992612.828
 126252629.400 6  98378658.10243  24025060.953                    24025069.578
 113029658.003 8  88075112.87146  21508798.898                    21508803.703
 121905301.295 7  94991206.78744  23197792.516                    23197799.652
 11  7 27  3 49  0.0000000  0  8G12G05G25G29G04G26G02G10
 112777552.619 8  87878805.656 7  21460882.797
 106826663.852 8  83241656.596 8  20328417.352
 113526762.308 7  88462374.189 7  21603394.813
 118519313.078 7  92352589.856 6  22553424.297
 131415888.267 5 102401888.51242  25007580.367                    25007589.141
 126155082.289 6  98302647.45544  24006499.148                    24006507.934
 113069377.116 8  88106062.82846  21516357.258                    21516361.711
 122005978.371 7  95069656.45544  23216950.695                    23216957.906
 11  7 27  3 49 30.0000000  0  8G12G05G25G29G04G26G02G10
 112839592.881 7  87927148.713 7  21472688.563
 106844479.086 8  83255538.617 8  20331807.758
 113524602.142 8  88460690.973 7  21602983.695
 118438243.465 7  92289418.787 7  22537996.875
 131494528.326 6 102463166.45942  25022545.117                    25022554.031
 126057549.912 7  98226648.26544  23987939.281                    23987947.781
 113109201.923 8  88137095.14546  21523935.586                    21523940.379
 122106868.373 6  95148272.00944  23236149.594                    23236157.105
 11  7 27  3 50  0.0000000  0  8G12G05G25G29G04G26G02G10
 112902071.481 7  87975833.334 7  21484578.055
 106862833.126 8  83269840.477 8  20335300.219
 113523024.452 7  88459461.623 7  21602683.531
 118357259.122 7  92226314.136 7  22522586.141
 131573110.482 5 102524399.23842  25037499.555                    25037507.840
 125960035.647 7  98150663.15944  23969382.914                    23969390.914
 113149131.927 8  88168209.42546  21531533.656                    21531538.461
 122207968.383 7  95227051.26244  23255388.516                    23255395.109
 11  7 27  3 50 30.0000000  0  8G12G05G25G29G04G26G02G10
 112964986.331 7  88024857.890 7  21496549.852
 106881725.119 8  83284561.515 8  20338895.375
 113522029.380 8  88458686.254 7  21602493.945
 118276362.339 7  92163277.719 7  22507192.031
 131651634.579 6 102585586.92742  25052441.055                    25052450.711
 125862542.853 7  98074694.80343  23950830.477                    23950837.789
 113189167.431 8  88199405.91846  21539152.391                    21539156.805
 122309276.004 6  95305992.23343  23274666.063                    23274674.297
 11  7 27  3 51  0.0000000  0  8G12G05G25G29G04G26G02G10
 113028334.871 8  88074220.366 7  21508604.797
 106901153.395 8  83299700.449 8  20342592.508
 113521616.332 8  88458364.405 7  21602415.508
 118195554.698 7  92100310.773 6  22491814.469
 131730100.947 5 102646729.39942  25067373.859                    25067382.602
 125765074.931 7  97998745.79143  23932283.047                    23932290.500
 113229307.689 8  88230684.03446  21546790.938                    21546795.359
 122410788.239 6  95385092.68643  23293984.375                    23293990.938
 11  7 27  3 51 30.0000000  0  8G12G05G25G29G04G26G02G10
 113092114.561 7  88123918.824 7  21520741.578
 106921116.415 8  83315256.067 8  20346391.086
 113521784.941 8  88458495.788 7  21602448.008
 118114838.007 7  92037414.705 7  22476454.914
 131808509.01915 102707826.68152  25082291.680                    25082303.211
 125667635.397 7  97922818.92944  23913740.516                    23913749.082
 113269552.599 8  88262043.69246  21554449.516                    21554453.957
 122512502.172 6  95464350.31943  23313338.531                    23313345.805
 11  7 27  3 52  0.0000000  0  9G12G05G25G29G15G04G26G02G10
 113156322.042 8  88173950.626 7  21532960.195
 106941612.448 8  83331227.009 8  20350291.453
 113522534.050 8  88459079.529 7  21602589.922
 118034213.296 7  91974590.299 7  22461112.289
 130699734.27015                  24871333.516
 131886858.370 5                  25097202.664
 125570226.566 6  97846915.96443  23895204.195                    23895212.004
 113309901.123 8  88293484.10646  21562127.516                    21562131.852
 122614414.084 6  95543762.18443  23332732.289                    23332739.289
 11  7 27  3 52 30.0000000  0  8G12G05G25G29G04G26G02G10
 113220957.312 8  88224315.769 7  21545259.727
 106962642.001 8  83347613.702 8  20354292.992
 113523865.344 7  88460116.897 7  21602843.883
 117953684.273 7  91911840.439 6  22445788.094
 131965150.842 5                  25112101.844
 125472854.101 6  97771041.31543  23876675.250                    23876681.969
 113350354.959 8  88325006.58146  21569825.773                    21569830.547
 122716523.438 7  95623327.90743  23352163.063                    23352169.785
 11  7 27  3 53  0.0000000  0  9G12G05G25G29G15G04G26G02G10
 113286016.153 8  88275010.965 7  21557639.602
 106984202.388 8  83364414.016 8  20358395.906
 113525777.080 8  88461606.558 7  21603207.477
 117873251.905 7  91849165.915 7  22430482.305
 130512598.00815                  24835730.727
 132043385.443 6 102890853.15252  25126990.609                    25126997.555
 125375519.949 6  97695196.56443  23858152.484                    23858159.504
 113390912.719 8  88356610.02946  21577543.633                    21577547.777
 122818826.354 6  95703044.48143  23371630.094                    23371637.340
 11  7 27  3 53 30.0000000  0  9G12G05G25G29G15G04G26G02G10
 113351496.031 8  88326034.235 7  21570100.758
 107006292.161 8  83381626.840 8  20362599.492
 113528268.919 7  88463548.244 7  21603681.641
 117792918.051 7  91786568.161 7  22415194.922
 130418825.446 4 101625137.22914  24817885.570
 132121561.79115 102951769.76452  25141866.828                    25141874.449
 125278227.719 6  97619384.45743  23839638.820                    23839646.250
 113431574.112 8  88388294.23946  21585281.469                    21585285.832
 122921319.789 6  95782909.46543  23391134.430                    23391141.355
 11  7 27  3 54  0.0000000  0  9G12G05G25G29G15G04G26G02G10
 113417394.390 8  88377383.628 7  21582640.664
 107028909.696 8  83399250.902 8  20366903.570
 113531340.166 8  88465941.433 7  21604265.891
 117712684.284 7  91724048.413 6  22399927.133
 130324906.78214 101551954.12614  24800012.227
 132199679.972 5 103012641.16042  25156731.000                    25156740.980
 125180980.703 6  97543607.59343  23821132.656                    23821141.137
 113472338.699 8  88420058.84946  21593038.234                    21593042.836
 123024001.106 7  95862920.87644  23410674.523                    23410681.250
 11  7 27  3 54 30.0000000  0  8G12G05G25G29G15G26G02G10
 113483709.278 7  88429057.561 7  21595259.852
 107052054.073 8  83417285.485 8  20371307.969
 113534990.887 8  88468786.122 7  21604960.836
 117632552.668 7  91661608.231 6  22384678.586
 130230845.22415 101478659.43214  24782112.953
 125083782.686 7  97467868.97744  23802636.922                    23802645.953
 113513206.872 8  88451904.16946  21600815.289                    21600820.035
 123126867.725 6  95943076.68043  23430249.227                    23430256.535
 11  7 27  3 55  0.0000000  0  9G12G05G25G29G15G04G26G02G10
 113550437.596 7  88481053.653 7  21607957.398
 107075723.243 8  83435729.003 8  20375811.586
 113539220.058 8  88472081.600 7  21605765.586
 117552525.060 7  91599249.085 7  22369449.945
 130136642.376 4 101405254.762 5  24764186.352
 132355745.15915                  25186429.195
 124986636.880 7  97392170.98243  23784150.266                    23784158.848
 113554178.082 8  88483829.81345  21608611.570                    21608616.336
 123229916.668 7  96023374.55644  23449859.102                    23449866.156
 11  7 27  3 55 30.0000000  0  9G12G05G25G29G15G04G26G02G10
 113617576.750 7  88533369.875 7  21620733.727
 107099916.059 8  83454580.561 8  20380415.641
 113544027.318 8  88475827.514 7  21606680.039
 117472603.240 7  91536972.410 6  22354241.336
 130042300.845 6 101331741.958 5  24746235.734
 132433689.714 5                  25201261.023
 124889546.962 6  97316516.52843  23765675.219                    23765682.535
 113595252.009 8  88515835.47246  21616428.297                    21616432.543
 123333145.492 7  96103812.58944  23469502.461                    23469510.090
 11  7 27  3 56  0.0000000  0  9G12G05G25G29G15G04G26G02G10
 113685123.759 7  88586003.914 7  21633587.672
 107124630.104 8  83473838.285 8  20385118.391
 113549411.614 8  88480023.070 7  21607704.828
 117392789.060 7  91474779.578 7  22339052.891
 129947823.067 6 101258122.991 5  24728257.789
 132511576.204 5                  25216081.258
 124792515.805 6  97240907.89043  23747210.859                    23747218.719
 113636428.294 8  88547920.91146  21624263.484                    21624268.059
 123436550.792 7  96184388.14544  23489179.781                    23489187.406
 11  7 27  3 56 30.0000000  0  9G12G05G25G29G15G04G26G02G10
 113753076.639 8  88638954.203 7  21646519.039
 107149864.970 8  83493501.829 8  20389920.109
 113555372.853 8  88484668.178 7  21608839.211
 117313084.720 7  91412672.329 7  22323886.039
 129853211.933 6 101184400.224 5  24710253.469
 132589405.49114                  25230890.555
 124695547.209 6  97165347.99843  23728757.781                    23728766.219
 113677706.806 8  88580085.98946  21632118.547                    21632123.398
 123540130.423 7  96265099.53844  23508890.234                    23508897.766
 11  7 27  3 57  0.0000000  0  9G12G05G25G29G15G04G26G02G10
 113821432.679 7  88692218.652 7  21659526.820
 107175618.798 8  83513569.753 8  20394821.273
 113561910.249 8  88489762.230 7  21610083.258
 117233491.970 7  91350652.061 7  22308740.102
 129758469.696 6 101110575.213 5  24692224.367
 132667175.79215                  25245692.164
 124598644.844 6  97089839.72444  23710318.320                    23710326.383
 113719087.351 8  88612330.57846  21639992.672                    21639997.609
 123643881.539 7  96345944.55743  23528633.203                    23528641.035
 11  7 27  3 57 30.0000000  0  9G12G05G25G29G15G04G26G02G10
 113890188.814 7  88745794.866 7  21672610.609
 107201889.360 8  83534040.324 8  20399820.102
 113569022.753 8  88495304.452 7  21611436.469
 117154012.591 7  91288720.106 7  22293615.430
 129663598.460 6 101036649.671 5  24674170.836
 132744888.422 4                  25260478.227
 124501811.503 6  97014385.22543  23691891.016                    23691899.191
 113760569.778 8  88644654.55946  21647886.688                    21647891.133
 123747801.031 6  96426920.79844  23548408.813                    23548416.285
 11  7 27  3 58  0.0000000  0  9G12G05G25G29G15G04G26G02G10
 113959342.544 7  88799680.889 7  21685769.938
 107228675.602 8  83554912.733 8  20404917.578
 113576710.078 8  88501294.556 7  21612899.734
 117074648.597 7  91226878.065 7  22278512.820
 129568600.980 6 100962625.820 5  24656093.328
 132822543.227 5                  25275257.234
 124405051.400 6  96938987.77243  23673478.109                    23673485.578
 113802154.152 8  88677057.97746  21655799.992                    21655804.816
 123851886.739 6  96508026.48743  23568215.930                    23568223.203
 11  7 27  3 58 30.0000000  0  9G12G05G25G29G15G04G26G02G10
 114028891.100 8  88853874.573 7  21699004.594
 107255975.762 8  83576185.587 8  20410112.648
 113584971.382 8  88507731.949 7  21614471.547
 116995401.830 7  91165127.366 7  22263432.492
 129473479.818 6 100888505.608 5  24637991.406
 132900139.952 5                  25290023.930
 124308367.641 7  96863649.84044  23655080.141                    23655088.336
 113843840.062 7  88709540.50146  21663732.805                    21663737.652
 123956135.783 6  96589259.47743  23588053.094                    23588060.605
 11  7 27  3 59  0.0000000  0  9G12G05G25G29G15G04G26G02G10
 114098832.036 8  88908374.001 7  21712314.000
 107283788.351 8  83597857.755 8  20415405.281
 113593805.889 8  88514615.996 7  21616152.508
 116916274.420 7  91103469.685 7  22248374.945
 129378237.357 6 100814290.800 5  24619867.813
 132977679.151 5                  25304778.898
 124211763.797 7  96788374.16744  23636696.859                    23636704.965
 113885627.362 7  88742102.03446  21671684.164                    21671688.973
 124060545.564 6  96670617.74143  23607922.211                    23607929.527
